<?xml version="1.0" encoding="UTF-8" standalone="no" ?>
<gpx xmlns="http://www.topografix.com/GPX/1/1" xmlns:xsi="http://www.w3.org/2001/XMLSchema-instance" xsi:schemaLocation="http://www.topografix.com/GPX/1/1 http://www.topografix.com/GPX/1/1/gpx.xsd" version="1.1" creator="VisuGPX - https://www.visugpx.com">
  <metadata>
    <name>La Chablaisienne 2018</name>
    <desc><![CDATA[File with points/tracks from Locus Map/3.32.2]]></desc>
  </metadata>
  <trk>
    <name><![CDATA[8804115-2018 parcours 3 cols]]></name>
    <trkseg>
      <trkpt lat="46.27161" lon="6.39957">
        <ele>572</ele>
        <time>2018-09-01T12:15:14.000Z</time>
      </trkpt>
      <trkpt lat="46.27154" lon="6.39962">
        <ele>572</ele>
        <time>2018-09-01T12:16:14.000Z</time>
      </trkpt>
      <trkpt lat="46.27147" lon="6.39964">
        <ele>573</ele>
        <time>2018-09-01T12:17:14.000Z</time>
      </trkpt>
      <trkpt lat="46.27114" lon="6.3995">
        <ele>573</ele>
        <time>2018-09-01T12:18:14.000Z</time>
      </trkpt>
      <trkpt lat="46.27089" lon="6.39974">
        <ele>575</ele>
        <time>2018-09-01T12:19:14.000Z</time>
      </trkpt>
      <trkpt lat="46.27072" lon="6.39993">
        <ele>575</ele>
        <time>2018-09-01T12:20:14.000Z</time>
      </trkpt>
      <trkpt lat="46.27024" lon="6.4003">
        <ele>579</ele>
        <time>2018-09-01T12:21:14.000Z</time>
      </trkpt>
      <trkpt lat="46.26953" lon="6.3986">
        <ele>579</ele>
        <time>2018-09-01T12:22:14.000Z</time>
      </trkpt>
      <trkpt lat="46.26933" lon="6.39841">
        <ele>580</ele>
        <time>2018-09-01T12:23:14.000Z</time>
      </trkpt>
      <trkpt lat="46.269" lon="6.39823">
        <ele>581</ele>
        <time>2018-09-01T12:24:14.000Z</time>
      </trkpt>
      <trkpt lat="46.26883" lon="6.39808">
        <ele>582</ele>
        <time>2018-09-01T12:25:14.000Z</time>
      </trkpt>
      <trkpt lat="46.26867" lon="6.39788">
        <ele>583</ele>
        <time>2018-09-01T12:26:14.000Z</time>
      </trkpt>
      <trkpt lat="46.26829" lon="6.39695">
        <ele>581</ele>
        <time>2018-09-01T12:27:14.000Z</time>
      </trkpt>
      <trkpt lat="46.26797" lon="6.39603">
        <ele>581</ele>
        <time>2018-09-01T12:28:14.000Z</time>
      </trkpt>
      <trkpt lat="46.26787" lon="6.39565">
        <ele>581</ele>
        <time>2018-09-01T12:29:14.000Z</time>
      </trkpt>
      <trkpt lat="46.26778" lon="6.39512">
        <ele>580</ele>
        <time>2018-09-01T12:30:14.000Z</time>
      </trkpt>
      <trkpt lat="46.26763" lon="6.3945">
        <ele>579</ele>
        <time>2018-09-01T12:31:14.000Z</time>
      </trkpt>
      <trkpt lat="46.26734" lon="6.3939">
        <ele>580</ele>
        <time>2018-09-01T12:32:14.000Z</time>
      </trkpt>
      <trkpt lat="46.26686" lon="6.39241">
        <ele>583</ele>
        <time>2018-09-01T12:33:14.000Z</time>
      </trkpt>
      <trkpt lat="46.26666" lon="6.39194">
        <ele>583</ele>
        <time>2018-09-01T12:34:14.000Z</time>
      </trkpt>
      <trkpt lat="46.26583" lon="6.3907">
        <ele>581</ele>
        <time>2018-09-01T12:35:14.000Z</time>
      </trkpt>
      <trkpt lat="46.26569" lon="6.39066">
        <ele>581</ele>
        <time>2018-09-01T12:36:14.000Z</time>
      </trkpt>
      <trkpt lat="46.26539" lon="6.39077">
        <ele>582</ele>
        <time>2018-09-01T12:37:14.000Z</time>
      </trkpt>
      <trkpt lat="46.26523" lon="6.39073">
        <ele>583</ele>
        <time>2018-09-01T12:38:14.000Z</time>
      </trkpt>
      <trkpt lat="46.26499" lon="6.39042">
        <ele>583</ele>
        <time>2018-09-01T12:39:14.000Z</time>
      </trkpt>
      <trkpt lat="46.26485" lon="6.39027">
        <ele>583</ele>
        <time>2018-09-01T12:40:14.000Z</time>
      </trkpt>
      <trkpt lat="46.26473" lon="6.39027">
        <ele>584</ele>
        <time>2018-09-01T12:41:14.000Z</time>
      </trkpt>
      <trkpt lat="46.26461" lon="6.3904">
        <ele>585</ele>
        <time>2018-09-01T12:42:14.000Z</time>
      </trkpt>
      <trkpt lat="46.26411" lon="6.39113">
        <ele>589</ele>
        <time>2018-09-01T12:43:14.000Z</time>
      </trkpt>
      <trkpt lat="46.26399" lon="6.39116">
        <ele>590</ele>
        <time>2018-09-01T12:44:14.000Z</time>
      </trkpt>
      <trkpt lat="46.26388" lon="6.39107">
        <ele>590</ele>
        <time>2018-09-01T12:45:14.000Z</time>
      </trkpt>
      <trkpt lat="46.26361" lon="6.3906">
        <ele>591</ele>
        <time>2018-09-01T12:46:14.000Z</time>
      </trkpt>
      <trkpt lat="46.26351" lon="6.38985">
        <ele>590</ele>
        <time>2018-09-01T12:47:14.000Z</time>
      </trkpt>
      <trkpt lat="46.26343" lon="6.38963">
        <ele>590</ele>
        <time>2018-09-01T12:48:14.000Z</time>
      </trkpt>
      <trkpt lat="46.26271" lon="6.38859">
        <ele>591</ele>
        <time>2018-09-01T12:49:14.000Z</time>
      </trkpt>
      <trkpt lat="46.26259" lon="6.38857">
        <ele>592</ele>
        <time>2018-09-01T12:50:14.000Z</time>
      </trkpt>
      <trkpt lat="46.26231" lon="6.38867">
        <ele>594</ele>
        <time>2018-09-01T12:51:14.000Z</time>
      </trkpt>
      <trkpt lat="46.26218" lon="6.38863">
        <ele>595</ele>
        <time>2018-09-01T12:52:14.000Z</time>
      </trkpt>
      <trkpt lat="46.262" lon="6.3884">
        <ele>596</ele>
        <time>2018-09-01T12:53:14.000Z</time>
      </trkpt>
      <trkpt lat="46.26187" lon="6.38839">
        <ele>597</ele>
        <time>2018-09-01T12:54:14.000Z</time>
      </trkpt>
      <trkpt lat="46.26178" lon="6.3876">
        <ele>595</ele>
        <time>2018-09-01T12:55:14.000Z</time>
      </trkpt>
      <trkpt lat="46.26183" lon="6.38755">
        <ele>594</ele>
        <time>2018-09-01T12:56:14.000Z</time>
      </trkpt>
      <trkpt lat="46.26195" lon="6.38723">
        <ele>592</ele>
        <time>2018-09-01T12:57:14.000Z</time>
      </trkpt>
      <trkpt lat="46.26221" lon="6.38666">
        <ele>590</ele>
        <time>2018-09-01T12:58:14.000Z</time>
      </trkpt>
      <trkpt lat="46.26231" lon="6.38628">
        <ele>588</ele>
        <time>2018-09-01T12:59:14.000Z</time>
      </trkpt>
      <trkpt lat="46.26238" lon="6.38611">
        <ele>587</ele>
        <time>2018-09-01T13:00:14.000Z</time>
      </trkpt>
      <trkpt lat="46.26249" lon="6.38593">
        <ele>586</ele>
        <time>2018-09-01T13:01:14.000Z</time>
      </trkpt>
      <trkpt lat="46.26253" lon="6.38574">
        <ele>586</ele>
        <time>2018-09-01T13:02:14.000Z</time>
      </trkpt>
      <trkpt lat="46.26251" lon="6.38547">
        <ele>586</ele>
        <time>2018-09-01T13:03:14.000Z</time>
      </trkpt>
      <trkpt lat="46.26245" lon="6.38509">
        <ele>586</ele>
        <time>2018-09-01T13:04:14.000Z</time>
      </trkpt>
      <trkpt lat="46.26245" lon="6.38489">
        <ele>586</ele>
        <time>2018-09-01T13:05:14.000Z</time>
      </trkpt>
      <trkpt lat="46.26248" lon="6.38477">
        <ele>586</ele>
        <time>2018-09-01T13:06:14.000Z</time>
      </trkpt>
      <trkpt lat="46.26268" lon="6.38451">
        <ele>584</ele>
        <time>2018-09-01T13:07:14.000Z</time>
      </trkpt>
      <trkpt lat="46.26298" lon="6.38422">
        <ele>581</ele>
        <time>2018-09-01T13:08:14.000Z</time>
      </trkpt>
      <trkpt lat="46.26322" lon="6.38404">
        <ele>580</ele>
        <time>2018-09-01T13:09:14.000Z</time>
      </trkpt>
      <trkpt lat="46.26359" lon="6.3839">
        <ele>577</ele>
        <time>2018-09-01T13:10:14.000Z</time>
      </trkpt>
      <trkpt lat="46.26372" lon="6.38381">
        <ele>576</ele>
        <time>2018-09-01T13:11:14.000Z</time>
      </trkpt>
      <trkpt lat="46.26383" lon="6.38359">
        <ele>576</ele>
        <time>2018-09-01T13:12:14.000Z</time>
      </trkpt>
      <trkpt lat="46.26387" lon="6.38326">
        <ele>576</ele>
        <time>2018-09-01T13:13:14.000Z</time>
      </trkpt>
      <trkpt lat="46.26395" lon="6.38294">
        <ele>575</ele>
        <time>2018-09-01T13:14:14.000Z</time>
      </trkpt>
      <trkpt lat="46.26453" lon="6.38157">
        <ele>570</ele>
        <time>2018-09-01T13:15:14.000Z</time>
      </trkpt>
      <trkpt lat="46.26459" lon="6.38135">
        <ele>569</ele>
        <time>2018-09-01T13:16:14.000Z</time>
      </trkpt>
      <trkpt lat="46.26461" lon="6.38122">
        <ele>569</ele>
        <time>2018-09-01T13:17:14.000Z</time>
      </trkpt>
      <trkpt lat="46.26458" lon="6.38108">
        <ele>569</ele>
        <time>2018-09-01T13:18:14.000Z</time>
      </trkpt>
      <trkpt lat="46.26444" lon="6.38063">
        <ele>571</ele>
        <time>2018-09-01T13:19:14.000Z</time>
      </trkpt>
      <trkpt lat="46.26439" lon="6.3803">
        <ele>571</ele>
        <time>2018-09-01T13:20:14.000Z</time>
      </trkpt>
      <trkpt lat="46.26433" lon="6.37892">
        <ele>571</ele>
        <time>2018-09-01T13:21:14.000Z</time>
      </trkpt>
      <trkpt lat="46.26433" lon="6.37844">
        <ele>572</ele>
        <time>2018-09-01T13:22:14.000Z</time>
      </trkpt>
      <trkpt lat="46.26428" lon="6.37805">
        <ele>573</ele>
        <time>2018-09-01T13:23:14.000Z</time>
      </trkpt>
      <trkpt lat="46.26428" lon="6.37805">
        <ele>573</ele>
        <time>2018-09-01T13:24:14.000Z</time>
      </trkpt>
      <trkpt lat="46.2642" lon="6.37734">
        <ele>575</ele>
        <time>2018-09-01T13:25:14.000Z</time>
      </trkpt>
      <trkpt lat="46.26415" lon="6.37635">
        <ele>575</ele>
        <time>2018-09-01T13:26:14.000Z</time>
      </trkpt>
      <trkpt lat="46.2641" lon="6.37599">
        <ele>575</ele>
        <time>2018-09-01T13:27:14.000Z</time>
      </trkpt>
      <trkpt lat="46.26372" lon="6.3743">
        <ele>575</ele>
        <time>2018-09-01T13:28:14.000Z</time>
      </trkpt>
      <trkpt lat="46.26366" lon="6.37397">
        <ele>574</ele>
        <time>2018-09-01T13:29:14.000Z</time>
      </trkpt>
      <trkpt lat="46.26361" lon="6.37377">
        <ele>573</ele>
        <time>2018-09-01T13:30:14.000Z</time>
      </trkpt>
      <trkpt lat="46.26353" lon="6.37355">
        <ele>573</ele>
        <time>2018-09-01T13:31:14.000Z</time>
      </trkpt>
      <trkpt lat="46.26341" lon="6.37329">
        <ele>572</ele>
        <time>2018-09-01T13:32:14.000Z</time>
      </trkpt>
      <trkpt lat="46.26327" lon="6.37304">
        <ele>573</ele>
        <time>2018-09-01T13:33:14.000Z</time>
      </trkpt>
      <trkpt lat="46.26298" lon="6.37219">
        <ele>574</ele>
        <time>2018-09-01T13:34:14.000Z</time>
      </trkpt>
      <trkpt lat="46.26281" lon="6.37176">
        <ele>574</ele>
        <time>2018-09-01T13:35:14.000Z</time>
      </trkpt>
      <trkpt lat="46.26273" lon="6.37165">
        <ele>575</ele>
        <time>2018-09-01T13:36:14.000Z</time>
      </trkpt>
      <trkpt lat="46.2626" lon="6.37133">
        <ele>575</ele>
        <time>2018-09-01T13:37:14.000Z</time>
      </trkpt>
      <trkpt lat="46.26255" lon="6.37115">
        <ele>574</ele>
        <time>2018-09-01T13:38:14.000Z</time>
      </trkpt>
      <trkpt lat="46.26275" lon="6.37113">
        <ele>573</ele>
        <time>2018-09-01T13:39:14.000Z</time>
      </trkpt>
      <trkpt lat="46.26275" lon="6.37113">
        <ele>573</ele>
        <time>2018-09-01T13:40:14.000Z</time>
      </trkpt>
      <trkpt lat="46.26432" lon="6.37098">
        <ele>568</ele>
        <time>2018-09-01T13:41:14.000Z</time>
      </trkpt>
      <trkpt lat="46.26444" lon="6.37093">
        <ele>568</ele>
        <time>2018-09-01T13:42:14.000Z</time>
      </trkpt>
      <trkpt lat="46.26512" lon="6.37047">
        <ele>564</ele>
        <time>2018-09-01T13:43:14.000Z</time>
      </trkpt>
      <trkpt lat="46.26556" lon="6.37014">
        <ele>559</ele>
        <time>2018-09-01T13:44:14.000Z</time>
      </trkpt>
      <trkpt lat="46.26908" lon="6.36667">
        <ele>550</ele>
        <time>2018-09-01T13:45:14.000Z</time>
      </trkpt>
      <trkpt lat="46.27086" lon="6.36242">
        <ele>547</ele>
        <time>2018-09-01T13:46:14.000Z</time>
      </trkpt>
      <trkpt lat="46.271" lon="6.36224">
        <ele>548</ele>
        <time>2018-09-01T13:47:14.000Z</time>
      </trkpt>
      <trkpt lat="46.27156" lon="6.36174">
        <ele>547</ele>
        <time>2018-09-01T13:48:14.000Z</time>
      </trkpt>
      <trkpt lat="46.27163" lon="6.36158">
        <ele>547</ele>
        <time>2018-09-01T13:49:14.000Z</time>
      </trkpt>
      <trkpt lat="46.27167" lon="6.3616">
        <ele>546</ele>
        <time>2018-09-01T13:50:14.000Z</time>
      </trkpt>
      <trkpt lat="46.27175" lon="6.36158">
        <ele>547</ele>
        <time>2018-09-01T13:51:14.000Z</time>
      </trkpt>
      <trkpt lat="46.27179" lon="6.36149">
        <ele>547</ele>
        <time>2018-09-01T13:52:14.000Z</time>
      </trkpt>
      <trkpt lat="46.2718" lon="6.36143">
        <ele>547</ele>
        <time>2018-09-01T13:53:14.000Z</time>
      </trkpt>
      <trkpt lat="46.27197" lon="6.36138">
        <ele>548</ele>
        <time>2018-09-01T13:54:14.000Z</time>
      </trkpt>
      <trkpt lat="46.27235" lon="6.36112">
        <ele>549</ele>
        <time>2018-09-01T13:55:14.000Z</time>
      </trkpt>
      <trkpt lat="46.27253" lon="6.36106">
        <ele>549</ele>
        <time>2018-09-01T13:56:14.000Z</time>
      </trkpt>
      <trkpt lat="46.27268" lon="6.36105">
        <ele>549</ele>
        <time>2018-09-01T13:57:14.000Z</time>
      </trkpt>
      <trkpt lat="46.27314" lon="6.36114">
        <ele>548</ele>
        <time>2018-09-01T13:58:14.000Z</time>
      </trkpt>
      <trkpt lat="46.27486" lon="6.36159">
        <ele>545</ele>
        <time>2018-09-01T13:59:14.000Z</time>
      </trkpt>
      <trkpt lat="46.27511" lon="6.36161">
        <ele>545</ele>
        <time>2018-09-01T14:00:14.000Z</time>
      </trkpt>
      <trkpt lat="46.27527" lon="6.36159">
        <ele>545</ele>
        <time>2018-09-01T14:01:14.000Z</time>
      </trkpt>
      <trkpt lat="46.27547" lon="6.36151">
        <ele>545</ele>
        <time>2018-09-01T14:02:14.000Z</time>
      </trkpt>
      <trkpt lat="46.277" lon="6.36023">
        <ele>546</ele>
        <time>2018-09-01T14:03:14.000Z</time>
      </trkpt>
      <trkpt lat="46.27733" lon="6.35993">
        <ele>546</ele>
        <time>2018-09-01T14:04:14.000Z</time>
      </trkpt>
      <trkpt lat="46.27743" lon="6.35981">
        <ele>546</ele>
        <time>2018-09-01T14:05:14.000Z</time>
      </trkpt>
      <trkpt lat="46.27763" lon="6.35949">
        <ele>545</ele>
        <time>2018-09-01T14:06:14.000Z</time>
      </trkpt>
      <trkpt lat="46.27948" lon="6.35528">
        <ele>539</ele>
        <time>2018-09-01T14:07:14.000Z</time>
      </trkpt>
      <trkpt lat="46.27961" lon="6.355">
        <ele>538</ele>
        <time>2018-09-01T14:08:14.000Z</time>
      </trkpt>
      <trkpt lat="46.28018" lon="6.35408">
        <ele>537</ele>
        <time>2018-09-01T14:09:14.000Z</time>
      </trkpt>
      <trkpt lat="46.28035" lon="6.3537">
        <ele>536</ele>
        <time>2018-09-01T14:10:14.000Z</time>
      </trkpt>
      <trkpt lat="46.28074" lon="6.35245">
        <ele>533</ele>
        <time>2018-09-01T14:11:14.000Z</time>
      </trkpt>
      <trkpt lat="46.28105" lon="6.35153">
        <ele>533</ele>
        <time>2018-09-01T14:12:14.000Z</time>
      </trkpt>
      <trkpt lat="46.2812" lon="6.35119">
        <ele>534</ele>
        <time>2018-09-01T14:13:14.000Z</time>
      </trkpt>
      <trkpt lat="46.28129" lon="6.35103">
        <ele>535</ele>
        <time>2018-09-01T14:14:14.000Z</time>
      </trkpt>
      <trkpt lat="46.28141" lon="6.35087">
        <ele>536</ele>
        <time>2018-09-01T14:15:14.000Z</time>
      </trkpt>
      <trkpt lat="46.28185" lon="6.35035">
        <ele>540</ele>
        <time>2018-09-01T14:16:14.000Z</time>
      </trkpt>
      <trkpt lat="46.28219" lon="6.34992">
        <ele>543</ele>
        <time>2018-09-01T14:17:14.000Z</time>
      </trkpt>
      <trkpt lat="46.28235" lon="6.34962">
        <ele>544</ele>
        <time>2018-09-01T14:18:14.000Z</time>
      </trkpt>
      <trkpt lat="46.28244" lon="6.34932">
        <ele>545</ele>
        <time>2018-09-01T14:19:14.000Z</time>
      </trkpt>
      <trkpt lat="46.28263" lon="6.34834">
        <ele>544</ele>
        <time>2018-09-01T14:20:14.000Z</time>
      </trkpt>
      <trkpt lat="46.28276" lon="6.34793">
        <ele>544</ele>
        <time>2018-09-01T14:21:14.000Z</time>
      </trkpt>
      <trkpt lat="46.28329" lon="6.34675">
        <ele>548</ele>
        <time>2018-09-01T14:22:14.000Z</time>
      </trkpt>
      <trkpt lat="46.28977" lon="6.34797">
        <ele>566</ele>
        <time>2018-09-01T14:23:14.000Z</time>
      </trkpt>
      <trkpt lat="46.29006" lon="6.34807">
        <ele>567</ele>
        <time>2018-09-01T14:24:14.000Z</time>
      </trkpt>
      <trkpt lat="46.29034" lon="6.34822">
        <ele>568</ele>
        <time>2018-09-01T14:25:14.000Z</time>
      </trkpt>
      <trkpt lat="46.29066" lon="6.34848">
        <ele>569</ele>
        <time>2018-09-01T14:26:14.000Z</time>
      </trkpt>
      <trkpt lat="46.29197" lon="6.3497">
        <ele>577</ele>
        <time>2018-09-01T14:27:14.000Z</time>
      </trkpt>
      <trkpt lat="46.29243" lon="6.35005">
        <ele>581</ele>
        <time>2018-09-01T14:28:14.000Z</time>
      </trkpt>
      <trkpt lat="46.29431" lon="6.3513">
        <ele>595</ele>
        <time>2018-09-01T14:29:14.000Z</time>
      </trkpt>
      <trkpt lat="46.29454" lon="6.35152">
        <ele>596</ele>
        <time>2018-09-01T14:30:14.000Z</time>
      </trkpt>
      <trkpt lat="46.295" lon="6.35212">
        <ele>598</ele>
        <time>2018-09-01T14:31:14.000Z</time>
      </trkpt>
      <trkpt lat="46.29544" lon="6.35265">
        <ele>601</ele>
        <time>2018-09-01T14:32:14.000Z</time>
      </trkpt>
      <trkpt lat="46.29544" lon="6.35265">
        <ele>601</ele>
        <time>2018-09-01T14:33:14.000Z</time>
      </trkpt>
      <trkpt lat="46.29586" lon="6.3531">
        <ele>604</ele>
        <time>2018-09-01T14:34:14.000Z</time>
      </trkpt>
      <trkpt lat="46.29582" lon="6.35297">
        <ele>605</ele>
        <time>2018-09-01T14:35:14.000Z</time>
      </trkpt>
      <trkpt lat="46.29571" lon="6.3521">
        <ele>606</ele>
        <time>2018-09-01T14:36:14.000Z</time>
      </trkpt>
      <trkpt lat="46.29564" lon="6.35127">
        <ele>609</ele>
        <time>2018-09-01T14:37:14.000Z</time>
      </trkpt>
      <trkpt lat="46.29563" lon="6.35102">
        <ele>609</ele>
        <time>2018-09-01T14:38:14.000Z</time>
      </trkpt>
      <trkpt lat="46.29564" lon="6.35092">
        <ele>610</ele>
        <time>2018-09-01T14:39:14.000Z</time>
      </trkpt>
      <trkpt lat="46.29585" lon="6.34937">
        <ele>618</ele>
        <time>2018-09-01T14:40:14.000Z</time>
      </trkpt>
      <trkpt lat="46.29584" lon="6.34919">
        <ele>618</ele>
        <time>2018-09-01T14:41:14.000Z</time>
      </trkpt>
      <trkpt lat="46.29581" lon="6.34896">
        <ele>618</ele>
        <time>2018-09-01T14:42:14.000Z</time>
      </trkpt>
      <trkpt lat="46.29558" lon="6.34815">
        <ele>617</ele>
        <time>2018-09-01T14:43:14.000Z</time>
      </trkpt>
      <trkpt lat="46.29547" lon="6.34766">
        <ele>616</ele>
        <time>2018-09-01T14:44:14.000Z</time>
      </trkpt>
      <trkpt lat="46.29523" lon="6.3461">
        <ele>617</ele>
        <time>2018-09-01T14:45:14.000Z</time>
      </trkpt>
      <trkpt lat="46.29491" lon="6.3448">
        <ele>616</ele>
        <time>2018-09-01T14:46:14.000Z</time>
      </trkpt>
      <trkpt lat="46.29488" lon="6.34463">
        <ele>616</ele>
        <time>2018-09-01T14:47:14.000Z</time>
      </trkpt>
      <trkpt lat="46.29479" lon="6.34336">
        <ele>620</ele>
        <time>2018-09-01T14:48:14.000Z</time>
      </trkpt>
      <trkpt lat="46.29465" lon="6.34242">
        <ele>622</ele>
        <time>2018-09-01T14:49:14.000Z</time>
      </trkpt>
      <trkpt lat="46.29451" lon="6.34188">
        <ele>623</ele>
        <time>2018-09-01T14:50:14.000Z</time>
      </trkpt>
      <trkpt lat="46.29425" lon="6.34115">
        <ele>625</ele>
        <time>2018-09-01T14:51:14.000Z</time>
      </trkpt>
      <trkpt lat="46.29626" lon="6.34005">
        <ele>639</ele>
        <time>2018-09-01T14:52:14.000Z</time>
      </trkpt>
      <trkpt lat="46.29661" lon="6.33984">
        <ele>642</ele>
        <time>2018-09-01T14:53:14.000Z</time>
      </trkpt>
      <trkpt lat="46.29728" lon="6.33925">
        <ele>645</ele>
        <time>2018-09-01T14:54:14.000Z</time>
      </trkpt>
      <trkpt lat="46.29766" lon="6.33897">
        <ele>647</ele>
        <time>2018-09-01T14:55:14.000Z</time>
      </trkpt>
      <trkpt lat="46.29785" lon="6.33888">
        <ele>649</ele>
        <time>2018-09-01T14:56:14.000Z</time>
      </trkpt>
      <trkpt lat="46.29791" lon="6.33889">
        <ele>649</ele>
        <time>2018-09-01T14:57:14.000Z</time>
      </trkpt>
      <trkpt lat="46.29799" lon="6.33897">
        <ele>650</ele>
        <time>2018-09-01T14:58:14.000Z</time>
      </trkpt>
      <trkpt lat="46.29806" lon="6.33912">
        <ele>651</ele>
        <time>2018-09-01T14:59:14.000Z</time>
      </trkpt>
      <trkpt lat="46.29848" lon="6.34001">
        <ele>653</ele>
        <time>2018-09-01T15:00:14.000Z</time>
      </trkpt>
      <trkpt lat="46.29856" lon="6.34012">
        <ele>654</ele>
        <time>2018-09-01T15:01:14.000Z</time>
      </trkpt>
      <trkpt lat="46.2986" lon="6.34015">
        <ele>654</ele>
        <time>2018-09-01T15:02:14.000Z</time>
      </trkpt>
      <trkpt lat="46.29915" lon="6.34439">
        <ele>670</ele>
        <time>2018-09-01T15:03:14.000Z</time>
      </trkpt>
      <trkpt lat="46.29946" lon="6.34707">
        <ele>668</ele>
        <time>2018-09-01T15:04:14.000Z</time>
      </trkpt>
      <trkpt lat="46.30059" lon="6.34697">
        <ele>685</ele>
        <time>2018-09-01T15:05:14.000Z</time>
      </trkpt>
      <trkpt lat="46.30059" lon="6.34697">
        <ele>685</ele>
        <time>2018-09-01T15:06:14.000Z</time>
      </trkpt>
      <trkpt lat="46.30145" lon="6.34688">
        <ele>697</ele>
        <time>2018-09-01T15:07:14.000Z</time>
      </trkpt>
      <trkpt lat="46.30154" lon="6.34683">
        <ele>698</ele>
        <time>2018-09-01T15:08:14.000Z</time>
      </trkpt>
      <trkpt lat="46.3014" lon="6.34627">
        <ele>697</ele>
        <time>2018-09-01T15:09:14.000Z</time>
      </trkpt>
      <trkpt lat="46.30136" lon="6.34591">
        <ele>697</ele>
        <time>2018-09-01T15:10:14.000Z</time>
      </trkpt>
      <trkpt lat="46.30135" lon="6.3455">
        <ele>697</ele>
        <time>2018-09-01T15:11:14.000Z</time>
      </trkpt>
      <trkpt lat="46.30133" lon="6.34537">
        <ele>697</ele>
        <time>2018-09-01T15:12:14.000Z</time>
      </trkpt>
      <trkpt lat="46.30126" lon="6.34523">
        <ele>696</ele>
        <time>2018-09-01T15:13:14.000Z</time>
      </trkpt>
      <trkpt lat="46.30093" lon="6.34505">
        <ele>692</ele>
        <time>2018-09-01T15:14:14.000Z</time>
      </trkpt>
      <trkpt lat="46.30088" lon="6.34502">
        <ele>692</ele>
        <time>2018-09-01T15:15:14.000Z</time>
      </trkpt>
      <trkpt lat="46.30085" lon="6.34495">
        <ele>691</ele>
        <time>2018-09-01T15:16:14.000Z</time>
      </trkpt>
      <trkpt lat="46.30083" lon="6.34482">
        <ele>691</ele>
        <time>2018-09-01T15:17:14.000Z</time>
      </trkpt>
      <trkpt lat="46.30084" lon="6.34404">
        <ele>689</ele>
        <time>2018-09-01T15:18:14.000Z</time>
      </trkpt>
      <trkpt lat="46.30082" lon="6.34368">
        <ele>688</ele>
        <time>2018-09-01T15:19:14.000Z</time>
      </trkpt>
      <trkpt lat="46.30076" lon="6.34299">
        <ele>683</ele>
        <time>2018-09-01T15:20:14.000Z</time>
      </trkpt>
      <trkpt lat="46.3007" lon="6.34254">
        <ele>679</ele>
        <time>2018-09-01T15:21:14.000Z</time>
      </trkpt>
      <trkpt lat="46.30052" lon="6.3415">
        <ele>672</ele>
        <time>2018-09-01T15:22:14.000Z</time>
      </trkpt>
      <trkpt lat="46.30052" lon="6.3415">
        <ele>672</ele>
        <time>2018-09-01T15:23:14.000Z</time>
      </trkpt>
      <trkpt lat="46.3004" lon="6.34079">
        <ele>669</ele>
        <time>2018-09-01T15:24:14.000Z</time>
      </trkpt>
      <trkpt lat="46.30031" lon="6.33967">
        <ele>667</ele>
        <time>2018-09-01T15:25:14.000Z</time>
      </trkpt>
      <trkpt lat="46.30024" lon="6.33945">
        <ele>666</ele>
        <time>2018-09-01T15:26:14.000Z</time>
      </trkpt>
      <trkpt lat="46.30009" lon="6.33918">
        <ele>664</ele>
        <time>2018-09-01T15:27:14.000Z</time>
      </trkpt>
      <trkpt lat="46.30002" lon="6.3391">
        <ele>663</ele>
        <time>2018-09-01T15:28:14.000Z</time>
      </trkpt>
      <trkpt lat="46.29984" lon="6.33895">
        <ele>662</ele>
        <time>2018-09-01T15:29:14.000Z</time>
      </trkpt>
      <trkpt lat="46.29944" lon="6.33883">
        <ele>660</ele>
        <time>2018-09-01T15:30:14.000Z</time>
      </trkpt>
      <trkpt lat="46.29905" lon="6.33853">
        <ele>657</ele>
        <time>2018-09-01T15:31:14.000Z</time>
      </trkpt>
      <trkpt lat="46.29926" lon="6.33812">
        <ele>657</ele>
        <time>2018-09-01T15:32:14.000Z</time>
      </trkpt>
      <trkpt lat="46.29949" lon="6.33755">
        <ele>655</ele>
        <time>2018-09-01T15:33:14.000Z</time>
      </trkpt>
      <trkpt lat="46.29952" lon="6.33736">
        <ele>654</ele>
        <time>2018-09-01T15:34:14.000Z</time>
      </trkpt>
      <trkpt lat="46.29951" lon="6.33706">
        <ele>651</ele>
        <time>2018-09-01T15:35:14.000Z</time>
      </trkpt>
      <trkpt lat="46.29934" lon="6.33545">
        <ele>641</ele>
        <time>2018-09-01T15:36:14.000Z</time>
      </trkpt>
      <trkpt lat="46.29925" lon="6.33434">
        <ele>636</ele>
        <time>2018-09-01T15:37:14.000Z</time>
      </trkpt>
      <trkpt lat="46.29919" lon="6.33402">
        <ele>635</ele>
        <time>2018-09-01T15:38:14.000Z</time>
      </trkpt>
      <trkpt lat="46.29894" lon="6.33324">
        <ele>630</ele>
        <time>2018-09-01T15:39:14.000Z</time>
      </trkpt>
      <trkpt lat="46.29881" lon="6.33275">
        <ele>626</ele>
        <time>2018-09-01T15:40:14.000Z</time>
      </trkpt>
      <trkpt lat="46.29863" lon="6.33188">
        <ele>620</ele>
        <time>2018-09-01T15:41:14.000Z</time>
      </trkpt>
      <trkpt lat="46.29859" lon="6.33166">
        <ele>619</ele>
        <time>2018-09-01T15:42:14.000Z</time>
      </trkpt>
      <trkpt lat="46.29859" lon="6.33152">
        <ele>617</ele>
        <time>2018-09-01T15:43:14.000Z</time>
      </trkpt>
      <trkpt lat="46.2986" lon="6.33144">
        <ele>617</ele>
        <time>2018-09-01T15:44:14.000Z</time>
      </trkpt>
      <trkpt lat="46.29867" lon="6.33125">
        <ele>616</ele>
        <time>2018-09-01T15:45:14.000Z</time>
      </trkpt>
      <trkpt lat="46.29894" lon="6.33079">
        <ele>614</ele>
        <time>2018-09-01T15:46:14.000Z</time>
      </trkpt>
      <trkpt lat="46.29932" lon="6.33005">
        <ele>605</ele>
        <time>2018-09-01T15:47:14.000Z</time>
      </trkpt>
      <trkpt lat="46.29971" lon="6.32956">
        <ele>601</ele>
        <time>2018-09-01T15:48:14.000Z</time>
      </trkpt>
      <trkpt lat="46.29984" lon="6.32927">
        <ele>599</ele>
        <time>2018-09-01T15:49:14.000Z</time>
      </trkpt>
      <trkpt lat="46.2995" lon="6.32879">
        <ele>597</ele>
        <time>2018-09-01T15:50:14.000Z</time>
      </trkpt>
      <trkpt lat="46.29906" lon="6.32851">
        <ele>595</ele>
        <time>2018-09-01T15:51:14.000Z</time>
      </trkpt>
      <trkpt lat="46.29875" lon="6.32835">
        <ele>593</ele>
        <time>2018-09-01T15:52:14.000Z</time>
      </trkpt>
      <trkpt lat="46.29873" lon="6.32761">
        <ele>589</ele>
        <time>2018-09-01T15:53:14.000Z</time>
      </trkpt>
      <trkpt lat="46.29854" lon="6.32757">
        <ele>589</ele>
        <time>2018-09-01T15:54:14.000Z</time>
      </trkpt>
      <trkpt lat="46.2975" lon="6.32719">
        <ele>582</ele>
        <time>2018-09-01T15:55:14.000Z</time>
      </trkpt>
      <trkpt lat="46.29659" lon="6.32691">
        <ele>577</ele>
        <time>2018-09-01T15:56:14.000Z</time>
      </trkpt>
      <trkpt lat="46.29623" lon="6.32682">
        <ele>576</ele>
        <time>2018-09-01T15:57:14.000Z</time>
      </trkpt>
      <trkpt lat="46.29601" lon="6.32681">
        <ele>576</ele>
        <time>2018-09-01T15:58:14.000Z</time>
      </trkpt>
      <trkpt lat="46.29405" lon="6.32683">
        <ele>577</ele>
        <time>2018-09-01T15:59:14.000Z</time>
      </trkpt>
      <trkpt lat="46.29405" lon="6.32683">
        <ele>577</ele>
        <time>2018-09-01T16:00:14.000Z</time>
      </trkpt>
      <trkpt lat="46.29398" lon="6.32683">
        <ele>577</ele>
        <time>2018-09-01T16:01:14.000Z</time>
      </trkpt>
      <trkpt lat="46.29376" lon="6.32676">
        <ele>577</ele>
        <time>2018-09-01T16:02:14.000Z</time>
      </trkpt>
      <trkpt lat="46.29267" lon="6.32612">
        <ele>576</ele>
        <time>2018-09-01T16:03:14.000Z</time>
      </trkpt>
      <trkpt lat="46.29236" lon="6.32601">
        <ele>577</ele>
        <time>2018-09-01T16:04:14.000Z</time>
      </trkpt>
      <trkpt lat="46.29203" lon="6.32595">
        <ele>577</ele>
        <time>2018-09-01T16:05:14.000Z</time>
      </trkpt>
      <trkpt lat="46.29158" lon="6.32592">
        <ele>578</ele>
        <time>2018-09-01T16:06:14.000Z</time>
      </trkpt>
      <trkpt lat="46.29143" lon="6.32589">
        <ele>579</ele>
        <time>2018-09-01T16:07:14.000Z</time>
      </trkpt>
      <trkpt lat="46.29071" lon="6.32561">
        <ele>581</ele>
        <time>2018-09-01T16:08:14.000Z</time>
      </trkpt>
      <trkpt lat="46.2901" lon="6.32556">
        <ele>584</ele>
        <time>2018-09-01T16:09:14.000Z</time>
      </trkpt>
      <trkpt lat="46.28983" lon="6.32558">
        <ele>585</ele>
        <time>2018-09-01T16:10:14.000Z</time>
      </trkpt>
      <trkpt lat="46.28961" lon="6.32561">
        <ele>587</ele>
        <time>2018-09-01T16:11:14.000Z</time>
      </trkpt>
      <trkpt lat="46.2892" lon="6.32573">
        <ele>590</ele>
        <time>2018-09-01T16:12:14.000Z</time>
      </trkpt>
      <trkpt lat="46.28907" lon="6.32575">
        <ele>591</ele>
        <time>2018-09-01T16:13:14.000Z</time>
      </trkpt>
      <trkpt lat="46.28901" lon="6.32575">
        <ele>591</ele>
        <time>2018-09-01T16:14:14.000Z</time>
      </trkpt>
      <trkpt lat="46.28888" lon="6.3257">
        <ele>591</ele>
        <time>2018-09-01T16:15:14.000Z</time>
      </trkpt>
      <trkpt lat="46.28877" lon="6.32559">
        <ele>591</ele>
        <time>2018-09-01T16:16:14.000Z</time>
      </trkpt>
      <trkpt lat="46.28876" lon="6.32563">
        <ele>591</ele>
        <time>2018-09-01T16:17:14.000Z</time>
      </trkpt>
      <trkpt lat="46.28869" lon="6.3257">
        <ele>592</ele>
        <time>2018-09-01T16:18:14.000Z</time>
      </trkpt>
      <trkpt lat="46.28862" lon="6.32571">
        <ele>592</ele>
        <time>2018-09-01T16:19:14.000Z</time>
      </trkpt>
      <trkpt lat="46.28822" lon="6.32563">
        <ele>593</ele>
        <time>2018-09-01T16:20:14.000Z</time>
      </trkpt>
      <trkpt lat="46.2879" lon="6.32547">
        <ele>592</ele>
        <time>2018-09-01T16:21:14.000Z</time>
      </trkpt>
      <trkpt lat="46.28714" lon="6.32518">
        <ele>591</ele>
        <time>2018-09-01T16:22:14.000Z</time>
      </trkpt>
      <trkpt lat="46.28698" lon="6.32515">
        <ele>591</ele>
        <time>2018-09-01T16:23:14.000Z</time>
      </trkpt>
      <trkpt lat="46.28658" lon="6.32516">
        <ele>591</ele>
        <time>2018-09-01T16:24:14.000Z</time>
      </trkpt>
      <trkpt lat="46.28644" lon="6.32515">
        <ele>591</ele>
        <time>2018-09-01T16:25:14.000Z</time>
      </trkpt>
      <trkpt lat="46.28639" lon="6.32533">
        <ele>591</ele>
        <time>2018-09-01T16:26:14.000Z</time>
      </trkpt>
      <trkpt lat="46.28606" lon="6.327">
        <ele>595</ele>
        <time>2018-09-01T16:27:14.000Z</time>
      </trkpt>
      <trkpt lat="46.28602" lon="6.32712">
        <ele>595</ele>
        <time>2018-09-01T16:28:14.000Z</time>
      </trkpt>
      <trkpt lat="46.28588" lon="6.32737">
        <ele>595</ele>
        <time>2018-09-01T16:29:14.000Z</time>
      </trkpt>
      <trkpt lat="46.2815" lon="6.33257">
        <ele>590</ele>
        <time>2018-09-01T16:30:14.000Z</time>
      </trkpt>
      <trkpt lat="46.28076" lon="6.33349">
        <ele>588</ele>
        <time>2018-09-01T16:31:14.000Z</time>
      </trkpt>
      <trkpt lat="46.28002" lon="6.33435">
        <ele>584</ele>
        <time>2018-09-01T16:32:14.000Z</time>
      </trkpt>
      <trkpt lat="46.27971" lon="6.33477">
        <ele>582</ele>
        <time>2018-09-01T16:33:14.000Z</time>
      </trkpt>
      <trkpt lat="46.27957" lon="6.33487">
        <ele>582</ele>
        <time>2018-09-01T16:34:14.000Z</time>
      </trkpt>
      <trkpt lat="46.27878" lon="6.33571">
        <ele>578</ele>
        <time>2018-09-01T16:35:14.000Z</time>
      </trkpt>
      <trkpt lat="46.27206" lon="6.34292">
        <ele>553</ele>
        <time>2018-09-01T16:36:14.000Z</time>
      </trkpt>
      <trkpt lat="46.27183" lon="6.34307">
        <ele>552</ele>
        <time>2018-09-01T16:37:14.000Z</time>
      </trkpt>
      <trkpt lat="46.27094" lon="6.34346">
        <ele>552</ele>
        <time>2018-09-01T16:38:14.000Z</time>
      </trkpt>
      <trkpt lat="46.2707" lon="6.34361">
        <ele>552</ele>
        <time>2018-09-01T16:39:14.000Z</time>
      </trkpt>
      <trkpt lat="46.27034" lon="6.34396">
        <ele>550</ele>
        <time>2018-09-01T16:40:14.000Z</time>
      </trkpt>
      <trkpt lat="46.2699" lon="6.34444">
        <ele>549</ele>
        <time>2018-09-01T16:41:14.000Z</time>
      </trkpt>
      <trkpt lat="46.26973" lon="6.34455">
        <ele>550</ele>
        <time>2018-09-01T16:42:14.000Z</time>
      </trkpt>
      <trkpt lat="46.26962" lon="6.34456">
        <ele>551</ele>
        <time>2018-09-01T16:43:14.000Z</time>
      </trkpt>
      <trkpt lat="46.26955" lon="6.34453">
        <ele>551</ele>
        <time>2018-09-01T16:44:14.000Z</time>
      </trkpt>
      <trkpt lat="46.26947" lon="6.34447">
        <ele>552</ele>
        <time>2018-09-01T16:45:14.000Z</time>
      </trkpt>
      <trkpt lat="46.26941" lon="6.34441">
        <ele>553</ele>
        <time>2018-09-01T16:46:14.000Z</time>
      </trkpt>
      <trkpt lat="46.26912" lon="6.34391">
        <ele>556</ele>
        <time>2018-09-01T16:47:14.000Z</time>
      </trkpt>
      <trkpt lat="46.26909" lon="6.34387">
        <ele>556</ele>
        <time>2018-09-01T16:48:14.000Z</time>
      </trkpt>
      <trkpt lat="46.26899" lon="6.34384">
        <ele>557</ele>
        <time>2018-09-01T16:49:14.000Z</time>
      </trkpt>
      <trkpt lat="46.26889" lon="6.3439">
        <ele>557</ele>
        <time>2018-09-01T16:50:14.000Z</time>
      </trkpt>
      <trkpt lat="46.2686" lon="6.34423">
        <ele>560</ele>
        <time>2018-09-01T16:51:14.000Z</time>
      </trkpt>
      <trkpt lat="46.26846" lon="6.34435">
        <ele>560</ele>
        <time>2018-09-01T16:52:14.000Z</time>
      </trkpt>
      <trkpt lat="46.26835" lon="6.34439">
        <ele>561</ele>
        <time>2018-09-01T16:53:14.000Z</time>
      </trkpt>
      <trkpt lat="46.26821" lon="6.34438">
        <ele>562</ele>
        <time>2018-09-01T16:54:14.000Z</time>
      </trkpt>
      <trkpt lat="46.26799" lon="6.3443">
        <ele>562</ele>
        <time>2018-09-01T16:55:14.000Z</time>
      </trkpt>
      <trkpt lat="46.26786" lon="6.34434">
        <ele>563</ele>
        <time>2018-09-01T16:56:14.000Z</time>
      </trkpt>
      <trkpt lat="46.26777" lon="6.34443">
        <ele>563</ele>
        <time>2018-09-01T16:57:14.000Z</time>
      </trkpt>
      <trkpt lat="46.26728" lon="6.34508">
        <ele>564</ele>
        <time>2018-09-01T16:58:14.000Z</time>
      </trkpt>
      <trkpt lat="46.26723" lon="6.3452">
        <ele>564</ele>
        <time>2018-09-01T16:59:14.000Z</time>
      </trkpt>
      <trkpt lat="46.26729" lon="6.34522">
        <ele>563</ele>
        <time>2018-09-01T17:00:14.000Z</time>
      </trkpt>
      <trkpt lat="46.26747" lon="6.34535">
        <ele>562</ele>
        <time>2018-09-01T17:01:14.000Z</time>
      </trkpt>
      <trkpt lat="46.26778" lon="6.34565">
        <ele>559</ele>
        <time>2018-09-01T17:02:14.000Z</time>
      </trkpt>
      <trkpt lat="46.26787" lon="6.34582">
        <ele>558</ele>
        <time>2018-09-01T17:03:14.000Z</time>
      </trkpt>
      <trkpt lat="46.2679" lon="6.34598">
        <ele>556</ele>
        <time>2018-09-01T17:04:14.000Z</time>
      </trkpt>
      <trkpt lat="46.26786" lon="6.34619">
        <ele>555</ele>
        <time>2018-09-01T17:05:14.000Z</time>
      </trkpt>
      <trkpt lat="46.26776" lon="6.34637">
        <ele>554</ele>
        <time>2018-09-01T17:06:14.000Z</time>
      </trkpt>
      <trkpt lat="46.26731" lon="6.34704">
        <ele>551</ele>
        <time>2018-09-01T17:07:14.000Z</time>
      </trkpt>
      <trkpt lat="46.26731" lon="6.34704">
        <ele>551</ele>
        <time>2018-09-01T17:08:14.000Z</time>
      </trkpt>
      <trkpt lat="46.26722" lon="6.34715">
        <ele>551</ele>
        <time>2018-09-01T17:09:14.000Z</time>
      </trkpt>
      <trkpt lat="46.26711" lon="6.34721">
        <ele>550</ele>
        <time>2018-09-01T17:10:14.000Z</time>
      </trkpt>
      <trkpt lat="46.26702" lon="6.34723">
        <ele>550</ele>
        <time>2018-09-01T17:11:14.000Z</time>
      </trkpt>
      <trkpt lat="46.26683" lon="6.3472">
        <ele>550</ele>
        <time>2018-09-01T17:12:14.000Z</time>
      </trkpt>
      <trkpt lat="46.26617" lon="6.34691">
        <ele>547</ele>
        <time>2018-09-01T17:13:14.000Z</time>
      </trkpt>
      <trkpt lat="46.26605" lon="6.3469">
        <ele>546</ele>
        <time>2018-09-01T17:14:14.000Z</time>
      </trkpt>
      <trkpt lat="46.26592" lon="6.34699">
        <ele>545</ele>
        <time>2018-09-01T17:15:14.000Z</time>
      </trkpt>
      <trkpt lat="46.26587" lon="6.34707">
        <ele>544</ele>
        <time>2018-09-01T17:16:14.000Z</time>
      </trkpt>
      <trkpt lat="46.26563" lon="6.34767">
        <ele>541</ele>
        <time>2018-09-01T17:17:14.000Z</time>
      </trkpt>
      <trkpt lat="46.26558" lon="6.34792">
        <ele>541</ele>
        <time>2018-09-01T17:18:14.000Z</time>
      </trkpt>
      <trkpt lat="46.26558" lon="6.34847">
        <ele>541</ele>
        <time>2018-09-01T17:19:14.000Z</time>
      </trkpt>
      <trkpt lat="46.26557" lon="6.34862">
        <ele>541</ele>
        <time>2018-09-01T17:20:14.000Z</time>
      </trkpt>
      <trkpt lat="46.26553" lon="6.34885">
        <ele>541</ele>
        <time>2018-09-01T17:21:14.000Z</time>
      </trkpt>
      <trkpt lat="46.26482" lon="6.35121">
        <ele>553</ele>
        <time>2018-09-01T17:22:14.000Z</time>
      </trkpt>
      <trkpt lat="46.26468" lon="6.35153">
        <ele>555</ele>
        <time>2018-09-01T17:23:14.000Z</time>
      </trkpt>
      <trkpt lat="46.26452" lon="6.35174">
        <ele>556</ele>
        <time>2018-09-01T17:24:14.000Z</time>
      </trkpt>
      <trkpt lat="46.2639" lon="6.35227">
        <ele>561</ele>
        <time>2018-09-01T17:25:14.000Z</time>
      </trkpt>
      <trkpt lat="46.26364" lon="6.3525">
        <ele>561</ele>
        <time>2018-09-01T17:26:14.000Z</time>
      </trkpt>
      <trkpt lat="46.26348" lon="6.35268">
        <ele>562</ele>
        <time>2018-09-01T17:27:14.000Z</time>
      </trkpt>
      <trkpt lat="46.26282" lon="6.35356">
        <ele>566</ele>
        <time>2018-09-01T17:28:14.000Z</time>
      </trkpt>
      <trkpt lat="46.26265" lon="6.35384">
        <ele>568</ele>
        <time>2018-09-01T17:29:14.000Z</time>
      </trkpt>
      <trkpt lat="46.2625" lon="6.3543">
        <ele>570</ele>
        <time>2018-09-01T17:30:14.000Z</time>
      </trkpt>
      <trkpt lat="46.26205" lon="6.35587">
        <ele>575</ele>
        <time>2018-09-01T17:31:14.000Z</time>
      </trkpt>
      <trkpt lat="46.26182" lon="6.35679">
        <ele>576</ele>
        <time>2018-09-01T17:32:14.000Z</time>
      </trkpt>
      <trkpt lat="46.2618" lon="6.35687">
        <ele>576</ele>
        <time>2018-09-01T17:33:14.000Z</time>
      </trkpt>
      <trkpt lat="46.26166" lon="6.3571">
        <ele>577</ele>
        <time>2018-09-01T17:34:14.000Z</time>
      </trkpt>
      <trkpt lat="46.26158" lon="6.35719">
        <ele>577</ele>
        <time>2018-09-01T17:35:14.000Z</time>
      </trkpt>
      <trkpt lat="46.2609" lon="6.35782">
        <ele>580</ele>
        <time>2018-09-01T17:36:14.000Z</time>
      </trkpt>
      <trkpt lat="46.2608" lon="6.35793">
        <ele>581</ele>
        <time>2018-09-01T17:37:14.000Z</time>
      </trkpt>
      <trkpt lat="46.26061" lon="6.35824">
        <ele>583</ele>
        <time>2018-09-01T17:38:14.000Z</time>
      </trkpt>
      <trkpt lat="46.2596" lon="6.35893">
        <ele>592</ele>
        <time>2018-09-01T17:39:14.000Z</time>
      </trkpt>
      <trkpt lat="46.25916" lon="6.35872">
        <ele>595</ele>
        <time>2018-09-01T17:40:14.000Z</time>
      </trkpt>
      <trkpt lat="46.25854" lon="6.35824">
        <ele>601</ele>
        <time>2018-09-01T17:41:14.000Z</time>
      </trkpt>
      <trkpt lat="46.25804" lon="6.35775">
        <ele>605</ele>
        <time>2018-09-01T17:42:14.000Z</time>
      </trkpt>
      <trkpt lat="46.25763" lon="6.35793">
        <ele>611</ele>
        <time>2018-09-01T17:43:14.000Z</time>
      </trkpt>
      <trkpt lat="46.25749" lon="6.35803">
        <ele>613</ele>
        <time>2018-09-01T17:44:14.000Z</time>
      </trkpt>
      <trkpt lat="46.25747" lon="6.35826">
        <ele>614</ele>
        <time>2018-09-01T17:45:14.000Z</time>
      </trkpt>
      <trkpt lat="46.25749" lon="6.35861">
        <ele>616</ele>
        <time>2018-09-01T17:46:14.000Z</time>
      </trkpt>
      <trkpt lat="46.25752" lon="6.35875">
        <ele>617</ele>
        <time>2018-09-01T17:47:14.000Z</time>
      </trkpt>
      <trkpt lat="46.25781" lon="6.35957">
        <ele>616</ele>
        <time>2018-09-01T17:48:14.000Z</time>
      </trkpt>
      <trkpt lat="46.25788" lon="6.35996">
        <ele>617</ele>
        <time>2018-09-01T17:49:14.000Z</time>
      </trkpt>
      <trkpt lat="46.25788" lon="6.35996">
        <ele>617</ele>
        <time>2018-09-01T17:50:14.000Z</time>
      </trkpt>
      <trkpt lat="46.25824" lon="6.36178">
        <ele>624</ele>
        <time>2018-09-01T17:51:14.000Z</time>
      </trkpt>
      <trkpt lat="46.25828" lon="6.36194">
        <ele>624</ele>
        <time>2018-09-01T17:52:14.000Z</time>
      </trkpt>
      <trkpt lat="46.25824" lon="6.36198">
        <ele>625</ele>
        <time>2018-09-01T17:53:14.000Z</time>
      </trkpt>
      <trkpt lat="46.25818" lon="6.36207">
        <ele>626</ele>
        <time>2018-09-01T17:54:14.000Z</time>
      </trkpt>
      <trkpt lat="46.25815" lon="6.36218">
        <ele>627</ele>
        <time>2018-09-01T17:55:14.000Z</time>
      </trkpt>
      <trkpt lat="46.25815" lon="6.36227">
        <ele>627</ele>
        <time>2018-09-01T17:56:14.000Z</time>
      </trkpt>
      <trkpt lat="46.25823" lon="6.36274">
        <ele>626</ele>
        <time>2018-09-01T17:57:14.000Z</time>
      </trkpt>
      <trkpt lat="46.25826" lon="6.36309">
        <ele>626</ele>
        <time>2018-09-01T17:58:14.000Z</time>
      </trkpt>
      <trkpt lat="46.25828" lon="6.36445">
        <ele>633</ele>
        <time>2018-09-01T17:59:14.000Z</time>
      </trkpt>
      <trkpt lat="46.25827" lon="6.36464">
        <ele>634</ele>
        <time>2018-09-01T18:00:14.000Z</time>
      </trkpt>
      <trkpt lat="46.25824" lon="6.36483">
        <ele>635</ele>
        <time>2018-09-01T18:01:14.000Z</time>
      </trkpt>
      <trkpt lat="46.25809" lon="6.36539">
        <ele>637</ele>
        <time>2018-09-01T18:02:14.000Z</time>
      </trkpt>
      <trkpt lat="46.25802" lon="6.36556">
        <ele>638</ele>
        <time>2018-09-01T18:03:14.000Z</time>
      </trkpt>
      <trkpt lat="46.25787" lon="6.36581">
        <ele>640</ele>
        <time>2018-09-01T18:04:14.000Z</time>
      </trkpt>
      <trkpt lat="46.25782" lon="6.36594">
        <ele>640</ele>
        <time>2018-09-01T18:05:14.000Z</time>
      </trkpt>
      <trkpt lat="46.25781" lon="6.36607">
        <ele>640</ele>
        <time>2018-09-01T18:06:14.000Z</time>
      </trkpt>
      <trkpt lat="46.25782" lon="6.36642">
        <ele>639</ele>
        <time>2018-09-01T18:07:14.000Z</time>
      </trkpt>
      <trkpt lat="46.25777" lon="6.36665">
        <ele>639</ele>
        <time>2018-09-01T18:08:14.000Z</time>
      </trkpt>
      <trkpt lat="46.25755" lon="6.36728">
        <ele>639</ele>
        <time>2018-09-01T18:09:14.000Z</time>
      </trkpt>
      <trkpt lat="46.25748" lon="6.36743">
        <ele>640</ele>
        <time>2018-09-01T18:10:14.000Z</time>
      </trkpt>
      <trkpt lat="46.25738" lon="6.36752">
        <ele>641</ele>
        <time>2018-09-01T18:11:14.000Z</time>
      </trkpt>
      <trkpt lat="46.2573" lon="6.36754">
        <ele>642</ele>
        <time>2018-09-01T18:12:14.000Z</time>
      </trkpt>
      <trkpt lat="46.2573" lon="6.36754">
        <ele>642</ele>
        <time>2018-09-01T18:13:14.000Z</time>
      </trkpt>
      <trkpt lat="46.25721" lon="6.36751">
        <ele>643</ele>
        <time>2018-09-01T18:14:14.000Z</time>
      </trkpt>
      <trkpt lat="46.25713" lon="6.36741">
        <ele>645</ele>
        <time>2018-09-01T18:15:14.000Z</time>
      </trkpt>
      <trkpt lat="46.25709" lon="6.36731">
        <ele>646</ele>
        <time>2018-09-01T18:16:14.000Z</time>
      </trkpt>
      <trkpt lat="46.25708" lon="6.36722">
        <ele>647</ele>
        <time>2018-09-01T18:17:14.000Z</time>
      </trkpt>
      <trkpt lat="46.25712" lon="6.36705">
        <ele>647</ele>
        <time>2018-09-01T18:18:14.000Z</time>
      </trkpt>
      <trkpt lat="46.25723" lon="6.36679">
        <ele>647</ele>
        <time>2018-09-01T18:19:14.000Z</time>
      </trkpt>
      <trkpt lat="46.25726" lon="6.3667">
        <ele>647</ele>
        <time>2018-09-01T18:20:14.000Z</time>
      </trkpt>
      <trkpt lat="46.25727" lon="6.36657">
        <ele>647</ele>
        <time>2018-09-01T18:21:14.000Z</time>
      </trkpt>
      <trkpt lat="46.25722" lon="6.36635">
        <ele>648</ele>
        <time>2018-09-01T18:22:14.000Z</time>
      </trkpt>
      <trkpt lat="46.25681" lon="6.36547">
        <ele>654</ele>
        <time>2018-09-01T18:23:14.000Z</time>
      </trkpt>
      <trkpt lat="46.25665" lon="6.365">
        <ele>655</ele>
        <time>2018-09-01T18:24:14.000Z</time>
      </trkpt>
      <trkpt lat="46.25629" lon="6.36308">
        <ele>662</ele>
        <time>2018-09-01T18:25:14.000Z</time>
      </trkpt>
      <trkpt lat="46.25616" lon="6.36267">
        <ele>663</ele>
        <time>2018-09-01T18:26:14.000Z</time>
      </trkpt>
      <trkpt lat="46.25604" lon="6.36243">
        <ele>665</ele>
        <time>2018-09-01T18:27:14.000Z</time>
      </trkpt>
      <trkpt lat="46.25605" lon="6.3625">
        <ele>665</ele>
        <time>2018-09-01T18:28:14.000Z</time>
      </trkpt>
      <trkpt lat="46.25605" lon="6.3625">
        <ele>665</ele>
        <time>2018-09-01T18:29:14.000Z</time>
      </trkpt>
      <trkpt lat="46.25607" lon="6.36266">
        <ele>665</ele>
        <time>2018-09-01T18:30:14.000Z</time>
      </trkpt>
      <trkpt lat="46.25606" lon="6.36287">
        <ele>665</ele>
        <time>2018-09-01T18:31:14.000Z</time>
      </trkpt>
      <trkpt lat="46.25598" lon="6.36315">
        <ele>666</ele>
        <time>2018-09-01T18:32:14.000Z</time>
      </trkpt>
      <trkpt lat="46.25451" lon="6.36771">
        <ele>688</ele>
        <time>2018-09-01T18:33:14.000Z</time>
      </trkpt>
      <trkpt lat="46.25411" lon="6.37006">
        <ele>690</ele>
        <time>2018-09-01T18:34:14.000Z</time>
      </trkpt>
      <trkpt lat="46.25401" lon="6.3709">
        <ele>693</ele>
        <time>2018-09-01T18:35:14.000Z</time>
      </trkpt>
      <trkpt lat="46.25395" lon="6.37115">
        <ele>692</ele>
        <time>2018-09-01T18:36:14.000Z</time>
      </trkpt>
      <trkpt lat="46.25389" lon="6.37128">
        <ele>693</ele>
        <time>2018-09-01T18:37:14.000Z</time>
      </trkpt>
      <trkpt lat="46.2538" lon="6.37143">
        <ele>693</ele>
        <time>2018-09-01T18:38:14.000Z</time>
      </trkpt>
      <trkpt lat="46.25228" lon="6.37349">
        <ele>706</ele>
        <time>2018-09-01T18:39:14.000Z</time>
      </trkpt>
      <trkpt lat="46.25228" lon="6.37349">
        <ele>706</ele>
        <time>2018-09-01T18:40:14.000Z</time>
      </trkpt>
      <trkpt lat="46.25206" lon="6.37379">
        <ele>706</ele>
        <time>2018-09-01T18:41:14.000Z</time>
      </trkpt>
      <trkpt lat="46.25182" lon="6.3742">
        <ele>706</ele>
        <time>2018-09-01T18:42:14.000Z</time>
      </trkpt>
      <trkpt lat="46.25167" lon="6.37454">
        <ele>707</ele>
        <time>2018-09-01T18:43:14.000Z</time>
      </trkpt>
      <trkpt lat="46.25155" lon="6.37465">
        <ele>709</ele>
        <time>2018-09-01T18:44:14.000Z</time>
      </trkpt>
      <trkpt lat="46.25134" lon="6.37468">
        <ele>714</ele>
        <time>2018-09-01T18:45:14.000Z</time>
      </trkpt>
      <trkpt lat="46.25222" lon="6.37105">
        <ele>724</ele>
        <time>2018-09-01T18:46:14.000Z</time>
      </trkpt>
      <trkpt lat="46.25229" lon="6.37065">
        <ele>726</ele>
        <time>2018-09-01T18:47:14.000Z</time>
      </trkpt>
      <trkpt lat="46.25231" lon="6.3702">
        <ele>728</ele>
        <time>2018-09-01T18:48:14.000Z</time>
      </trkpt>
      <trkpt lat="46.25231" lon="6.36986">
        <ele>730</ele>
        <time>2018-09-01T18:49:14.000Z</time>
      </trkpt>
      <trkpt lat="46.2522" lon="6.36732">
        <ele>737</ele>
        <time>2018-09-01T18:50:14.000Z</time>
      </trkpt>
      <trkpt lat="46.25215" lon="6.36707">
        <ele>738</ele>
        <time>2018-09-01T18:51:14.000Z</time>
      </trkpt>
      <trkpt lat="46.25211" lon="6.367">
        <ele>739</ele>
        <time>2018-09-01T18:52:14.000Z</time>
      </trkpt>
      <trkpt lat="46.25203" lon="6.3669">
        <ele>741</ele>
        <time>2018-09-01T18:53:14.000Z</time>
      </trkpt>
      <trkpt lat="46.25192" lon="6.36686">
        <ele>744</ele>
        <time>2018-09-01T18:54:14.000Z</time>
      </trkpt>
      <trkpt lat="46.2518" lon="6.36687">
        <ele>747</ele>
        <time>2018-09-01T18:55:14.000Z</time>
      </trkpt>
      <trkpt lat="46.2517" lon="6.36694">
        <ele>749</ele>
        <time>2018-09-01T18:56:14.000Z</time>
      </trkpt>
      <trkpt lat="46.25163" lon="6.36705">
        <ele>751</ele>
        <time>2018-09-01T18:57:14.000Z</time>
      </trkpt>
      <trkpt lat="46.25157" lon="6.36731">
        <ele>753</ele>
        <time>2018-09-01T18:58:14.000Z</time>
      </trkpt>
      <trkpt lat="46.25159" lon="6.36794">
        <ele>751</ele>
        <time>2018-09-01T18:59:14.000Z</time>
      </trkpt>
      <trkpt lat="46.25156" lon="6.36822">
        <ele>750</ele>
        <time>2018-09-01T19:00:14.000Z</time>
      </trkpt>
      <trkpt lat="46.25149" lon="6.36844">
        <ele>751</ele>
        <time>2018-09-01T19:01:14.000Z</time>
      </trkpt>
      <trkpt lat="46.25138" lon="6.36868">
        <ele>752</ele>
        <time>2018-09-01T19:02:14.000Z</time>
      </trkpt>
      <trkpt lat="46.25129" lon="6.3688">
        <ele>753</ele>
        <time>2018-09-01T19:03:14.000Z</time>
      </trkpt>
      <trkpt lat="46.25053" lon="6.36972">
        <ele>760</ele>
        <time>2018-09-01T19:04:14.000Z</time>
      </trkpt>
      <trkpt lat="46.2504" lon="6.36988">
        <ele>762</ele>
        <time>2018-09-01T19:05:14.000Z</time>
      </trkpt>
      <trkpt lat="46.25031" lon="6.37004">
        <ele>763</ele>
        <time>2018-09-01T19:06:14.000Z</time>
      </trkpt>
      <trkpt lat="46.25015" lon="6.37042">
        <ele>764</ele>
        <time>2018-09-01T19:07:14.000Z</time>
      </trkpt>
      <trkpt lat="46.2497" lon="6.3718">
        <ele>769</ele>
        <time>2018-09-01T19:08:14.000Z</time>
      </trkpt>
      <trkpt lat="46.2496" lon="6.37201">
        <ele>769</ele>
        <time>2018-09-01T19:09:14.000Z</time>
      </trkpt>
      <trkpt lat="46.24945" lon="6.37224">
        <ele>770</ele>
        <time>2018-09-01T19:10:14.000Z</time>
      </trkpt>
      <trkpt lat="46.24932" lon="6.37234">
        <ele>772</ele>
        <time>2018-09-01T19:11:14.000Z</time>
      </trkpt>
      <trkpt lat="46.24904" lon="6.37238">
        <ele>776</ele>
        <time>2018-09-01T19:12:14.000Z</time>
      </trkpt>
      <trkpt lat="46.24898" lon="6.37236">
        <ele>777</ele>
        <time>2018-09-01T19:13:14.000Z</time>
      </trkpt>
      <trkpt lat="46.24873" lon="6.3722">
        <ele>783</ele>
        <time>2018-09-01T19:14:14.000Z</time>
      </trkpt>
      <trkpt lat="46.24856" lon="6.37215">
        <ele>787</ele>
        <time>2018-09-01T19:15:14.000Z</time>
      </trkpt>
      <trkpt lat="46.24848" lon="6.37215">
        <ele>788</ele>
        <time>2018-09-01T19:16:14.000Z</time>
      </trkpt>
      <trkpt lat="46.24839" lon="6.37219">
        <ele>789</ele>
        <time>2018-09-01T19:17:14.000Z</time>
      </trkpt>
      <trkpt lat="46.24833" lon="6.37227">
        <ele>789</ele>
        <time>2018-09-01T19:18:14.000Z</time>
      </trkpt>
      <trkpt lat="46.24826" lon="6.37244">
        <ele>788</ele>
        <time>2018-09-01T19:19:14.000Z</time>
      </trkpt>
      <trkpt lat="46.24824" lon="6.37262">
        <ele>788</ele>
        <time>2018-09-01T19:20:14.000Z</time>
      </trkpt>
      <trkpt lat="46.24825" lon="6.37278">
        <ele>787</ele>
        <time>2018-09-01T19:21:14.000Z</time>
      </trkpt>
      <trkpt lat="46.24834" lon="6.37324">
        <ele>782</ele>
        <time>2018-09-01T19:22:14.000Z</time>
      </trkpt>
      <trkpt lat="46.24834" lon="6.37349">
        <ele>782</ele>
        <time>2018-09-01T19:23:14.000Z</time>
      </trkpt>
      <trkpt lat="46.2483" lon="6.37364">
        <ele>784</ele>
        <time>2018-09-01T19:24:14.000Z</time>
      </trkpt>
      <trkpt lat="46.24813" lon="6.37398">
        <ele>792</ele>
        <time>2018-09-01T19:25:14.000Z</time>
      </trkpt>
      <trkpt lat="46.24807" lon="6.37413">
        <ele>795</ele>
        <time>2018-09-01T19:26:14.000Z</time>
      </trkpt>
      <trkpt lat="46.24804" lon="6.37428">
        <ele>797</ele>
        <time>2018-09-01T19:27:14.000Z</time>
      </trkpt>
      <trkpt lat="46.24803" lon="6.37447">
        <ele>799</ele>
        <time>2018-09-01T19:28:14.000Z</time>
      </trkpt>
      <trkpt lat="46.24807" lon="6.37477">
        <ele>801</ele>
        <time>2018-09-01T19:29:14.000Z</time>
      </trkpt>
      <trkpt lat="46.24832" lon="6.37527">
        <ele>798</ele>
        <time>2018-09-01T19:30:14.000Z</time>
      </trkpt>
      <trkpt lat="46.2484" lon="6.37551">
        <ele>796</ele>
        <time>2018-09-01T19:31:14.000Z</time>
      </trkpt>
      <trkpt lat="46.24843" lon="6.37579">
        <ele>796</ele>
        <time>2018-09-01T19:32:14.000Z</time>
      </trkpt>
      <trkpt lat="46.2484" lon="6.37611">
        <ele>798</ele>
        <time>2018-09-01T19:33:14.000Z</time>
      </trkpt>
      <trkpt lat="46.2483" lon="6.37661">
        <ele>802</ele>
        <time>2018-09-01T19:34:14.000Z</time>
      </trkpt>
      <trkpt lat="46.24823" lon="6.37686">
        <ele>802</ele>
        <time>2018-09-01T19:35:14.000Z</time>
      </trkpt>
      <trkpt lat="46.24817" lon="6.37695">
        <ele>803</ele>
        <time>2018-09-01T19:36:14.000Z</time>
      </trkpt>
      <trkpt lat="46.24781" lon="6.37736">
        <ele>810</ele>
        <time>2018-09-01T19:37:14.000Z</time>
      </trkpt>
      <trkpt lat="46.24764" lon="6.3776">
        <ele>815</ele>
        <time>2018-09-01T19:38:14.000Z</time>
      </trkpt>
      <trkpt lat="46.24745" lon="6.37796">
        <ele>822</ele>
        <time>2018-09-01T19:39:14.000Z</time>
      </trkpt>
      <trkpt lat="46.24741" lon="6.3781">
        <ele>823</ele>
        <time>2018-09-01T19:40:14.000Z</time>
      </trkpt>
      <trkpt lat="46.24741" lon="6.37826">
        <ele>823</ele>
        <time>2018-09-01T19:41:14.000Z</time>
      </trkpt>
      <trkpt lat="46.24747" lon="6.37843">
        <ele>821</ele>
        <time>2018-09-01T19:42:14.000Z</time>
      </trkpt>
      <trkpt lat="46.24768" lon="6.37867">
        <ele>816</ele>
        <time>2018-09-01T19:43:14.000Z</time>
      </trkpt>
      <trkpt lat="46.24775" lon="6.37887">
        <ele>816</ele>
        <time>2018-09-01T19:44:14.000Z</time>
      </trkpt>
      <trkpt lat="46.24782" lon="6.37917">
        <ele>817</ele>
        <time>2018-09-01T19:45:14.000Z</time>
      </trkpt>
      <trkpt lat="46.24784" lon="6.37934">
        <ele>819</ele>
        <time>2018-09-01T19:46:14.000Z</time>
      </trkpt>
      <trkpt lat="46.24787" lon="6.37974">
        <ele>824</ele>
        <time>2018-09-01T19:47:14.000Z</time>
      </trkpt>
      <trkpt lat="46.24791" lon="6.37988">
        <ele>825</ele>
        <time>2018-09-01T19:48:14.000Z</time>
      </trkpt>
      <trkpt lat="46.24805" lon="6.38008">
        <ele>824</ele>
        <time>2018-09-01T19:49:14.000Z</time>
      </trkpt>
      <trkpt lat="46.24837" lon="6.38044">
        <ele>823</ele>
        <time>2018-09-01T19:50:14.000Z</time>
      </trkpt>
      <trkpt lat="46.24846" lon="6.38058">
        <ele>824</ele>
        <time>2018-09-01T19:51:14.000Z</time>
      </trkpt>
      <trkpt lat="46.24855" lon="6.38076">
        <ele>826</ele>
        <time>2018-09-01T19:52:14.000Z</time>
      </trkpt>
      <trkpt lat="46.24859" lon="6.38095">
        <ele>828</ele>
        <time>2018-09-01T19:53:14.000Z</time>
      </trkpt>
      <trkpt lat="46.24861" lon="6.38127">
        <ele>831</ele>
        <time>2018-09-01T19:54:14.000Z</time>
      </trkpt>
      <trkpt lat="46.24859" lon="6.38143">
        <ele>834</ele>
        <time>2018-09-01T19:55:14.000Z</time>
      </trkpt>
      <trkpt lat="46.24851" lon="6.38171">
        <ele>841</ele>
        <time>2018-09-01T19:56:14.000Z</time>
      </trkpt>
      <trkpt lat="46.2485" lon="6.38183">
        <ele>844</ele>
        <time>2018-09-01T19:57:14.000Z</time>
      </trkpt>
      <trkpt lat="46.24851" lon="6.38189">
        <ele>844</ele>
        <time>2018-09-01T19:58:14.000Z</time>
      </trkpt>
      <trkpt lat="46.24858" lon="6.382">
        <ele>843</ele>
        <time>2018-09-01T19:59:14.000Z</time>
      </trkpt>
      <trkpt lat="46.24869" lon="6.3821">
        <ele>840</ele>
        <time>2018-09-01T20:00:14.000Z</time>
      </trkpt>
      <trkpt lat="46.24879" lon="6.38226">
        <ele>838</ele>
        <time>2018-09-01T20:01:14.000Z</time>
      </trkpt>
      <trkpt lat="46.24887" lon="6.38244">
        <ele>837</ele>
        <time>2018-09-01T20:02:14.000Z</time>
      </trkpt>
      <trkpt lat="46.24921" lon="6.38348">
        <ele>844</ele>
        <time>2018-09-01T20:03:14.000Z</time>
      </trkpt>
      <trkpt lat="46.24938" lon="6.38388">
        <ele>844</ele>
        <time>2018-09-01T20:04:14.000Z</time>
      </trkpt>
      <trkpt lat="46.24943" lon="6.38425">
        <ele>849</ele>
        <time>2018-09-01T20:05:14.000Z</time>
      </trkpt>
      <trkpt lat="46.24949" lon="6.38441">
        <ele>851</ele>
        <time>2018-09-01T20:06:14.000Z</time>
      </trkpt>
      <trkpt lat="46.24959" lon="6.38458">
        <ele>852</ele>
        <time>2018-09-01T20:07:14.000Z</time>
      </trkpt>
      <trkpt lat="46.24966" lon="6.38465">
        <ele>852</ele>
        <time>2018-09-01T20:08:14.000Z</time>
      </trkpt>
      <trkpt lat="46.25007" lon="6.38489">
        <ele>845</ele>
        <time>2018-09-01T20:09:14.000Z</time>
      </trkpt>
      <trkpt lat="46.25016" lon="6.38499">
        <ele>843</ele>
        <time>2018-09-01T20:10:14.000Z</time>
      </trkpt>
      <trkpt lat="46.25026" lon="6.38515">
        <ele>843</ele>
        <time>2018-09-01T20:11:14.000Z</time>
      </trkpt>
      <trkpt lat="46.25079" lon="6.3866">
        <ele>855</ele>
        <time>2018-09-01T20:12:14.000Z</time>
      </trkpt>
      <trkpt lat="46.25102" lon="6.38703">
        <ele>857</ele>
        <time>2018-09-01T20:13:14.000Z</time>
      </trkpt>
      <trkpt lat="46.25177" lon="6.38833">
        <ele>858</ele>
        <time>2018-09-01T20:14:14.000Z</time>
      </trkpt>
      <trkpt lat="46.25189" lon="6.38859">
        <ele>859</ele>
        <time>2018-09-01T20:15:14.000Z</time>
      </trkpt>
      <trkpt lat="46.25204" lon="6.3891">
        <ele>866</ele>
        <time>2018-09-01T20:16:14.000Z</time>
      </trkpt>
      <trkpt lat="46.2521" lon="6.38922">
        <ele>866</ele>
        <time>2018-09-01T20:17:14.000Z</time>
      </trkpt>
      <trkpt lat="46.25222" lon="6.38939">
        <ele>864</ele>
        <time>2018-09-01T20:18:14.000Z</time>
      </trkpt>
      <trkpt lat="46.25232" lon="6.38966">
        <ele>865</ele>
        <time>2018-09-01T20:19:14.000Z</time>
      </trkpt>
      <trkpt lat="46.25242" lon="6.3901">
        <ele>870</ele>
        <time>2018-09-01T20:20:14.000Z</time>
      </trkpt>
      <trkpt lat="46.25249" lon="6.39059">
        <ele>872</ele>
        <time>2018-09-01T20:21:14.000Z</time>
      </trkpt>
      <trkpt lat="46.25249" lon="6.39071">
        <ele>873</ele>
        <time>2018-09-01T20:22:14.000Z</time>
      </trkpt>
      <trkpt lat="46.25245" lon="6.39092">
        <ele>876</ele>
        <time>2018-09-01T20:23:14.000Z</time>
      </trkpt>
      <trkpt lat="46.25235" lon="6.39117">
        <ele>880</ele>
        <time>2018-09-01T20:24:14.000Z</time>
      </trkpt>
      <trkpt lat="46.25229" lon="6.39137">
        <ele>882</ele>
        <time>2018-09-01T20:25:14.000Z</time>
      </trkpt>
      <trkpt lat="46.25227" lon="6.39156">
        <ele>884</ele>
        <time>2018-09-01T20:26:14.000Z</time>
      </trkpt>
      <trkpt lat="46.25229" lon="6.39193">
        <ele>884</ele>
        <time>2018-09-01T20:27:14.000Z</time>
      </trkpt>
      <trkpt lat="46.25237" lon="6.39255">
        <ele>882</ele>
        <time>2018-09-01T20:28:14.000Z</time>
      </trkpt>
      <trkpt lat="46.25233" lon="6.39326">
        <ele>884</ele>
        <time>2018-09-01T20:29:14.000Z</time>
      </trkpt>
      <trkpt lat="46.25226" lon="6.39366">
        <ele>887</ele>
        <time>2018-09-01T20:30:14.000Z</time>
      </trkpt>
      <trkpt lat="46.25225" lon="6.39379">
        <ele>888</ele>
        <time>2018-09-01T20:31:14.000Z</time>
      </trkpt>
      <trkpt lat="46.25227" lon="6.39404">
        <ele>887</ele>
        <time>2018-09-01T20:32:14.000Z</time>
      </trkpt>
      <trkpt lat="46.25231" lon="6.39419">
        <ele>886</ele>
        <time>2018-09-01T20:33:14.000Z</time>
      </trkpt>
      <trkpt lat="46.25235" lon="6.39447">
        <ele>886</ele>
        <time>2018-09-01T20:34:14.000Z</time>
      </trkpt>
      <trkpt lat="46.25234" lon="6.39498">
        <ele>891</ele>
        <time>2018-09-01T20:35:14.000Z</time>
      </trkpt>
      <trkpt lat="46.25227" lon="6.39542">
        <ele>900</ele>
        <time>2018-09-01T20:36:14.000Z</time>
      </trkpt>
      <trkpt lat="46.25226" lon="6.3956">
        <ele>903</ele>
        <time>2018-09-01T20:37:14.000Z</time>
      </trkpt>
      <trkpt lat="46.25229" lon="6.39576">
        <ele>904</ele>
        <time>2018-09-01T20:38:14.000Z</time>
      </trkpt>
      <trkpt lat="46.25236" lon="6.39591">
        <ele>903</ele>
        <time>2018-09-01T20:39:14.000Z</time>
      </trkpt>
      <trkpt lat="46.25249" lon="6.39609">
        <ele>901</ele>
        <time>2018-09-01T20:40:14.000Z</time>
      </trkpt>
      <trkpt lat="46.25279" lon="6.39645">
        <ele>899</ele>
        <time>2018-09-01T20:41:14.000Z</time>
      </trkpt>
      <trkpt lat="46.25321" lon="6.3972">
        <ele>895</ele>
        <time>2018-09-01T20:42:14.000Z</time>
      </trkpt>
      <trkpt lat="46.2533" lon="6.39747">
        <ele>894</ele>
        <time>2018-09-01T20:43:14.000Z</time>
      </trkpt>
      <trkpt lat="46.25337" lon="6.39782">
        <ele>894</ele>
        <time>2018-09-01T20:44:14.000Z</time>
      </trkpt>
      <trkpt lat="46.25337" lon="6.39782">
        <ele>894</ele>
        <time>2018-09-01T20:45:14.000Z</time>
      </trkpt>
      <trkpt lat="46.25343" lon="6.39809">
        <ele>894</ele>
        <time>2018-09-01T20:46:14.000Z</time>
      </trkpt>
      <trkpt lat="46.25347" lon="6.39856">
        <ele>895</ele>
        <time>2018-09-01T20:47:14.000Z</time>
      </trkpt>
      <trkpt lat="46.25345" lon="6.39888">
        <ele>896</ele>
        <time>2018-09-01T20:48:14.000Z</time>
      </trkpt>
      <trkpt lat="46.25333" lon="6.39929">
        <ele>903</ele>
        <time>2018-09-01T20:49:14.000Z</time>
      </trkpt>
      <trkpt lat="46.2533" lon="6.39968">
        <ele>903</ele>
        <time>2018-09-01T20:50:14.000Z</time>
      </trkpt>
      <trkpt lat="46.25331" lon="6.39995">
        <ele>901</ele>
        <time>2018-09-01T20:51:14.000Z</time>
      </trkpt>
      <trkpt lat="46.25342" lon="6.40035">
        <ele>896</ele>
        <time>2018-09-01T20:52:14.000Z</time>
      </trkpt>
      <trkpt lat="46.25342" lon="6.40048">
        <ele>897</ele>
        <time>2018-09-01T20:53:14.000Z</time>
      </trkpt>
      <trkpt lat="46.25335" lon="6.40068">
        <ele>901</ele>
        <time>2018-09-01T20:54:14.000Z</time>
      </trkpt>
      <trkpt lat="46.25317" lon="6.40092">
        <ele>906</ele>
        <time>2018-09-01T20:55:14.000Z</time>
      </trkpt>
      <trkpt lat="46.25314" lon="6.40103">
        <ele>907</ele>
        <time>2018-09-01T20:56:14.000Z</time>
      </trkpt>
      <trkpt lat="46.25314" lon="6.40114">
        <ele>907</ele>
        <time>2018-09-01T20:57:14.000Z</time>
      </trkpt>
      <trkpt lat="46.25316" lon="6.40121">
        <ele>907</ele>
        <time>2018-09-01T20:58:14.000Z</time>
      </trkpt>
      <trkpt lat="46.25353" lon="6.40238">
        <ele>909</ele>
        <time>2018-09-01T20:59:14.000Z</time>
      </trkpt>
      <trkpt lat="46.25361" lon="6.40254">
        <ele>910</ele>
        <time>2018-09-01T21:00:14.000Z</time>
      </trkpt>
      <trkpt lat="46.25374" lon="6.40274">
        <ele>910</ele>
        <time>2018-09-01T21:01:14.000Z</time>
      </trkpt>
      <trkpt lat="46.25377" lon="6.40282">
        <ele>910</ele>
        <time>2018-09-01T21:02:14.000Z</time>
      </trkpt>
      <trkpt lat="46.2538" lon="6.40298">
        <ele>911</ele>
        <time>2018-09-01T21:03:14.000Z</time>
      </trkpt>
      <trkpt lat="46.25378" lon="6.40339">
        <ele>916</ele>
        <time>2018-09-01T21:04:14.000Z</time>
      </trkpt>
      <trkpt lat="46.2538" lon="6.40364">
        <ele>917</ele>
        <time>2018-09-01T21:05:14.000Z</time>
      </trkpt>
      <trkpt lat="46.25389" lon="6.40388">
        <ele>917</ele>
        <time>2018-09-01T21:06:14.000Z</time>
      </trkpt>
      <trkpt lat="46.25422" lon="6.40449">
        <ele>914</ele>
        <time>2018-09-01T21:07:14.000Z</time>
      </trkpt>
      <trkpt lat="46.25432" lon="6.40472">
        <ele>914</ele>
        <time>2018-09-01T21:08:14.000Z</time>
      </trkpt>
      <trkpt lat="46.25432" lon="6.40488">
        <ele>915</ele>
        <time>2018-09-01T21:09:14.000Z</time>
      </trkpt>
      <trkpt lat="46.25426" lon="6.40502">
        <ele>916</ele>
        <time>2018-09-01T21:10:14.000Z</time>
      </trkpt>
      <trkpt lat="46.25416" lon="6.4051">
        <ele>918</ele>
        <time>2018-09-01T21:11:14.000Z</time>
      </trkpt>
      <trkpt lat="46.2541" lon="6.4051">
        <ele>919</ele>
        <time>2018-09-01T21:12:14.000Z</time>
      </trkpt>
      <trkpt lat="46.25402" lon="6.40507">
        <ele>921</ele>
        <time>2018-09-01T21:13:14.000Z</time>
      </trkpt>
      <trkpt lat="46.2538" lon="6.40555">
        <ele>928</ele>
        <time>2018-09-01T21:14:14.000Z</time>
      </trkpt>
      <trkpt lat="46.25368" lon="6.40574">
        <ele>930</ele>
        <time>2018-09-01T21:15:14.000Z</time>
      </trkpt>
      <trkpt lat="46.25329" lon="6.40606">
        <ele>936</ele>
        <time>2018-09-01T21:16:14.000Z</time>
      </trkpt>
      <trkpt lat="46.25323" lon="6.40614">
        <ele>938</ele>
        <time>2018-09-01T21:17:14.000Z</time>
      </trkpt>
      <trkpt lat="46.2532" lon="6.40625">
        <ele>940</ele>
        <time>2018-09-01T21:18:14.000Z</time>
      </trkpt>
      <trkpt lat="46.25329" lon="6.40682">
        <ele>942</ele>
        <time>2018-09-01T21:19:14.000Z</time>
      </trkpt>
      <trkpt lat="46.25326" lon="6.40698">
        <ele>944</ele>
        <time>2018-09-01T21:20:14.000Z</time>
      </trkpt>
      <trkpt lat="46.25316" lon="6.40724">
        <ele>949</ele>
        <time>2018-09-01T21:21:14.000Z</time>
      </trkpt>
      <trkpt lat="46.25317" lon="6.40764">
        <ele>952</ele>
        <time>2018-09-01T21:22:14.000Z</time>
      </trkpt>
      <trkpt lat="46.25316" lon="6.40771">
        <ele>953</ele>
        <time>2018-09-01T21:23:14.000Z</time>
      </trkpt>
      <trkpt lat="46.25312" lon="6.40784">
        <ele>955</ele>
        <time>2018-09-01T21:24:14.000Z</time>
      </trkpt>
      <trkpt lat="46.25304" lon="6.40796">
        <ele>958</ele>
        <time>2018-09-01T21:25:14.000Z</time>
      </trkpt>
      <trkpt lat="46.253" lon="6.40809">
        <ele>960</ele>
        <time>2018-09-01T21:26:14.000Z</time>
      </trkpt>
      <trkpt lat="46.25301" lon="6.4083">
        <ele>962</ele>
        <time>2018-09-01T21:27:14.000Z</time>
      </trkpt>
      <trkpt lat="46.25307" lon="6.40856">
        <ele>960</ele>
        <time>2018-09-01T21:28:14.000Z</time>
      </trkpt>
      <trkpt lat="46.25307" lon="6.40872">
        <ele>960</ele>
        <time>2018-09-01T21:29:14.000Z</time>
      </trkpt>
      <trkpt lat="46.25287" lon="6.40913">
        <ele>964</ele>
        <time>2018-09-01T21:30:14.000Z</time>
      </trkpt>
      <trkpt lat="46.25291" lon="6.40947">
        <ele>963</ele>
        <time>2018-09-01T21:31:14.000Z</time>
      </trkpt>
      <trkpt lat="46.25308" lon="6.40966">
        <ele>959</ele>
        <time>2018-09-01T21:32:14.000Z</time>
      </trkpt>
      <trkpt lat="46.25332" lon="6.40973">
        <ele>952</ele>
        <time>2018-09-01T21:33:14.000Z</time>
      </trkpt>
      <trkpt lat="46.25336" lon="6.40977">
        <ele>951</ele>
        <time>2018-09-01T21:34:14.000Z</time>
      </trkpt>
      <trkpt lat="46.2534" lon="6.40987">
        <ele>950</ele>
        <time>2018-09-01T21:35:14.000Z</time>
      </trkpt>
      <trkpt lat="46.2534" lon="6.41004">
        <ele>950</ele>
        <time>2018-09-01T21:36:14.000Z</time>
      </trkpt>
      <trkpt lat="46.25338" lon="6.41013">
        <ele>951</ele>
        <time>2018-09-01T21:37:14.000Z</time>
      </trkpt>
      <trkpt lat="46.25316" lon="6.41081">
        <ele>959</ele>
        <time>2018-09-01T21:38:14.000Z</time>
      </trkpt>
      <trkpt lat="46.25316" lon="6.41108">
        <ele>963</ele>
        <time>2018-09-01T21:39:14.000Z</time>
      </trkpt>
      <trkpt lat="46.25364" lon="6.41306">
        <ele>983</ele>
        <time>2018-09-01T21:40:14.000Z</time>
      </trkpt>
      <trkpt lat="46.25378" lon="6.41328">
        <ele>983</ele>
        <time>2018-09-01T21:41:14.000Z</time>
      </trkpt>
      <trkpt lat="46.2542" lon="6.41342">
        <ele>977</ele>
        <time>2018-09-01T21:42:14.000Z</time>
      </trkpt>
      <trkpt lat="46.25446" lon="6.41363">
        <ele>980</ele>
        <time>2018-09-01T21:43:14.000Z</time>
      </trkpt>
      <trkpt lat="46.25495" lon="6.41439">
        <ele>995</ele>
        <time>2018-09-01T21:44:14.000Z</time>
      </trkpt>
      <trkpt lat="46.25526" lon="6.41448">
        <ele>999</ele>
        <time>2018-09-01T21:45:14.000Z</time>
      </trkpt>
      <trkpt lat="46.25635" lon="6.41464">
        <ele>1010</ele>
        <time>2018-09-01T21:46:14.000Z</time>
      </trkpt>
      <trkpt lat="46.2564" lon="6.41472">
        <ele>1012</ele>
        <time>2018-09-01T21:47:14.000Z</time>
      </trkpt>
      <trkpt lat="46.25629" lon="6.41482">
        <ele>1014</ele>
        <time>2018-09-01T21:48:14.000Z</time>
      </trkpt>
      <trkpt lat="46.25433" lon="6.41549">
        <ele>1029</ele>
        <time>2018-09-01T21:49:14.000Z</time>
      </trkpt>
      <trkpt lat="46.25418" lon="6.41553">
        <ele>1030</ele>
        <time>2018-09-01T21:50:14.000Z</time>
      </trkpt>
      <trkpt lat="46.25403" lon="6.41549">
        <ele>1031</ele>
        <time>2018-09-01T21:51:14.000Z</time>
      </trkpt>
      <trkpt lat="46.25362" lon="6.41511">
        <ele>1026</ele>
        <time>2018-09-01T21:52:14.000Z</time>
      </trkpt>
      <trkpt lat="46.25342" lon="6.41505">
        <ele>1027</ele>
        <time>2018-09-01T21:53:14.000Z</time>
      </trkpt>
      <trkpt lat="46.25296" lon="6.41507">
        <ele>1037</ele>
        <time>2018-09-01T21:54:14.000Z</time>
      </trkpt>
      <trkpt lat="46.25273" lon="6.41495">
        <ele>1039</ele>
        <time>2018-09-01T21:55:14.000Z</time>
      </trkpt>
      <trkpt lat="46.25241" lon="6.41454">
        <ele>1041</ele>
        <time>2018-09-01T21:56:14.000Z</time>
      </trkpt>
      <trkpt lat="46.25226" lon="6.41451">
        <ele>1042</ele>
        <time>2018-09-01T21:57:14.000Z</time>
      </trkpt>
      <trkpt lat="46.25214" lon="6.41455">
        <ele>1044</ele>
        <time>2018-09-01T21:58:14.000Z</time>
      </trkpt>
      <trkpt lat="46.25209" lon="6.41471">
        <ele>1046</ele>
        <time>2018-09-01T21:59:14.000Z</time>
      </trkpt>
      <trkpt lat="46.25211" lon="6.41489">
        <ele>1048</ele>
        <time>2018-09-01T22:00:14.000Z</time>
      </trkpt>
      <trkpt lat="46.25231" lon="6.41504">
        <ele>1048</ele>
        <time>2018-09-01T22:01:14.000Z</time>
      </trkpt>
      <trkpt lat="46.25243" lon="6.41538">
        <ele>1053</ele>
        <time>2018-09-01T22:02:14.000Z</time>
      </trkpt>
      <trkpt lat="46.2529" lon="6.41598">
        <ele>1059</ele>
        <time>2018-09-01T22:03:14.000Z</time>
      </trkpt>
      <trkpt lat="46.25333" lon="6.41667">
        <ele>1066</ele>
        <time>2018-09-01T22:04:14.000Z</time>
      </trkpt>
      <trkpt lat="46.25395" lon="6.4172">
        <ele>1075</ele>
        <time>2018-09-01T22:05:14.000Z</time>
      </trkpt>
      <trkpt lat="46.25424" lon="6.41738">
        <ele>1078</ele>
        <time>2018-09-01T22:06:14.000Z</time>
      </trkpt>
      <trkpt lat="46.25433" lon="6.41741">
        <ele>1079</ele>
        <time>2018-09-01T22:07:14.000Z</time>
      </trkpt>
      <trkpt lat="46.25503" lon="6.41745">
        <ele>1077</ele>
        <time>2018-09-01T22:08:14.000Z</time>
      </trkpt>
      <trkpt lat="46.25509" lon="6.4175">
        <ele>1078</ele>
        <time>2018-09-01T22:09:14.000Z</time>
      </trkpt>
      <trkpt lat="46.25514" lon="6.41758">
        <ele>1078</ele>
        <time>2018-09-01T22:10:14.000Z</time>
      </trkpt>
      <trkpt lat="46.25517" lon="6.41769">
        <ele>1079</ele>
        <time>2018-09-01T22:11:14.000Z</time>
      </trkpt>
      <trkpt lat="46.25514" lon="6.41782">
        <ele>1082</ele>
        <time>2018-09-01T22:12:14.000Z</time>
      </trkpt>
      <trkpt lat="46.25508" lon="6.41788">
        <ele>1084</ele>
        <time>2018-09-01T22:13:14.000Z</time>
      </trkpt>
      <trkpt lat="46.255" lon="6.41792">
        <ele>1086</ele>
        <time>2018-09-01T22:14:14.000Z</time>
      </trkpt>
      <trkpt lat="46.25453" lon="6.41791">
        <ele>1088</ele>
        <time>2018-09-01T22:15:14.000Z</time>
      </trkpt>
      <trkpt lat="46.2541" lon="6.41808">
        <ele>1095</ele>
        <time>2018-09-01T22:16:14.000Z</time>
      </trkpt>
      <trkpt lat="46.25338" lon="6.418">
        <ele>1102</ele>
        <time>2018-09-01T22:17:14.000Z</time>
      </trkpt>
      <trkpt lat="46.25312" lon="6.4179">
        <ele>1102</ele>
        <time>2018-09-01T22:18:14.000Z</time>
      </trkpt>
      <trkpt lat="46.25161" lon="6.41709">
        <ele>1098</ele>
        <time>2018-09-01T22:19:14.000Z</time>
      </trkpt>
      <trkpt lat="46.25124" lon="6.4168">
        <ele>1098</ele>
        <time>2018-09-01T22:20:14.000Z</time>
      </trkpt>
      <trkpt lat="46.25087" lon="6.41667">
        <ele>1103</ele>
        <time>2018-09-01T22:21:14.000Z</time>
      </trkpt>
      <trkpt lat="46.25065" lon="6.41656">
        <ele>1104</ele>
        <time>2018-09-01T22:22:14.000Z</time>
      </trkpt>
      <trkpt lat="46.25046" lon="6.41636">
        <ele>1103</ele>
        <time>2018-09-01T22:23:14.000Z</time>
      </trkpt>
      <trkpt lat="46.25024" lon="6.41609">
        <ele>1103</ele>
        <time>2018-09-01T22:24:14.000Z</time>
      </trkpt>
      <trkpt lat="46.25008" lon="6.41581">
        <ele>1102</ele>
        <time>2018-09-01T22:25:14.000Z</time>
      </trkpt>
      <trkpt lat="46.24974" lon="6.41556">
        <ele>1103</ele>
        <time>2018-09-01T22:26:14.000Z</time>
      </trkpt>
      <trkpt lat="46.24916" lon="6.41541">
        <ele>1104</ele>
        <time>2018-09-01T22:27:14.000Z</time>
      </trkpt>
      <trkpt lat="46.24902" lon="6.41532">
        <ele>1104</ele>
        <time>2018-09-01T22:28:14.000Z</time>
      </trkpt>
      <trkpt lat="46.24874" lon="6.41529">
        <ele>1108</ele>
        <time>2018-09-01T22:29:14.000Z</time>
      </trkpt>
      <trkpt lat="46.24859" lon="6.41519">
        <ele>1109</ele>
        <time>2018-09-01T22:30:14.000Z</time>
      </trkpt>
      <trkpt lat="46.2482" lon="6.41453">
        <ele>1114</ele>
        <time>2018-09-01T22:31:14.000Z</time>
      </trkpt>
      <trkpt lat="46.24797" lon="6.41338">
        <ele>1115</ele>
        <time>2018-09-01T22:32:14.000Z</time>
      </trkpt>
      <trkpt lat="46.24798" lon="6.41315">
        <ele>1116</ele>
        <time>2018-09-01T22:33:14.000Z</time>
      </trkpt>
      <trkpt lat="46.24804" lon="6.41294">
        <ele>1115</ele>
        <time>2018-09-01T22:34:14.000Z</time>
      </trkpt>
      <trkpt lat="46.24846" lon="6.4123">
        <ele>1105</ele>
        <time>2018-09-01T22:35:14.000Z</time>
      </trkpt>
      <trkpt lat="46.24848" lon="6.41224">
        <ele>1105</ele>
        <time>2018-09-01T22:36:14.000Z</time>
      </trkpt>
      <trkpt lat="46.24848" lon="6.41224">
        <ele>1105</ele>
        <time>2018-09-01T22:37:14.000Z</time>
      </trkpt>
      <trkpt lat="46.24857" lon="6.41199">
        <ele>1105</ele>
        <time>2018-09-01T22:38:14.000Z</time>
      </trkpt>
      <trkpt lat="46.2486" lon="6.41167">
        <ele>1106</ele>
        <time>2018-09-01T22:39:14.000Z</time>
      </trkpt>
      <trkpt lat="46.24863" lon="6.41085">
        <ele>1108</ele>
        <time>2018-09-01T22:40:14.000Z</time>
      </trkpt>
      <trkpt lat="46.24882" lon="6.41033">
        <ele>1102</ele>
        <time>2018-09-01T22:41:14.000Z</time>
      </trkpt>
      <trkpt lat="46.24885" lon="6.41009">
        <ele>1101</ele>
        <time>2018-09-01T22:42:14.000Z</time>
      </trkpt>
      <trkpt lat="46.24884" lon="6.40988">
        <ele>1100</ele>
        <time>2018-09-01T22:43:14.000Z</time>
      </trkpt>
      <trkpt lat="46.24882" lon="6.40978">
        <ele>1100</ele>
        <time>2018-09-01T22:44:14.000Z</time>
      </trkpt>
      <trkpt lat="46.24874" lon="6.40962">
        <ele>1101</ele>
        <time>2018-09-01T22:45:14.000Z</time>
      </trkpt>
      <trkpt lat="46.24852" lon="6.40932">
        <ele>1106</ele>
        <time>2018-09-01T22:46:14.000Z</time>
      </trkpt>
      <trkpt lat="46.2483" lon="6.40861">
        <ele>1107</ele>
        <time>2018-09-01T22:47:14.000Z</time>
      </trkpt>
      <trkpt lat="46.24829" lon="6.40832">
        <ele>1104</ele>
        <time>2018-09-01T22:48:14.000Z</time>
      </trkpt>
      <trkpt lat="46.24833" lon="6.40834">
        <ele>1103</ele>
        <time>2018-09-01T22:49:14.000Z</time>
      </trkpt>
      <trkpt lat="46.24839" lon="6.4083">
        <ele>1101</ele>
        <time>2018-09-01T22:50:14.000Z</time>
      </trkpt>
      <trkpt lat="46.24842" lon="6.40821">
        <ele>1099</ele>
        <time>2018-09-01T22:51:14.000Z</time>
      </trkpt>
      <trkpt lat="46.24841" lon="6.40812">
        <ele>1098</ele>
        <time>2018-09-01T22:52:14.000Z</time>
      </trkpt>
      <trkpt lat="46.24839" lon="6.40805">
        <ele>1098</ele>
        <time>2018-09-01T22:53:14.000Z</time>
      </trkpt>
      <trkpt lat="46.2482" lon="6.40782">
        <ele>1098</ele>
        <time>2018-09-01T22:54:14.000Z</time>
      </trkpt>
      <trkpt lat="46.24773" lon="6.40713">
        <ele>1093</ele>
        <time>2018-09-01T22:55:14.000Z</time>
      </trkpt>
      <trkpt lat="46.24742" lon="6.40688">
        <ele>1091</ele>
        <time>2018-09-01T22:56:14.000Z</time>
      </trkpt>
      <trkpt lat="46.24717" lon="6.4068">
        <ele>1092</ele>
        <time>2018-09-01T22:57:14.000Z</time>
      </trkpt>
      <trkpt lat="46.24712" lon="6.40672">
        <ele>1090</ele>
        <time>2018-09-01T22:58:14.000Z</time>
      </trkpt>
      <trkpt lat="46.24711" lon="6.40663">
        <ele>1089</ele>
        <time>2018-09-01T22:59:14.000Z</time>
      </trkpt>
      <trkpt lat="46.24712" lon="6.4066">
        <ele>1088</ele>
        <time>2018-09-01T23:00:14.000Z</time>
      </trkpt>
      <trkpt lat="46.24717" lon="6.40653">
        <ele>1086</ele>
        <time>2018-09-01T23:01:14.000Z</time>
      </trkpt>
      <trkpt lat="46.24723" lon="6.40652">
        <ele>1086</ele>
        <time>2018-09-01T23:02:14.000Z</time>
      </trkpt>
      <trkpt lat="46.24747" lon="6.40661">
        <ele>1086</ele>
        <time>2018-09-01T23:03:14.000Z</time>
      </trkpt>
      <trkpt lat="46.24786" lon="6.40664">
        <ele>1083</ele>
        <time>2018-09-01T23:04:14.000Z</time>
      </trkpt>
      <trkpt lat="46.24843" lon="6.40688">
        <ele>1080</ele>
        <time>2018-09-01T23:05:14.000Z</time>
      </trkpt>
      <trkpt lat="46.24853" lon="6.40696">
        <ele>1080</ele>
        <time>2018-09-01T23:06:14.000Z</time>
      </trkpt>
      <trkpt lat="46.24875" lon="6.40727">
        <ele>1081</ele>
        <time>2018-09-01T23:07:14.000Z</time>
      </trkpt>
      <trkpt lat="46.24882" lon="6.40731">
        <ele>1080</ele>
        <time>2018-09-01T23:08:14.000Z</time>
      </trkpt>
      <trkpt lat="46.2489" lon="6.40729">
        <ele>1078</ele>
        <time>2018-09-01T23:09:14.000Z</time>
      </trkpt>
      <trkpt lat="46.24892" lon="6.40725">
        <ele>1077</ele>
        <time>2018-09-01T23:10:14.000Z</time>
      </trkpt>
      <trkpt lat="46.24892" lon="6.40713">
        <ele>1076</ele>
        <time>2018-09-01T23:11:14.000Z</time>
      </trkpt>
      <trkpt lat="46.24886" lon="6.407">
        <ele>1074</ele>
        <time>2018-09-01T23:12:14.000Z</time>
      </trkpt>
      <trkpt lat="46.24844" lon="6.40641">
        <ele>1072</ele>
        <time>2018-09-01T23:13:14.000Z</time>
      </trkpt>
      <trkpt lat="46.24811" lon="6.40599">
        <ele>1070</ele>
        <time>2018-09-01T23:14:14.000Z</time>
      </trkpt>
      <trkpt lat="46.24773" lon="6.40555">
        <ele>1067</ele>
        <time>2018-09-01T23:15:14.000Z</time>
      </trkpt>
      <trkpt lat="46.24741" lon="6.40528">
        <ele>1066</ele>
        <time>2018-09-01T23:16:14.000Z</time>
      </trkpt>
      <trkpt lat="46.24703" lon="6.40514">
        <ele>1063</ele>
        <time>2018-09-01T23:17:14.000Z</time>
      </trkpt>
      <trkpt lat="46.24625" lon="6.40469">
        <ele>1057</ele>
        <time>2018-09-01T23:18:14.000Z</time>
      </trkpt>
      <trkpt lat="46.24602" lon="6.40463">
        <ele>1056</ele>
        <time>2018-09-01T23:19:14.000Z</time>
      </trkpt>
      <trkpt lat="46.24581" lon="6.4045">
        <ele>1055</ele>
        <time>2018-09-01T23:20:14.000Z</time>
      </trkpt>
      <trkpt lat="46.24561" lon="6.4045">
        <ele>1058</ele>
        <time>2018-09-01T23:21:14.000Z</time>
      </trkpt>
      <trkpt lat="46.24551" lon="6.40447">
        <ele>1058</ele>
        <time>2018-09-01T23:22:14.000Z</time>
      </trkpt>
      <trkpt lat="46.24534" lon="6.40429">
        <ele>1058</ele>
        <time>2018-09-01T23:23:14.000Z</time>
      </trkpt>
      <trkpt lat="46.24521" lon="6.4041">
        <ele>1057</ele>
        <time>2018-09-01T23:24:14.000Z</time>
      </trkpt>
      <trkpt lat="46.24513" lon="6.40401">
        <ele>1056</ele>
        <time>2018-09-01T23:25:14.000Z</time>
      </trkpt>
      <trkpt lat="46.24492" lon="6.40385">
        <ele>1055</ele>
        <time>2018-09-01T23:26:14.000Z</time>
      </trkpt>
      <trkpt lat="46.24475" lon="6.4038">
        <ele>1055</ele>
        <time>2018-09-01T23:27:14.000Z</time>
      </trkpt>
      <trkpt lat="46.24435" lon="6.40383">
        <ele>1057</ele>
        <time>2018-09-01T23:28:14.000Z</time>
      </trkpt>
      <trkpt lat="46.24425" lon="6.40379">
        <ele>1057</ele>
        <time>2018-09-01T23:29:14.000Z</time>
      </trkpt>
      <trkpt lat="46.24415" lon="6.4037">
        <ele>1055</ele>
        <time>2018-09-01T23:30:14.000Z</time>
      </trkpt>
      <trkpt lat="46.24396" lon="6.40364">
        <ele>1054</ele>
        <time>2018-09-01T23:31:14.000Z</time>
      </trkpt>
      <trkpt lat="46.24376" lon="6.40366">
        <ele>1056</ele>
        <time>2018-09-01T23:32:14.000Z</time>
      </trkpt>
      <trkpt lat="46.24359" lon="6.40354">
        <ele>1053</ele>
        <time>2018-09-01T23:33:14.000Z</time>
      </trkpt>
      <trkpt lat="46.24242" lon="6.40249">
        <ele>1035</ele>
        <time>2018-09-01T23:34:14.000Z</time>
      </trkpt>
      <trkpt lat="46.24235" lon="6.40237">
        <ele>1034</ele>
        <time>2018-09-01T23:35:14.000Z</time>
      </trkpt>
      <trkpt lat="46.24227" lon="6.40186">
        <ele>1025</ele>
        <time>2018-09-01T23:36:14.000Z</time>
      </trkpt>
      <trkpt lat="46.24223" lon="6.40173">
        <ele>1022</ele>
        <time>2018-09-01T23:37:14.000Z</time>
      </trkpt>
      <trkpt lat="46.24216" lon="6.40162">
        <ele>1021</ele>
        <time>2018-09-01T23:38:14.000Z</time>
      </trkpt>
      <trkpt lat="46.24198" lon="6.40146">
        <ele>1018</ele>
        <time>2018-09-01T23:39:14.000Z</time>
      </trkpt>
      <trkpt lat="46.24123" lon="6.40121">
        <ele>1014</ele>
        <time>2018-09-01T23:40:14.000Z</time>
      </trkpt>
      <trkpt lat="46.24103" lon="6.40123">
        <ele>1014</ele>
        <time>2018-09-01T23:41:14.000Z</time>
      </trkpt>
      <trkpt lat="46.24093" lon="6.40127">
        <ele>1015</ele>
        <time>2018-09-01T23:42:14.000Z</time>
      </trkpt>
      <trkpt lat="46.24078" lon="6.40142">
        <ele>1016</ele>
        <time>2018-09-01T23:43:14.000Z</time>
      </trkpt>
      <trkpt lat="46.24068" lon="6.40148">
        <ele>1016</ele>
        <time>2018-09-01T23:44:14.000Z</time>
      </trkpt>
      <trkpt lat="46.24049" lon="6.40151">
        <ele>1014</ele>
        <time>2018-09-01T23:45:14.000Z</time>
      </trkpt>
      <trkpt lat="46.23955" lon="6.40137">
        <ele>1004</ele>
        <time>2018-09-01T23:46:14.000Z</time>
      </trkpt>
      <trkpt lat="46.23921" lon="6.40125">
        <ele>999</ele>
        <time>2018-09-01T23:47:14.000Z</time>
      </trkpt>
      <trkpt lat="46.23912" lon="6.40125">
        <ele>998</ele>
        <time>2018-09-01T23:48:14.000Z</time>
      </trkpt>
      <trkpt lat="46.23901" lon="6.40136">
        <ele>999</ele>
        <time>2018-09-01T23:49:14.000Z</time>
      </trkpt>
      <trkpt lat="46.23894" lon="6.40147">
        <ele>1001</ele>
        <time>2018-09-01T23:50:14.000Z</time>
      </trkpt>
      <trkpt lat="46.2389" lon="6.40163">
        <ele>1003</ele>
        <time>2018-09-01T23:51:14.000Z</time>
      </trkpt>
      <trkpt lat="46.23887" lon="6.40207">
        <ele>1009</ele>
        <time>2018-09-01T23:52:14.000Z</time>
      </trkpt>
      <trkpt lat="46.23882" lon="6.40212">
        <ele>1010</ele>
        <time>2018-09-01T23:53:14.000Z</time>
      </trkpt>
      <trkpt lat="46.23877" lon="6.40212">
        <ele>1009</ele>
        <time>2018-09-01T23:54:14.000Z</time>
      </trkpt>
      <trkpt lat="46.23872" lon="6.40208">
        <ele>1009</ele>
        <time>2018-09-01T23:55:14.000Z</time>
      </trkpt>
      <trkpt lat="46.23869" lon="6.402">
        <ele>1007</ele>
        <time>2018-09-01T23:56:14.000Z</time>
      </trkpt>
      <trkpt lat="46.23867" lon="6.40192">
        <ele>1006</ele>
        <time>2018-09-01T23:57:14.000Z</time>
      </trkpt>
      <trkpt lat="46.23868" lon="6.40184">
        <ele>1005</ele>
        <time>2018-09-01T23:58:14.000Z</time>
      </trkpt>
      <trkpt lat="46.23887" lon="6.40103">
        <ele>993</ele>
        <time>2018-09-01T23:59:14.000Z</time>
      </trkpt>
      <trkpt lat="46.23892" lon="6.40087">
        <ele>990</ele>
        <time>2018-09-02T00:00:14.000Z</time>
      </trkpt>
      <trkpt lat="46.23896" lon="6.40079">
        <ele>990</ele>
        <time>2018-09-02T00:01:14.000Z</time>
      </trkpt>
      <trkpt lat="46.23905" lon="6.40072">
        <ele>990</ele>
        <time>2018-09-02T00:02:14.000Z</time>
      </trkpt>
      <trkpt lat="46.23913" lon="6.4007">
        <ele>990</ele>
        <time>2018-09-02T00:03:14.000Z</time>
      </trkpt>
      <trkpt lat="46.23933" lon="6.40073">
        <ele>992</ele>
        <time>2018-09-02T00:04:14.000Z</time>
      </trkpt>
      <trkpt lat="46.23937" lon="6.4007">
        <ele>993</ele>
        <time>2018-09-02T00:05:14.000Z</time>
      </trkpt>
      <trkpt lat="46.23939" lon="6.40064">
        <ele>992</ele>
        <time>2018-09-02T00:06:14.000Z</time>
      </trkpt>
      <trkpt lat="46.23938" lon="6.40052">
        <ele>990</ele>
        <time>2018-09-02T00:07:14.000Z</time>
      </trkpt>
      <trkpt lat="46.23933" lon="6.40046">
        <ele>989</ele>
        <time>2018-09-02T00:08:14.000Z</time>
      </trkpt>
      <trkpt lat="46.23904" lon="6.40043">
        <ele>986</ele>
        <time>2018-09-02T00:09:14.000Z</time>
      </trkpt>
      <trkpt lat="46.23898" lon="6.40041">
        <ele>985</ele>
        <time>2018-09-02T00:10:14.000Z</time>
      </trkpt>
      <trkpt lat="46.23877" lon="6.40018">
        <ele>981</ele>
        <time>2018-09-02T00:11:14.000Z</time>
      </trkpt>
      <trkpt lat="46.23844" lon="6.39994">
        <ele>976</ele>
        <time>2018-09-02T00:12:14.000Z</time>
      </trkpt>
      <trkpt lat="46.23832" lon="6.39977">
        <ele>974</ele>
        <time>2018-09-02T00:13:14.000Z</time>
      </trkpt>
      <trkpt lat="46.23825" lon="6.39961">
        <ele>973</ele>
        <time>2018-09-02T00:14:14.000Z</time>
      </trkpt>
      <trkpt lat="46.23822" lon="6.39944">
        <ele>972</ele>
        <time>2018-09-02T00:15:14.000Z</time>
      </trkpt>
      <trkpt lat="46.23824" lon="6.39928">
        <ele>971</ele>
        <time>2018-09-02T00:16:14.000Z</time>
      </trkpt>
      <trkpt lat="46.23831" lon="6.39916">
        <ele>972</ele>
        <time>2018-09-02T00:17:14.000Z</time>
      </trkpt>
      <trkpt lat="46.23841" lon="6.39911">
        <ele>971</ele>
        <time>2018-09-02T00:18:14.000Z</time>
      </trkpt>
      <trkpt lat="46.23857" lon="6.39914">
        <ele>970</ele>
        <time>2018-09-02T00:19:14.000Z</time>
      </trkpt>
      <trkpt lat="46.23929" lon="6.39967">
        <ele>976</ele>
        <time>2018-09-02T00:20:14.000Z</time>
      </trkpt>
      <trkpt lat="46.23942" lon="6.39971">
        <ele>977</ele>
        <time>2018-09-02T00:21:14.000Z</time>
      </trkpt>
      <trkpt lat="46.23955" lon="6.39967">
        <ele>977</ele>
        <time>2018-09-02T00:22:14.000Z</time>
      </trkpt>
      <trkpt lat="46.23988" lon="6.39948">
        <ele>972</ele>
        <time>2018-09-02T00:23:14.000Z</time>
      </trkpt>
      <trkpt lat="46.23997" lon="6.39939">
        <ele>970</ele>
        <time>2018-09-02T00:24:14.000Z</time>
      </trkpt>
      <trkpt lat="46.24013" lon="6.39913">
        <ele>963</ele>
        <time>2018-09-02T00:25:14.000Z</time>
      </trkpt>
      <trkpt lat="46.24043" lon="6.39891">
        <ele>960</ele>
        <time>2018-09-02T00:26:14.000Z</time>
      </trkpt>
      <trkpt lat="46.24085" lon="6.39843">
        <ele>947</ele>
        <time>2018-09-02T00:27:14.000Z</time>
      </trkpt>
      <trkpt lat="46.24099" lon="6.39829">
        <ele>944</ele>
        <time>2018-09-02T00:28:14.000Z</time>
      </trkpt>
      <trkpt lat="46.2413" lon="6.39805">
        <ele>940</ele>
        <time>2018-09-02T00:29:14.000Z</time>
      </trkpt>
      <trkpt lat="46.24146" lon="6.39796">
        <ele>939</ele>
        <time>2018-09-02T00:30:14.000Z</time>
      </trkpt>
      <trkpt lat="46.24163" lon="6.39791">
        <ele>939</ele>
        <time>2018-09-02T00:31:14.000Z</time>
      </trkpt>
      <trkpt lat="46.24248" lon="6.39789">
        <ele>942</ele>
        <time>2018-09-02T00:32:14.000Z</time>
      </trkpt>
      <trkpt lat="46.24262" lon="6.39783">
        <ele>941</ele>
        <time>2018-09-02T00:33:14.000Z</time>
      </trkpt>
      <trkpt lat="46.24273" lon="6.39774">
        <ele>940</ele>
        <time>2018-09-02T00:34:14.000Z</time>
      </trkpt>
      <trkpt lat="46.24296" lon="6.3975">
        <ele>935</ele>
        <time>2018-09-02T00:35:14.000Z</time>
      </trkpt>
      <trkpt lat="46.24313" lon="6.39745">
        <ele>936</ele>
        <time>2018-09-02T00:36:14.000Z</time>
      </trkpt>
      <trkpt lat="46.24376" lon="6.39756">
        <ele>944</ele>
        <time>2018-09-02T00:37:14.000Z</time>
      </trkpt>
      <trkpt lat="46.24422" lon="6.39758">
        <ele>946</ele>
        <time>2018-09-02T00:38:14.000Z</time>
      </trkpt>
      <trkpt lat="46.24469" lon="6.39767">
        <ele>946</ele>
        <time>2018-09-02T00:39:14.000Z</time>
      </trkpt>
      <trkpt lat="46.2451" lon="6.3978">
        <ele>947</ele>
        <time>2018-09-02T00:40:14.000Z</time>
      </trkpt>
      <trkpt lat="46.2452" lon="6.3978">
        <ele>947</ele>
        <time>2018-09-02T00:41:14.000Z</time>
      </trkpt>
      <trkpt lat="46.24529" lon="6.39777">
        <ele>946</ele>
        <time>2018-09-02T00:42:14.000Z</time>
      </trkpt>
      <trkpt lat="46.24557" lon="6.3975">
        <ele>942</ele>
        <time>2018-09-02T00:43:14.000Z</time>
      </trkpt>
      <trkpt lat="46.24563" lon="6.39736">
        <ele>941</ele>
        <time>2018-09-02T00:44:14.000Z</time>
      </trkpt>
      <trkpt lat="46.24567" lon="6.39717">
        <ele>941</ele>
        <time>2018-09-02T00:45:14.000Z</time>
      </trkpt>
      <trkpt lat="46.24498" lon="6.39697">
        <ele>937</ele>
        <time>2018-09-02T00:46:14.000Z</time>
      </trkpt>
      <trkpt lat="46.24476" lon="6.39687">
        <ele>936</ele>
        <time>2018-09-02T00:47:14.000Z</time>
      </trkpt>
      <trkpt lat="46.24458" lon="6.39682">
        <ele>935</ele>
        <time>2018-09-02T00:48:14.000Z</time>
      </trkpt>
      <trkpt lat="46.24439" lon="6.39679">
        <ele>934</ele>
        <time>2018-09-02T00:49:14.000Z</time>
      </trkpt>
      <trkpt lat="46.24398" lon="6.39676">
        <ele>933</ele>
        <time>2018-09-02T00:50:14.000Z</time>
      </trkpt>
      <trkpt lat="46.24325" lon="6.39658">
        <ele>925</ele>
        <time>2018-09-02T00:51:14.000Z</time>
      </trkpt>
      <trkpt lat="46.24312" lon="6.39657">
        <ele>923</ele>
        <time>2018-09-02T00:52:14.000Z</time>
      </trkpt>
      <trkpt lat="46.24296" lon="6.39659">
        <ele>921</ele>
        <time>2018-09-02T00:53:14.000Z</time>
      </trkpt>
      <trkpt lat="46.24286" lon="6.39663">
        <ele>921</ele>
        <time>2018-09-02T00:54:14.000Z</time>
      </trkpt>
      <trkpt lat="46.24277" lon="6.3967">
        <ele>920</ele>
        <time>2018-09-02T00:55:14.000Z</time>
      </trkpt>
      <trkpt lat="46.2425" lon="6.39698">
        <ele>922</ele>
        <time>2018-09-02T00:56:14.000Z</time>
      </trkpt>
      <trkpt lat="46.24242" lon="6.39702">
        <ele>922</ele>
        <time>2018-09-02T00:57:14.000Z</time>
      </trkpt>
      <trkpt lat="46.24231" lon="6.39703">
        <ele>922</ele>
        <time>2018-09-02T00:58:14.000Z</time>
      </trkpt>
      <trkpt lat="46.24218" lon="6.39699">
        <ele>921</ele>
        <time>2018-09-02T00:59:14.000Z</time>
      </trkpt>
      <trkpt lat="46.2418" lon="6.39673">
        <ele>915</ele>
        <time>2018-09-02T01:00:14.000Z</time>
      </trkpt>
      <trkpt lat="46.24157" lon="6.39662">
        <ele>913</ele>
        <time>2018-09-02T01:01:14.000Z</time>
      </trkpt>
      <trkpt lat="46.24027" lon="6.39621">
        <ele>911</ele>
        <time>2018-09-02T01:02:14.000Z</time>
      </trkpt>
      <trkpt lat="46.24027" lon="6.39621">
        <ele>911</ele>
        <time>2018-09-02T01:03:14.000Z</time>
      </trkpt>
      <trkpt lat="46.23984" lon="6.39608">
        <ele>912</ele>
        <time>2018-09-02T01:04:14.000Z</time>
      </trkpt>
      <trkpt lat="46.23971" lon="6.39601">
        <ele>912</ele>
        <time>2018-09-02T01:05:14.000Z</time>
      </trkpt>
      <trkpt lat="46.23961" lon="6.3959">
        <ele>911</ele>
        <time>2018-09-02T01:06:14.000Z</time>
      </trkpt>
      <trkpt lat="46.23953" lon="6.39572">
        <ele>909</ele>
        <time>2018-09-02T01:07:14.000Z</time>
      </trkpt>
      <trkpt lat="46.23944" lon="6.39534">
        <ele>904</ele>
        <time>2018-09-02T01:08:14.000Z</time>
      </trkpt>
      <trkpt lat="46.23937" lon="6.39514">
        <ele>901</ele>
        <time>2018-09-02T01:09:14.000Z</time>
      </trkpt>
      <trkpt lat="46.23928" lon="6.395">
        <ele>900</ele>
        <time>2018-09-02T01:10:14.000Z</time>
      </trkpt>
      <trkpt lat="46.23916" lon="6.39487">
        <ele>899</ele>
        <time>2018-09-02T01:11:14.000Z</time>
      </trkpt>
      <trkpt lat="46.23864" lon="6.39446">
        <ele>895</ele>
        <time>2018-09-02T01:12:14.000Z</time>
      </trkpt>
      <trkpt lat="46.23843" lon="6.39437">
        <ele>894</ele>
        <time>2018-09-02T01:13:14.000Z</time>
      </trkpt>
      <trkpt lat="46.2382" lon="6.39438">
        <ele>893</ele>
        <time>2018-09-02T01:14:14.000Z</time>
      </trkpt>
      <trkpt lat="46.2368" lon="6.39481">
        <ele>886</ele>
        <time>2018-09-02T01:15:14.000Z</time>
      </trkpt>
      <trkpt lat="46.23656" lon="6.39485">
        <ele>886</ele>
        <time>2018-09-02T01:16:14.000Z</time>
      </trkpt>
      <trkpt lat="46.23628" lon="6.39481">
        <ele>885</ele>
        <time>2018-09-02T01:17:14.000Z</time>
      </trkpt>
      <trkpt lat="46.23568" lon="6.39456">
        <ele>880</ele>
        <time>2018-09-02T01:18:14.000Z</time>
      </trkpt>
      <trkpt lat="46.23559" lon="6.39455">
        <ele>879</ele>
        <time>2018-09-02T01:19:14.000Z</time>
      </trkpt>
      <trkpt lat="46.23551" lon="6.39457">
        <ele>879</ele>
        <time>2018-09-02T01:20:14.000Z</time>
      </trkpt>
      <trkpt lat="46.23542" lon="6.39461">
        <ele>879</ele>
        <time>2018-09-02T01:21:14.000Z</time>
      </trkpt>
      <trkpt lat="46.23533" lon="6.3947">
        <ele>879</ele>
        <time>2018-09-02T01:22:14.000Z</time>
      </trkpt>
      <trkpt lat="46.23526" lon="6.39481">
        <ele>879</ele>
        <time>2018-09-02T01:23:14.000Z</time>
      </trkpt>
      <trkpt lat="46.23514" lon="6.39516">
        <ele>882</ele>
        <time>2018-09-02T01:24:14.000Z</time>
      </trkpt>
      <trkpt lat="46.23505" lon="6.39525">
        <ele>882</ele>
        <time>2018-09-02T01:25:14.000Z</time>
      </trkpt>
      <trkpt lat="46.23498" lon="6.39528">
        <ele>881</ele>
        <time>2018-09-02T01:26:14.000Z</time>
      </trkpt>
      <trkpt lat="46.23458" lon="6.39531">
        <ele>876</ele>
        <time>2018-09-02T01:27:14.000Z</time>
      </trkpt>
      <trkpt lat="46.23409" lon="6.39531">
        <ele>869</ele>
        <time>2018-09-02T01:28:14.000Z</time>
      </trkpt>
      <trkpt lat="46.23385" lon="6.39527">
        <ele>869</ele>
        <time>2018-09-02T01:29:14.000Z</time>
      </trkpt>
      <trkpt lat="46.23345" lon="6.39512">
        <ele>866</ele>
        <time>2018-09-02T01:30:14.000Z</time>
      </trkpt>
      <trkpt lat="46.23328" lon="6.395">
        <ele>865</ele>
        <time>2018-09-02T01:31:14.000Z</time>
      </trkpt>
      <trkpt lat="46.23294" lon="6.39454">
        <ele>860</ele>
        <time>2018-09-02T01:32:14.000Z</time>
      </trkpt>
      <trkpt lat="46.23286" lon="6.39447">
        <ele>859</ele>
        <time>2018-09-02T01:33:14.000Z</time>
      </trkpt>
      <trkpt lat="46.23266" lon="6.3944">
        <ele>857</ele>
        <time>2018-09-02T01:34:14.000Z</time>
      </trkpt>
      <trkpt lat="46.23218" lon="6.39428">
        <ele>854</ele>
        <time>2018-09-02T01:35:14.000Z</time>
      </trkpt>
      <trkpt lat="46.232" lon="6.3943">
        <ele>853</ele>
        <time>2018-09-02T01:36:14.000Z</time>
      </trkpt>
      <trkpt lat="46.23192" lon="6.39435">
        <ele>854</ele>
        <time>2018-09-02T01:37:14.000Z</time>
      </trkpt>
      <trkpt lat="46.23097" lon="6.39521">
        <ele>861</ele>
        <time>2018-09-02T01:38:14.000Z</time>
      </trkpt>
      <trkpt lat="46.23088" lon="6.39528">
        <ele>862</ele>
        <time>2018-09-02T01:39:14.000Z</time>
      </trkpt>
      <trkpt lat="46.23079" lon="6.39531">
        <ele>862</ele>
        <time>2018-09-02T01:40:14.000Z</time>
      </trkpt>
      <trkpt lat="46.23072" lon="6.3953">
        <ele>862</ele>
        <time>2018-09-02T01:41:14.000Z</time>
      </trkpt>
      <trkpt lat="46.23063" lon="6.39526">
        <ele>861</ele>
        <time>2018-09-02T01:42:14.000Z</time>
      </trkpt>
      <trkpt lat="46.2304" lon="6.39506">
        <ele>858</ele>
        <time>2018-09-02T01:43:14.000Z</time>
      </trkpt>
      <trkpt lat="46.23028" lon="6.39502">
        <ele>857</ele>
        <time>2018-09-02T01:44:14.000Z</time>
      </trkpt>
      <trkpt lat="46.22977" lon="6.39503">
        <ele>858</ele>
        <time>2018-09-02T01:45:14.000Z</time>
      </trkpt>
      <trkpt lat="46.22962" lon="6.395">
        <ele>857</ele>
        <time>2018-09-02T01:46:14.000Z</time>
      </trkpt>
      <trkpt lat="46.22902" lon="6.39463">
        <ele>850</ele>
        <time>2018-09-02T01:47:14.000Z</time>
      </trkpt>
      <trkpt lat="46.22843" lon="6.39449">
        <ele>843</ele>
        <time>2018-09-02T01:48:14.000Z</time>
      </trkpt>
      <trkpt lat="46.22742" lon="6.39449">
        <ele>835</ele>
        <time>2018-09-02T01:49:14.000Z</time>
      </trkpt>
      <trkpt lat="46.22641" lon="6.39452">
        <ele>825</ele>
        <time>2018-09-02T01:50:14.000Z</time>
      </trkpt>
      <trkpt lat="46.22625" lon="6.39454">
        <ele>825</ele>
        <time>2018-09-02T01:51:14.000Z</time>
      </trkpt>
      <trkpt lat="46.22617" lon="6.39459">
        <ele>825</ele>
        <time>2018-09-02T01:52:14.000Z</time>
      </trkpt>
      <trkpt lat="46.22605" lon="6.39471">
        <ele>827</ele>
        <time>2018-09-02T01:53:14.000Z</time>
      </trkpt>
      <trkpt lat="46.226" lon="6.39481">
        <ele>829</ele>
        <time>2018-09-02T01:54:14.000Z</time>
      </trkpt>
      <trkpt lat="46.22586" lon="6.39496">
        <ele>832</ele>
        <time>2018-09-02T01:55:14.000Z</time>
      </trkpt>
      <trkpt lat="46.22576" lon="6.39497">
        <ele>831</ele>
        <time>2018-09-02T01:56:14.000Z</time>
      </trkpt>
      <trkpt lat="46.22555" lon="6.39488">
        <ele>827</ele>
        <time>2018-09-02T01:57:14.000Z</time>
      </trkpt>
      <trkpt lat="46.22539" lon="6.39484">
        <ele>824</ele>
        <time>2018-09-02T01:58:14.000Z</time>
      </trkpt>
      <trkpt lat="46.22525" lon="6.39485">
        <ele>822</ele>
        <time>2018-09-02T01:59:14.000Z</time>
      </trkpt>
      <trkpt lat="46.22347" lon="6.39546">
        <ele>811</ele>
        <time>2018-09-02T02:00:14.000Z</time>
      </trkpt>
      <trkpt lat="46.22336" lon="6.39547">
        <ele>810</ele>
        <time>2018-09-02T02:01:14.000Z</time>
      </trkpt>
      <trkpt lat="46.22145" lon="6.39529">
        <ele>797</ele>
        <time>2018-09-02T02:02:14.000Z</time>
      </trkpt>
      <trkpt lat="46.22131" lon="6.39532">
        <ele>797</ele>
        <time>2018-09-02T02:03:14.000Z</time>
      </trkpt>
      <trkpt lat="46.22097" lon="6.39553">
        <ele>799</ele>
        <time>2018-09-02T02:04:14.000Z</time>
      </trkpt>
      <trkpt lat="46.22087" lon="6.39558">
        <ele>799</ele>
        <time>2018-09-02T02:05:14.000Z</time>
      </trkpt>
      <trkpt lat="46.22076" lon="6.3956">
        <ele>799</ele>
        <time>2018-09-02T02:06:14.000Z</time>
      </trkpt>
      <trkpt lat="46.22055" lon="6.39548">
        <ele>797</ele>
        <time>2018-09-02T02:07:14.000Z</time>
      </trkpt>
      <trkpt lat="46.22033" lon="6.39541">
        <ele>796</ele>
        <time>2018-09-02T02:08:14.000Z</time>
      </trkpt>
      <trkpt lat="46.22015" lon="6.39545">
        <ele>797</ele>
        <time>2018-09-02T02:09:14.000Z</time>
      </trkpt>
      <trkpt lat="46.22001" lon="6.3955">
        <ele>798</ele>
        <time>2018-09-02T02:10:14.000Z</time>
      </trkpt>
      <trkpt lat="46.21825" lon="6.39663">
        <ele>787</ele>
        <time>2018-09-02T02:11:14.000Z</time>
      </trkpt>
      <trkpt lat="46.218" lon="6.39683">
        <ele>785</ele>
        <time>2018-09-02T02:12:14.000Z</time>
      </trkpt>
      <trkpt lat="46.21713" lon="6.39771">
        <ele>782</ele>
        <time>2018-09-02T02:13:14.000Z</time>
      </trkpt>
      <trkpt lat="46.21683" lon="6.3979">
        <ele>777</ele>
        <time>2018-09-02T02:14:14.000Z</time>
      </trkpt>
      <trkpt lat="46.21542" lon="6.39806">
        <ele>762</ele>
        <time>2018-09-02T02:15:14.000Z</time>
      </trkpt>
      <trkpt lat="46.21521" lon="6.39803">
        <ele>760</ele>
        <time>2018-09-02T02:16:14.000Z</time>
      </trkpt>
      <trkpt lat="46.21396" lon="6.39756">
        <ele>755</ele>
        <time>2018-09-02T02:17:14.000Z</time>
      </trkpt>
      <trkpt lat="46.21382" lon="6.39753">
        <ele>754</ele>
        <time>2018-09-02T02:18:14.000Z</time>
      </trkpt>
      <trkpt lat="46.21369" lon="6.39754">
        <ele>754</ele>
        <time>2018-09-02T02:19:14.000Z</time>
      </trkpt>
      <trkpt lat="46.2135" lon="6.39762">
        <ele>754</ele>
        <time>2018-09-02T02:20:14.000Z</time>
      </trkpt>
      <trkpt lat="46.21331" lon="6.39777">
        <ele>753</ele>
        <time>2018-09-02T02:21:14.000Z</time>
      </trkpt>
      <trkpt lat="46.21181" lon="6.39995">
        <ele>742</ele>
        <time>2018-09-02T02:22:14.000Z</time>
      </trkpt>
      <trkpt lat="46.21181" lon="6.39995">
        <ele>742</ele>
        <time>2018-09-02T02:23:14.000Z</time>
      </trkpt>
      <trkpt lat="46.21075" lon="6.4015">
        <ele>738</ele>
        <time>2018-09-02T02:24:14.000Z</time>
      </trkpt>
      <trkpt lat="46.20989" lon="6.4027">
        <ele>741</ele>
        <time>2018-09-02T02:25:14.000Z</time>
      </trkpt>
      <trkpt lat="46.20957" lon="6.40234">
        <ele>741</ele>
        <time>2018-09-02T02:26:14.000Z</time>
      </trkpt>
      <trkpt lat="46.20877" lon="6.40182">
        <ele>740</ele>
        <time>2018-09-02T02:27:14.000Z</time>
      </trkpt>
      <trkpt lat="46.20843" lon="6.40163">
        <ele>739</ele>
        <time>2018-09-02T02:28:14.000Z</time>
      </trkpt>
      <trkpt lat="46.20834" lon="6.4016">
        <ele>739</ele>
        <time>2018-09-02T02:29:14.000Z</time>
      </trkpt>
      <trkpt lat="46.20825" lon="6.40161">
        <ele>739</ele>
        <time>2018-09-02T02:30:14.000Z</time>
      </trkpt>
      <trkpt lat="46.20818" lon="6.40165">
        <ele>739</ele>
        <time>2018-09-02T02:31:14.000Z</time>
      </trkpt>
      <trkpt lat="46.20811" lon="6.40173">
        <ele>739</ele>
        <time>2018-09-02T02:32:14.000Z</time>
      </trkpt>
      <trkpt lat="46.20764" lon="6.40268">
        <ele>739</ele>
        <time>2018-09-02T02:33:14.000Z</time>
      </trkpt>
      <trkpt lat="46.20647" lon="6.39976">
        <ele>735</ele>
        <time>2018-09-02T02:34:14.000Z</time>
      </trkpt>
      <trkpt lat="46.20634" lon="6.39954">
        <ele>734</ele>
        <time>2018-09-02T02:35:14.000Z</time>
      </trkpt>
      <trkpt lat="46.20517" lon="6.39786">
        <ele>728</ele>
        <time>2018-09-02T02:36:14.000Z</time>
      </trkpt>
      <trkpt lat="46.20492" lon="6.39756">
        <ele>727</ele>
        <time>2018-09-02T02:37:14.000Z</time>
      </trkpt>
      <trkpt lat="46.20467" lon="6.39736">
        <ele>728</ele>
        <time>2018-09-02T02:38:14.000Z</time>
      </trkpt>
      <trkpt lat="46.20382" lon="6.39694">
        <ele>732</ele>
        <time>2018-09-02T02:39:14.000Z</time>
      </trkpt>
      <trkpt lat="46.20355" lon="6.39677">
        <ele>733</ele>
        <time>2018-09-02T02:40:14.000Z</time>
      </trkpt>
      <trkpt lat="46.20324" lon="6.39649">
        <ele>736</ele>
        <time>2018-09-02T02:41:14.000Z</time>
      </trkpt>
      <trkpt lat="46.20295" lon="6.39616">
        <ele>737</ele>
        <time>2018-09-02T02:42:14.000Z</time>
      </trkpt>
      <trkpt lat="46.20265" lon="6.39587">
        <ele>736</ele>
        <time>2018-09-02T02:43:14.000Z</time>
      </trkpt>
      <trkpt lat="46.20234" lon="6.39563">
        <ele>735</ele>
        <time>2018-09-02T02:44:14.000Z</time>
      </trkpt>
      <trkpt lat="46.20198" lon="6.3954">
        <ele>734</ele>
        <time>2018-09-02T02:45:14.000Z</time>
      </trkpt>
      <trkpt lat="46.20049" lon="6.394">
        <ele>731</ele>
        <time>2018-09-02T02:46:14.000Z</time>
      </trkpt>
      <trkpt lat="46.20021" lon="6.39367">
        <ele>729</ele>
        <time>2018-09-02T02:47:14.000Z</time>
      </trkpt>
      <trkpt lat="46.19979" lon="6.39288">
        <ele>730</ele>
        <time>2018-09-02T02:48:14.000Z</time>
      </trkpt>
      <trkpt lat="46.19926" lon="6.3917">
        <ele>736</ele>
        <time>2018-09-02T02:49:14.000Z</time>
      </trkpt>
      <trkpt lat="46.19911" lon="6.39143">
        <ele>738</ele>
        <time>2018-09-02T02:50:14.000Z</time>
      </trkpt>
      <trkpt lat="46.19895" lon="6.39128">
        <ele>738</ele>
        <time>2018-09-02T02:51:14.000Z</time>
      </trkpt>
      <trkpt lat="46.19788" lon="6.3905">
        <ele>741</ele>
        <time>2018-09-02T02:52:14.000Z</time>
      </trkpt>
      <trkpt lat="46.19758" lon="6.39034">
        <ele>742</ele>
        <time>2018-09-02T02:53:14.000Z</time>
      </trkpt>
      <trkpt lat="46.19687" lon="6.39009">
        <ele>740</ele>
        <time>2018-09-02T02:54:14.000Z</time>
      </trkpt>
      <trkpt lat="46.19659" lon="6.38992">
        <ele>739</ele>
        <time>2018-09-02T02:55:14.000Z</time>
      </trkpt>
      <trkpt lat="46.19524" lon="6.3889">
        <ele>741</ele>
        <time>2018-09-02T02:56:14.000Z</time>
      </trkpt>
      <trkpt lat="46.19505" lon="6.38881">
        <ele>740</ele>
        <time>2018-09-02T02:57:14.000Z</time>
      </trkpt>
      <trkpt lat="46.19468" lon="6.38871">
        <ele>740</ele>
        <time>2018-09-02T02:58:14.000Z</time>
      </trkpt>
      <trkpt lat="46.19442" lon="6.38866">
        <ele>740</ele>
        <time>2018-09-02T02:59:14.000Z</time>
      </trkpt>
      <trkpt lat="46.19412" lon="6.38855">
        <ele>739</ele>
        <time>2018-09-02T03:00:14.000Z</time>
      </trkpt>
      <trkpt lat="46.19392" lon="6.38842">
        <ele>740</ele>
        <time>2018-09-02T03:01:14.000Z</time>
      </trkpt>
      <trkpt lat="46.19376" lon="6.38828">
        <ele>740</ele>
        <time>2018-09-02T03:02:14.000Z</time>
      </trkpt>
      <trkpt lat="46.1936" lon="6.38812">
        <ele>741</ele>
        <time>2018-09-02T03:03:14.000Z</time>
      </trkpt>
      <trkpt lat="46.19346" lon="6.38792">
        <ele>741</ele>
        <time>2018-09-02T03:04:14.000Z</time>
      </trkpt>
      <trkpt lat="46.19334" lon="6.38772">
        <ele>741</ele>
        <time>2018-09-02T03:05:14.000Z</time>
      </trkpt>
      <trkpt lat="46.19315" lon="6.38733">
        <ele>742</ele>
        <time>2018-09-02T03:06:14.000Z</time>
      </trkpt>
      <trkpt lat="46.19296" lon="6.38702">
        <ele>744</ele>
        <time>2018-09-02T03:07:14.000Z</time>
      </trkpt>
      <trkpt lat="46.19219" lon="6.38616">
        <ele>746</ele>
        <time>2018-09-02T03:08:14.000Z</time>
      </trkpt>
      <trkpt lat="46.19199" lon="6.38588">
        <ele>745</ele>
        <time>2018-09-02T03:09:14.000Z</time>
      </trkpt>
      <trkpt lat="46.1919" lon="6.38568">
        <ele>745</ele>
        <time>2018-09-02T03:10:14.000Z</time>
      </trkpt>
      <trkpt lat="46.19185" lon="6.38548">
        <ele>744</ele>
        <time>2018-09-02T03:11:14.000Z</time>
      </trkpt>
      <trkpt lat="46.1918" lon="6.38517">
        <ele>744</ele>
        <time>2018-09-02T03:12:14.000Z</time>
      </trkpt>
      <trkpt lat="46.19174" lon="6.38435">
        <ele>743</ele>
        <time>2018-09-02T03:13:14.000Z</time>
      </trkpt>
      <trkpt lat="46.19172" lon="6.38421">
        <ele>743</ele>
        <time>2018-09-02T03:14:14.000Z</time>
      </trkpt>
      <trkpt lat="46.19163" lon="6.38385">
        <ele>743</ele>
        <time>2018-09-02T03:15:14.000Z</time>
      </trkpt>
      <trkpt lat="46.19104" lon="6.3821">
        <ele>741</ele>
        <time>2018-09-02T03:16:14.000Z</time>
      </trkpt>
      <trkpt lat="46.19083" lon="6.38158">
        <ele>738</ele>
        <time>2018-09-02T03:17:14.000Z</time>
      </trkpt>
      <trkpt lat="46.19064" lon="6.38122">
        <ele>741</ele>
        <time>2018-09-02T03:18:14.000Z</time>
      </trkpt>
      <trkpt lat="46.18985" lon="6.38026">
        <ele>732</ele>
        <time>2018-09-02T03:19:14.000Z</time>
      </trkpt>
      <trkpt lat="46.18934" lon="6.37968">
        <ele>727</ele>
        <time>2018-09-02T03:20:14.000Z</time>
      </trkpt>
      <trkpt lat="46.18781" lon="6.37805">
        <ele>719</ele>
        <time>2018-09-02T03:21:14.000Z</time>
      </trkpt>
      <trkpt lat="46.18661" lon="6.37678">
        <ele>716</ele>
        <time>2018-09-02T03:22:14.000Z</time>
      </trkpt>
      <trkpt lat="46.18641" lon="6.37668">
        <ele>716</ele>
        <time>2018-09-02T03:23:14.000Z</time>
      </trkpt>
      <trkpt lat="46.1862" lon="6.37666">
        <ele>715</ele>
        <time>2018-09-02T03:24:14.000Z</time>
      </trkpt>
      <trkpt lat="46.18601" lon="6.37669">
        <ele>714</ele>
        <time>2018-09-02T03:25:14.000Z</time>
      </trkpt>
      <trkpt lat="46.18505" lon="6.37692">
        <ele>704</ele>
        <time>2018-09-02T03:26:14.000Z</time>
      </trkpt>
      <trkpt lat="46.18474" lon="6.37694">
        <ele>701</ele>
        <time>2018-09-02T03:27:14.000Z</time>
      </trkpt>
      <trkpt lat="46.18458" lon="6.37693">
        <ele>700</ele>
        <time>2018-09-02T03:28:14.000Z</time>
      </trkpt>
      <trkpt lat="46.18431" lon="6.37686">
        <ele>700</ele>
        <time>2018-09-02T03:29:14.000Z</time>
      </trkpt>
      <trkpt lat="46.1842" lon="6.37679">
        <ele>700</ele>
        <time>2018-09-02T03:30:14.000Z</time>
      </trkpt>
      <trkpt lat="46.18401" lon="6.37662">
        <ele>698</ele>
        <time>2018-09-02T03:31:14.000Z</time>
      </trkpt>
      <trkpt lat="46.18368" lon="6.37622">
        <ele>695</ele>
        <time>2018-09-02T03:32:14.000Z</time>
      </trkpt>
      <trkpt lat="46.18306" lon="6.37532">
        <ele>692</ele>
        <time>2018-09-02T03:33:14.000Z</time>
      </trkpt>
      <trkpt lat="46.18295" lon="6.37522">
        <ele>691</ele>
        <time>2018-09-02T03:34:14.000Z</time>
      </trkpt>
      <trkpt lat="46.18263" lon="6.37503">
        <ele>686</ele>
        <time>2018-09-02T03:35:14.000Z</time>
      </trkpt>
      <trkpt lat="46.18247" lon="6.37487">
        <ele>685</ele>
        <time>2018-09-02T03:36:14.000Z</time>
      </trkpt>
      <trkpt lat="46.18237" lon="6.37463">
        <ele>686</ele>
        <time>2018-09-02T03:37:14.000Z</time>
      </trkpt>
      <trkpt lat="46.18216" lon="6.37401">
        <ele>691</ele>
        <time>2018-09-02T03:38:14.000Z</time>
      </trkpt>
      <trkpt lat="46.18203" lon="6.37381">
        <ele>691</ele>
        <time>2018-09-02T03:39:14.000Z</time>
      </trkpt>
      <trkpt lat="46.18189" lon="6.37369">
        <ele>691</ele>
        <time>2018-09-02T03:40:14.000Z</time>
      </trkpt>
      <trkpt lat="46.18189" lon="6.37369">
        <ele>691</ele>
        <time>2018-09-02T03:41:14.000Z</time>
      </trkpt>
      <trkpt lat="46.18107" lon="6.37308">
        <ele>684</ele>
        <time>2018-09-02T03:42:14.000Z</time>
      </trkpt>
      <trkpt lat="46.18087" lon="6.3729">
        <ele>682</ele>
        <time>2018-09-02T03:43:14.000Z</time>
      </trkpt>
      <trkpt lat="46.18081" lon="6.37282">
        <ele>681</ele>
        <time>2018-09-02T03:44:14.000Z</time>
      </trkpt>
      <trkpt lat="46.1807" lon="6.3726">
        <ele>680</ele>
        <time>2018-09-02T03:45:14.000Z</time>
      </trkpt>
      <trkpt lat="46.18066" lon="6.37246">
        <ele>680</ele>
        <time>2018-09-02T03:46:14.000Z</time>
      </trkpt>
      <trkpt lat="46.18064" lon="6.3723">
        <ele>680</ele>
        <time>2018-09-02T03:47:14.000Z</time>
      </trkpt>
      <trkpt lat="46.18063" lon="6.37176">
        <ele>680</ele>
        <time>2018-09-02T03:48:14.000Z</time>
      </trkpt>
      <trkpt lat="46.18061" lon="6.37151">
        <ele>680</ele>
        <time>2018-09-02T03:49:14.000Z</time>
      </trkpt>
      <trkpt lat="46.18053" lon="6.37127">
        <ele>678</ele>
        <time>2018-09-02T03:50:14.000Z</time>
      </trkpt>
      <trkpt lat="46.18047" lon="6.37116">
        <ele>677</ele>
        <time>2018-09-02T03:51:14.000Z</time>
      </trkpt>
      <trkpt lat="46.18033" lon="6.371">
        <ele>675</ele>
        <time>2018-09-02T03:52:14.000Z</time>
      </trkpt>
      <trkpt lat="46.18027" lon="6.37095">
        <ele>674</ele>
        <time>2018-09-02T03:53:14.000Z</time>
      </trkpt>
      <trkpt lat="46.18014" lon="6.37089">
        <ele>672</ele>
        <time>2018-09-02T03:54:14.000Z</time>
      </trkpt>
      <trkpt lat="46.17942" lon="6.37078">
        <ele>669</ele>
        <time>2018-09-02T03:55:14.000Z</time>
      </trkpt>
      <trkpt lat="46.17924" lon="6.37068">
        <ele>669</ele>
        <time>2018-09-02T03:56:14.000Z</time>
      </trkpt>
      <trkpt lat="46.1791" lon="6.37055">
        <ele>669</ele>
        <time>2018-09-02T03:57:14.000Z</time>
      </trkpt>
      <trkpt lat="46.17856" lon="6.36985">
        <ele>672</ele>
        <time>2018-09-02T03:58:14.000Z</time>
      </trkpt>
      <trkpt lat="46.17838" lon="6.36969">
        <ele>673</ele>
        <time>2018-09-02T03:59:14.000Z</time>
      </trkpt>
      <trkpt lat="46.17817" lon="6.3696">
        <ele>672</ele>
        <time>2018-09-02T04:00:14.000Z</time>
      </trkpt>
      <trkpt lat="46.17789" lon="6.36955">
        <ele>671</ele>
        <time>2018-09-02T04:01:14.000Z</time>
      </trkpt>
      <trkpt lat="46.17776" lon="6.36956">
        <ele>670</ele>
        <time>2018-09-02T04:02:14.000Z</time>
      </trkpt>
      <trkpt lat="46.17743" lon="6.36967">
        <ele>667</ele>
        <time>2018-09-02T04:03:14.000Z</time>
      </trkpt>
      <trkpt lat="46.17653" lon="6.37021">
        <ele>663</ele>
        <time>2018-09-02T04:04:14.000Z</time>
      </trkpt>
      <trkpt lat="46.17634" lon="6.37036">
        <ele>662</ele>
        <time>2018-09-02T04:05:14.000Z</time>
      </trkpt>
      <trkpt lat="46.1756" lon="6.37109">
        <ele>655</ele>
        <time>2018-09-02T04:06:14.000Z</time>
      </trkpt>
      <trkpt lat="46.17541" lon="6.37125">
        <ele>654</ele>
        <time>2018-09-02T04:07:14.000Z</time>
      </trkpt>
      <trkpt lat="46.17526" lon="6.37135">
        <ele>653</ele>
        <time>2018-09-02T04:08:14.000Z</time>
      </trkpt>
      <trkpt lat="46.17514" lon="6.37139">
        <ele>653</ele>
        <time>2018-09-02T04:09:14.000Z</time>
      </trkpt>
      <trkpt lat="46.17488" lon="6.37143">
        <ele>653</ele>
        <time>2018-09-02T04:10:14.000Z</time>
      </trkpt>
      <trkpt lat="46.17458" lon="6.37138">
        <ele>653</ele>
        <time>2018-09-02T04:11:14.000Z</time>
      </trkpt>
      <trkpt lat="46.17424" lon="6.37124">
        <ele>653</ele>
        <time>2018-09-02T04:12:14.000Z</time>
      </trkpt>
      <trkpt lat="46.17408" lon="6.3712">
        <ele>653</ele>
        <time>2018-09-02T04:13:14.000Z</time>
      </trkpt>
      <trkpt lat="46.17267" lon="6.37112">
        <ele>646</ele>
        <time>2018-09-02T04:14:14.000Z</time>
      </trkpt>
      <trkpt lat="46.17227" lon="6.37106">
        <ele>644</ele>
        <time>2018-09-02T04:15:14.000Z</time>
      </trkpt>
      <trkpt lat="46.17169" lon="6.37081">
        <ele>639</ele>
        <time>2018-09-02T04:16:14.000Z</time>
      </trkpt>
      <trkpt lat="46.17139" lon="6.37072">
        <ele>638</ele>
        <time>2018-09-02T04:17:14.000Z</time>
      </trkpt>
      <trkpt lat="46.1711" lon="6.3707">
        <ele>638</ele>
        <time>2018-09-02T04:18:14.000Z</time>
      </trkpt>
      <trkpt lat="46.16969" lon="6.37083">
        <ele>630</ele>
        <time>2018-09-02T04:19:14.000Z</time>
      </trkpt>
      <trkpt lat="46.16905" lon="6.371">
        <ele>622</ele>
        <time>2018-09-02T04:20:14.000Z</time>
      </trkpt>
      <trkpt lat="46.16893" lon="6.37101">
        <ele>621</ele>
        <time>2018-09-02T04:21:14.000Z</time>
      </trkpt>
      <trkpt lat="46.16876" lon="6.37101">
        <ele>620</ele>
        <time>2018-09-02T04:22:14.000Z</time>
      </trkpt>
      <trkpt lat="46.16821" lon="6.37087">
        <ele>620</ele>
        <time>2018-09-02T04:23:14.000Z</time>
      </trkpt>
      <trkpt lat="46.16808" lon="6.37086">
        <ele>620</ele>
        <time>2018-09-02T04:24:14.000Z</time>
      </trkpt>
      <trkpt lat="46.16783" lon="6.37085">
        <ele>618</ele>
        <time>2018-09-02T04:25:14.000Z</time>
      </trkpt>
      <trkpt lat="46.16675" lon="6.37095">
        <ele>608</ele>
        <time>2018-09-02T04:26:14.000Z</time>
      </trkpt>
      <trkpt lat="46.16662" lon="6.37091">
        <ele>607</ele>
        <time>2018-09-02T04:27:14.000Z</time>
      </trkpt>
      <trkpt lat="46.16645" lon="6.3708">
        <ele>607</ele>
        <time>2018-09-02T04:28:14.000Z</time>
      </trkpt>
      <trkpt lat="46.1655" lon="6.36977">
        <ele>601</ele>
        <time>2018-09-02T04:29:14.000Z</time>
      </trkpt>
      <trkpt lat="46.16543" lon="6.36967">
        <ele>600</ele>
        <time>2018-09-02T04:30:14.000Z</time>
      </trkpt>
      <trkpt lat="46.16536" lon="6.36954">
        <ele>599</ele>
        <time>2018-09-02T04:31:14.000Z</time>
      </trkpt>
      <trkpt lat="46.16528" lon="6.36924">
        <ele>599</ele>
        <time>2018-09-02T04:32:14.000Z</time>
      </trkpt>
      <trkpt lat="46.16522" lon="6.3684">
        <ele>600</ele>
        <time>2018-09-02T04:33:14.000Z</time>
      </trkpt>
      <trkpt lat="46.16514" lon="6.36804">
        <ele>600</ele>
        <time>2018-09-02T04:34:14.000Z</time>
      </trkpt>
      <trkpt lat="46.16499" lon="6.36767">
        <ele>598</ele>
        <time>2018-09-02T04:35:14.000Z</time>
      </trkpt>
      <trkpt lat="46.16457" lon="6.36689">
        <ele>592</ele>
        <time>2018-09-02T04:36:14.000Z</time>
      </trkpt>
      <trkpt lat="46.16447" lon="6.36658">
        <ele>590</ele>
        <time>2018-09-02T04:37:14.000Z</time>
      </trkpt>
      <trkpt lat="46.16393" lon="6.36437">
        <ele>580</ele>
        <time>2018-09-02T04:38:14.000Z</time>
      </trkpt>
      <trkpt lat="46.16387" lon="6.36397">
        <ele>578</ele>
        <time>2018-09-02T04:39:14.000Z</time>
      </trkpt>
      <trkpt lat="46.16384" lon="6.36341">
        <ele>576</ele>
        <time>2018-09-02T04:40:14.000Z</time>
      </trkpt>
      <trkpt lat="46.16384" lon="6.36325">
        <ele>575</ele>
        <time>2018-09-02T04:41:14.000Z</time>
      </trkpt>
      <trkpt lat="46.16387" lon="6.363">
        <ele>574</ele>
        <time>2018-09-02T04:42:14.000Z</time>
      </trkpt>
      <trkpt lat="46.16405" lon="6.36227">
        <ele>574</ele>
        <time>2018-09-02T04:43:14.000Z</time>
      </trkpt>
      <trkpt lat="46.1641" lon="6.3618">
        <ele>573</ele>
        <time>2018-09-02T04:44:14.000Z</time>
      </trkpt>
      <trkpt lat="46.16408" lon="6.36128">
        <ele>572</ele>
        <time>2018-09-02T04:45:14.000Z</time>
      </trkpt>
      <trkpt lat="46.16391" lon="6.35941">
        <ele>565</ele>
        <time>2018-09-02T04:46:14.000Z</time>
      </trkpt>
      <trkpt lat="46.1639" lon="6.3588">
        <ele>563</ele>
        <time>2018-09-02T04:47:14.000Z</time>
      </trkpt>
      <trkpt lat="46.16393" lon="6.35715">
        <ele>558</ele>
        <time>2018-09-02T04:48:14.000Z</time>
      </trkpt>
      <trkpt lat="46.16391" lon="6.35695">
        <ele>557</ele>
        <time>2018-09-02T04:49:14.000Z</time>
      </trkpt>
      <trkpt lat="46.16387" lon="6.3567">
        <ele>555</ele>
        <time>2018-09-02T04:50:14.000Z</time>
      </trkpt>
      <trkpt lat="46.16382" lon="6.35647">
        <ele>554</ele>
        <time>2018-09-02T04:51:14.000Z</time>
      </trkpt>
      <trkpt lat="46.16349" lon="6.35552">
        <ele>547</ele>
        <time>2018-09-02T04:52:14.000Z</time>
      </trkpt>
      <trkpt lat="46.16343" lon="6.35531">
        <ele>546</ele>
        <time>2018-09-02T04:53:14.000Z</time>
      </trkpt>
      <trkpt lat="46.16306" lon="6.35349">
        <ele>543</ele>
        <time>2018-09-02T04:54:14.000Z</time>
      </trkpt>
      <trkpt lat="46.16299" lon="6.35324">
        <ele>542</ele>
        <time>2018-09-02T04:55:14.000Z</time>
      </trkpt>
      <trkpt lat="46.16295" lon="6.35293">
        <ele>542</ele>
        <time>2018-09-02T04:56:14.000Z</time>
      </trkpt>
      <trkpt lat="46.16289" lon="6.35288">
        <ele>542</ele>
        <time>2018-09-02T04:57:14.000Z</time>
      </trkpt>
      <trkpt lat="46.16287" lon="6.35289">
        <ele>542</ele>
        <time>2018-09-02T04:58:14.000Z</time>
      </trkpt>
      <trkpt lat="46.16259" lon="6.35307">
        <ele>543</ele>
        <time>2018-09-02T04:59:14.000Z</time>
      </trkpt>
      <trkpt lat="46.16204" lon="6.35305">
        <ele>545</ele>
        <time>2018-09-02T05:00:14.000Z</time>
      </trkpt>
      <trkpt lat="46.16187" lon="6.35308">
        <ele>545</ele>
        <time>2018-09-02T05:01:14.000Z</time>
      </trkpt>
      <trkpt lat="46.16171" lon="6.35307">
        <ele>546</ele>
        <time>2018-09-02T05:02:14.000Z</time>
      </trkpt>
      <trkpt lat="46.16166" lon="6.35304">
        <ele>546</ele>
        <time>2018-09-02T05:03:14.000Z</time>
      </trkpt>
      <trkpt lat="46.16162" lon="6.35305">
        <ele>547</ele>
        <time>2018-09-02T05:04:14.000Z</time>
      </trkpt>
      <trkpt lat="46.16159" lon="6.3531">
        <ele>547</ele>
        <time>2018-09-02T05:05:14.000Z</time>
      </trkpt>
      <trkpt lat="46.16157" lon="6.35323">
        <ele>547</ele>
        <time>2018-09-02T05:06:14.000Z</time>
      </trkpt>
      <trkpt lat="46.16146" lon="6.35351">
        <ele>547</ele>
        <time>2018-09-02T05:07:14.000Z</time>
      </trkpt>
      <trkpt lat="46.16105" lon="6.35432">
        <ele>549</ele>
        <time>2018-09-02T05:08:14.000Z</time>
      </trkpt>
      <trkpt lat="46.16086" lon="6.35462">
        <ele>549</ele>
        <time>2018-09-02T05:09:14.000Z</time>
      </trkpt>
      <trkpt lat="46.16068" lon="6.35483">
        <ele>550</ele>
        <time>2018-09-02T05:10:14.000Z</time>
      </trkpt>
      <trkpt lat="46.16046" lon="6.35505">
        <ele>552</ele>
        <time>2018-09-02T05:11:14.000Z</time>
      </trkpt>
      <trkpt lat="46.16048" lon="6.35511">
        <ele>552</ele>
        <time>2018-09-02T05:12:14.000Z</time>
      </trkpt>
      <trkpt lat="46.16048" lon="6.35511">
        <ele>552</ele>
        <time>2018-09-02T05:13:14.000Z</time>
      </trkpt>
      <trkpt lat="46.16046" lon="6.35505">
        <ele>552</ele>
        <time>2018-09-02T05:14:14.000Z</time>
      </trkpt>
      <trkpt lat="46.15959" lon="6.35586">
        <ele>557</ele>
        <time>2018-09-02T05:15:14.000Z</time>
      </trkpt>
      <trkpt lat="46.15945" lon="6.35601">
        <ele>558</ele>
        <time>2018-09-02T05:16:14.000Z</time>
      </trkpt>
      <trkpt lat="46.15933" lon="6.35617">
        <ele>558</ele>
        <time>2018-09-02T05:17:14.000Z</time>
      </trkpt>
      <trkpt lat="46.15921" lon="6.3564">
        <ele>558</ele>
        <time>2018-09-02T05:18:14.000Z</time>
      </trkpt>
      <trkpt lat="46.15912" lon="6.35666">
        <ele>558</ele>
        <time>2018-09-02T05:19:14.000Z</time>
      </trkpt>
      <trkpt lat="46.15903" lon="6.3571">
        <ele>559</ele>
        <time>2018-09-02T05:20:14.000Z</time>
      </trkpt>
      <trkpt lat="46.15902" lon="6.35732">
        <ele>559</ele>
        <time>2018-09-02T05:21:14.000Z</time>
      </trkpt>
      <trkpt lat="46.15903" lon="6.35828">
        <ele>558</ele>
        <time>2018-09-02T05:22:14.000Z</time>
      </trkpt>
      <trkpt lat="46.15908" lon="6.35831">
        <ele>558</ele>
        <time>2018-09-02T05:23:14.000Z</time>
      </trkpt>
      <trkpt lat="46.15914" lon="6.35841">
        <ele>557</ele>
        <time>2018-09-02T05:24:14.000Z</time>
      </trkpt>
      <trkpt lat="46.16055" lon="6.36185">
        <ele>570</ele>
        <time>2018-09-02T05:25:14.000Z</time>
      </trkpt>
      <trkpt lat="46.16064" lon="6.36211">
        <ele>571</ele>
        <time>2018-09-02T05:26:14.000Z</time>
      </trkpt>
      <trkpt lat="46.16067" lon="6.36232">
        <ele>571</ele>
        <time>2018-09-02T05:27:14.000Z</time>
      </trkpt>
      <trkpt lat="46.16067" lon="6.36266">
        <ele>571</ele>
        <time>2018-09-02T05:28:14.000Z</time>
      </trkpt>
      <trkpt lat="46.16058" lon="6.36433">
        <ele>577</ele>
        <time>2018-09-02T05:29:14.000Z</time>
      </trkpt>
      <trkpt lat="46.16059" lon="6.36467">
        <ele>580</ele>
        <time>2018-09-02T05:30:14.000Z</time>
      </trkpt>
      <trkpt lat="46.16061" lon="6.36482">
        <ele>582</ele>
        <time>2018-09-02T05:31:14.000Z</time>
      </trkpt>
      <trkpt lat="46.16107" lon="6.36692">
        <ele>589</ele>
        <time>2018-09-02T05:32:14.000Z</time>
      </trkpt>
      <trkpt lat="46.16111" lon="6.36726">
        <ele>589</ele>
        <time>2018-09-02T05:33:14.000Z</time>
      </trkpt>
      <trkpt lat="46.1611" lon="6.36737">
        <ele>589</ele>
        <time>2018-09-02T05:34:14.000Z</time>
      </trkpt>
      <trkpt lat="46.16105" lon="6.36772">
        <ele>590</ele>
        <time>2018-09-02T05:35:14.000Z</time>
      </trkpt>
      <trkpt lat="46.16092" lon="6.36825">
        <ele>593</ele>
        <time>2018-09-02T05:36:14.000Z</time>
      </trkpt>
      <trkpt lat="46.16086" lon="6.36867">
        <ele>594</ele>
        <time>2018-09-02T05:37:14.000Z</time>
      </trkpt>
      <trkpt lat="46.16083" lon="6.36912">
        <ele>596</ele>
        <time>2018-09-02T05:38:14.000Z</time>
      </trkpt>
      <trkpt lat="46.16083" lon="6.36936">
        <ele>596</ele>
        <time>2018-09-02T05:39:14.000Z</time>
      </trkpt>
      <trkpt lat="46.16085" lon="6.3696">
        <ele>597</ele>
        <time>2018-09-02T05:40:14.000Z</time>
      </trkpt>
      <trkpt lat="46.16092" lon="6.36988">
        <ele>597</ele>
        <time>2018-09-02T05:41:14.000Z</time>
      </trkpt>
      <trkpt lat="46.16097" lon="6.37004">
        <ele>598</ele>
        <time>2018-09-02T05:42:14.000Z</time>
      </trkpt>
      <trkpt lat="46.16125" lon="6.37065">
        <ele>602</ele>
        <time>2018-09-02T05:43:14.000Z</time>
      </trkpt>
      <trkpt lat="46.16159" lon="6.37154">
        <ele>606</ele>
        <time>2018-09-02T05:44:14.000Z</time>
      </trkpt>
      <trkpt lat="46.1617" lon="6.3717">
        <ele>606</ele>
        <time>2018-09-02T05:45:14.000Z</time>
      </trkpt>
      <trkpt lat="46.16179" lon="6.37178">
        <ele>607</ele>
        <time>2018-09-02T05:46:14.000Z</time>
      </trkpt>
      <trkpt lat="46.16202" lon="6.37191">
        <ele>609</ele>
        <time>2018-09-02T05:47:14.000Z</time>
      </trkpt>
      <trkpt lat="46.16214" lon="6.37203">
        <ele>610</ele>
        <time>2018-09-02T05:48:14.000Z</time>
      </trkpt>
      <trkpt lat="46.1622" lon="6.37219">
        <ele>611</ele>
        <time>2018-09-02T05:49:14.000Z</time>
      </trkpt>
      <trkpt lat="46.1622" lon="6.37235">
        <ele>612</ele>
        <time>2018-09-02T05:50:14.000Z</time>
      </trkpt>
      <trkpt lat="46.16216" lon="6.37249">
        <ele>613</ele>
        <time>2018-09-02T05:51:14.000Z</time>
      </trkpt>
      <trkpt lat="46.16213" lon="6.37255">
        <ele>613</ele>
        <time>2018-09-02T05:52:14.000Z</time>
      </trkpt>
      <trkpt lat="46.16204" lon="6.37263">
        <ele>613</ele>
        <time>2018-09-02T05:53:14.000Z</time>
      </trkpt>
      <trkpt lat="46.16191" lon="6.37265">
        <ele>613</ele>
        <time>2018-09-02T05:54:14.000Z</time>
      </trkpt>
      <trkpt lat="46.16184" lon="6.37264">
        <ele>613</ele>
        <time>2018-09-02T05:55:14.000Z</time>
      </trkpt>
      <trkpt lat="46.16148" lon="6.37247">
        <ele>612</ele>
        <time>2018-09-02T05:56:14.000Z</time>
      </trkpt>
      <trkpt lat="46.16086" lon="6.37233">
        <ele>611</ele>
        <time>2018-09-02T05:57:14.000Z</time>
      </trkpt>
      <trkpt lat="46.16039" lon="6.37239">
        <ele>614</ele>
        <time>2018-09-02T05:58:14.000Z</time>
      </trkpt>
      <trkpt lat="46.16012" lon="6.37248">
        <ele>617</ele>
        <time>2018-09-02T05:59:14.000Z</time>
      </trkpt>
      <trkpt lat="46.15861" lon="6.37342">
        <ele>627</ele>
        <time>2018-09-02T06:00:14.000Z</time>
      </trkpt>
      <trkpt lat="46.15839" lon="6.37358">
        <ele>628</ele>
        <time>2018-09-02T06:01:14.000Z</time>
      </trkpt>
      <trkpt lat="46.15823" lon="6.37375">
        <ele>629</ele>
        <time>2018-09-02T06:02:14.000Z</time>
      </trkpt>
      <trkpt lat="46.15777" lon="6.37456">
        <ele>634</ele>
        <time>2018-09-02T06:03:14.000Z</time>
      </trkpt>
      <trkpt lat="46.15736" lon="6.37518">
        <ele>639</ele>
        <time>2018-09-02T06:04:14.000Z</time>
      </trkpt>
      <trkpt lat="46.1572" lon="6.37536">
        <ele>640</ele>
        <time>2018-09-02T06:05:14.000Z</time>
      </trkpt>
      <trkpt lat="46.15634" lon="6.376">
        <ele>643</ele>
        <time>2018-09-02T06:06:14.000Z</time>
      </trkpt>
      <trkpt lat="46.15605" lon="6.37628">
        <ele>646</ele>
        <time>2018-09-02T06:07:14.000Z</time>
      </trkpt>
      <trkpt lat="46.15577" lon="6.37665">
        <ele>649</ele>
        <time>2018-09-02T06:08:14.000Z</time>
      </trkpt>
      <trkpt lat="46.15529" lon="6.37736">
        <ele>656</ele>
        <time>2018-09-02T06:09:14.000Z</time>
      </trkpt>
      <trkpt lat="46.15501" lon="6.37766">
        <ele>659</ele>
        <time>2018-09-02T06:10:14.000Z</time>
      </trkpt>
      <trkpt lat="46.15442" lon="6.37846">
        <ele>663</ele>
        <time>2018-09-02T06:11:14.000Z</time>
      </trkpt>
      <trkpt lat="46.1541" lon="6.37918">
        <ele>665</ele>
        <time>2018-09-02T06:12:14.000Z</time>
      </trkpt>
      <trkpt lat="46.154" lon="6.37937">
        <ele>667</ele>
        <time>2018-09-02T06:13:14.000Z</time>
      </trkpt>
      <trkpt lat="46.15402" lon="6.37949">
        <ele>669</ele>
        <time>2018-09-02T06:14:14.000Z</time>
      </trkpt>
      <trkpt lat="46.15398" lon="6.37963">
        <ele>670</ele>
        <time>2018-09-02T06:15:14.000Z</time>
      </trkpt>
      <trkpt lat="46.15374" lon="6.38027">
        <ele>677</ele>
        <time>2018-09-02T06:16:14.000Z</time>
      </trkpt>
      <trkpt lat="46.15337" lon="6.38097">
        <ele>678</ele>
        <time>2018-09-02T06:17:14.000Z</time>
      </trkpt>
      <trkpt lat="46.15309" lon="6.3817">
        <ele>680</ele>
        <time>2018-09-02T06:18:14.000Z</time>
      </trkpt>
      <trkpt lat="46.15306" lon="6.38197">
        <ele>680</ele>
        <time>2018-09-02T06:19:14.000Z</time>
      </trkpt>
      <trkpt lat="46.1531" lon="6.38226">
        <ele>683</ele>
        <time>2018-09-02T06:20:14.000Z</time>
      </trkpt>
      <trkpt lat="46.15312" lon="6.38248">
        <ele>685</ele>
        <time>2018-09-02T06:21:14.000Z</time>
      </trkpt>
      <trkpt lat="46.15312" lon="6.38302">
        <ele>685</ele>
        <time>2018-09-02T06:22:14.000Z</time>
      </trkpt>
      <trkpt lat="46.15317" lon="6.38331">
        <ele>686</ele>
        <time>2018-09-02T06:23:14.000Z</time>
      </trkpt>
      <trkpt lat="46.15327" lon="6.38354">
        <ele>689</ele>
        <time>2018-09-02T06:24:14.000Z</time>
      </trkpt>
      <trkpt lat="46.15348" lon="6.38392">
        <ele>693</ele>
        <time>2018-09-02T06:25:14.000Z</time>
      </trkpt>
      <trkpt lat="46.15353" lon="6.38405">
        <ele>694</ele>
        <time>2018-09-02T06:26:14.000Z</time>
      </trkpt>
      <trkpt lat="46.15407" lon="6.3865">
        <ele>709</ele>
        <time>2018-09-02T06:27:14.000Z</time>
      </trkpt>
      <trkpt lat="46.15435" lon="6.38747">
        <ele>713</ele>
        <time>2018-09-02T06:28:14.000Z</time>
      </trkpt>
      <trkpt lat="46.15459" lon="6.38788">
        <ele>716</ele>
        <time>2018-09-02T06:29:14.000Z</time>
      </trkpt>
      <trkpt lat="46.15471" lon="6.38805">
        <ele>717</ele>
        <time>2018-09-02T06:30:14.000Z</time>
      </trkpt>
      <trkpt lat="46.15484" lon="6.38818">
        <ele>719</ele>
        <time>2018-09-02T06:31:14.000Z</time>
      </trkpt>
      <trkpt lat="46.15547" lon="6.38866">
        <ele>726</ele>
        <time>2018-09-02T06:32:14.000Z</time>
      </trkpt>
      <trkpt lat="46.15567" lon="6.38885">
        <ele>728</ele>
        <time>2018-09-02T06:33:14.000Z</time>
      </trkpt>
      <trkpt lat="46.15567" lon="6.38885">
        <ele>728</ele>
        <time>2018-09-02T06:34:14.000Z</time>
      </trkpt>
      <trkpt lat="46.15582" lon="6.38898">
        <ele>729</ele>
        <time>2018-09-02T06:35:14.000Z</time>
      </trkpt>
      <trkpt lat="46.15599" lon="6.38906">
        <ele>731</ele>
        <time>2018-09-02T06:36:14.000Z</time>
      </trkpt>
      <trkpt lat="46.15628" lon="6.38937">
        <ele>732</ele>
        <time>2018-09-02T06:37:14.000Z</time>
      </trkpt>
      <trkpt lat="46.15652" lon="6.38957">
        <ele>734</ele>
        <time>2018-09-02T06:38:14.000Z</time>
      </trkpt>
      <trkpt lat="46.15684" lon="6.38976">
        <ele>735</ele>
        <time>2018-09-02T06:39:14.000Z</time>
      </trkpt>
      <trkpt lat="46.15697" lon="6.38979">
        <ele>736</ele>
        <time>2018-09-02T06:40:14.000Z</time>
      </trkpt>
      <trkpt lat="46.15716" lon="6.38976">
        <ele>738</ele>
        <time>2018-09-02T06:41:14.000Z</time>
      </trkpt>
      <trkpt lat="46.15728" lon="6.3898">
        <ele>739</ele>
        <time>2018-09-02T06:42:14.000Z</time>
      </trkpt>
      <trkpt lat="46.15809" lon="6.39081">
        <ele>740</ele>
        <time>2018-09-02T06:43:14.000Z</time>
      </trkpt>
      <trkpt lat="46.1586" lon="6.39148">
        <ele>742</ele>
        <time>2018-09-02T06:44:14.000Z</time>
      </trkpt>
      <trkpt lat="46.15877" lon="6.39169">
        <ele>743</ele>
        <time>2018-09-02T06:45:14.000Z</time>
      </trkpt>
      <trkpt lat="46.15894" lon="6.39186">
        <ele>743</ele>
        <time>2018-09-02T06:46:14.000Z</time>
      </trkpt>
      <trkpt lat="46.15931" lon="6.39212">
        <ele>744</ele>
        <time>2018-09-02T06:47:14.000Z</time>
      </trkpt>
      <trkpt lat="46.16084" lon="6.39303">
        <ele>748</ele>
        <time>2018-09-02T06:48:14.000Z</time>
      </trkpt>
      <trkpt lat="46.16098" lon="6.39307">
        <ele>748</ele>
        <time>2018-09-02T06:49:14.000Z</time>
      </trkpt>
      <trkpt lat="46.16129" lon="6.39304">
        <ele>749</ele>
        <time>2018-09-02T06:50:14.000Z</time>
      </trkpt>
      <trkpt lat="46.16138" lon="6.39305">
        <ele>749</ele>
        <time>2018-09-02T06:51:14.000Z</time>
      </trkpt>
      <trkpt lat="46.16153" lon="6.3931">
        <ele>749</ele>
        <time>2018-09-02T06:52:14.000Z</time>
      </trkpt>
      <trkpt lat="46.16213" lon="6.3934">
        <ele>752</ele>
        <time>2018-09-02T06:53:14.000Z</time>
      </trkpt>
      <trkpt lat="46.16249" lon="6.39338">
        <ele>757</ele>
        <time>2018-09-02T06:54:14.000Z</time>
      </trkpt>
      <trkpt lat="46.16264" lon="6.39346">
        <ele>758</ele>
        <time>2018-09-02T06:55:14.000Z</time>
      </trkpt>
      <trkpt lat="46.16283" lon="6.39362">
        <ele>760</ele>
        <time>2018-09-02T06:56:14.000Z</time>
      </trkpt>
      <trkpt lat="46.16323" lon="6.39411">
        <ele>764</ele>
        <time>2018-09-02T06:57:14.000Z</time>
      </trkpt>
      <trkpt lat="46.16335" lon="6.39423">
        <ele>765</ele>
        <time>2018-09-02T06:58:14.000Z</time>
      </trkpt>
      <trkpt lat="46.16347" lon="6.39433">
        <ele>766</ele>
        <time>2018-09-02T06:59:14.000Z</time>
      </trkpt>
      <trkpt lat="46.16373" lon="6.39447">
        <ele>770</ele>
        <time>2018-09-02T07:00:14.000Z</time>
      </trkpt>
      <trkpt lat="46.1638" lon="6.39454">
        <ele>771</ele>
        <time>2018-09-02T07:01:14.000Z</time>
      </trkpt>
      <trkpt lat="46.16387" lon="6.39464">
        <ele>772</ele>
        <time>2018-09-02T07:02:14.000Z</time>
      </trkpt>
      <trkpt lat="46.16389" lon="6.39472">
        <ele>772</ele>
        <time>2018-09-02T07:03:14.000Z</time>
      </trkpt>
      <trkpt lat="46.1639" lon="6.39505">
        <ele>770</ele>
        <time>2018-09-02T07:04:14.000Z</time>
      </trkpt>
      <trkpt lat="46.16394" lon="6.3952">
        <ele>771</ele>
        <time>2018-09-02T07:05:14.000Z</time>
      </trkpt>
      <trkpt lat="46.16402" lon="6.39536">
        <ele>772</ele>
        <time>2018-09-02T07:06:14.000Z</time>
      </trkpt>
      <trkpt lat="46.16431" lon="6.39579">
        <ele>776</ele>
        <time>2018-09-02T07:07:14.000Z</time>
      </trkpt>
      <trkpt lat="46.16447" lon="6.39607">
        <ele>778</ele>
        <time>2018-09-02T07:08:14.000Z</time>
      </trkpt>
      <trkpt lat="46.16461" lon="6.39662">
        <ele>780</ele>
        <time>2018-09-02T07:09:14.000Z</time>
      </trkpt>
      <trkpt lat="46.16468" lon="6.39679">
        <ele>782</ele>
        <time>2018-09-02T07:10:14.000Z</time>
      </trkpt>
      <trkpt lat="46.16477" lon="6.39693">
        <ele>785</ele>
        <time>2018-09-02T07:11:14.000Z</time>
      </trkpt>
      <trkpt lat="46.16488" lon="6.39703">
        <ele>787</ele>
        <time>2018-09-02T07:12:14.000Z</time>
      </trkpt>
      <trkpt lat="46.16505" lon="6.39715">
        <ele>790</ele>
        <time>2018-09-02T07:13:14.000Z</time>
      </trkpt>
      <trkpt lat="46.16512" lon="6.39725">
        <ele>792</ele>
        <time>2018-09-02T07:14:14.000Z</time>
      </trkpt>
      <trkpt lat="46.16513" lon="6.39742">
        <ele>793</ele>
        <time>2018-09-02T07:15:14.000Z</time>
      </trkpt>
      <trkpt lat="46.16512" lon="6.39754">
        <ele>793</ele>
        <time>2018-09-02T07:16:14.000Z</time>
      </trkpt>
      <trkpt lat="46.16502" lon="6.39816">
        <ele>791</ele>
        <time>2018-09-02T07:17:14.000Z</time>
      </trkpt>
      <trkpt lat="46.16505" lon="6.39855">
        <ele>792</ele>
        <time>2018-09-02T07:18:14.000Z</time>
      </trkpt>
      <trkpt lat="46.16514" lon="6.39877">
        <ele>793</ele>
        <time>2018-09-02T07:19:14.000Z</time>
      </trkpt>
      <trkpt lat="46.16525" lon="6.39892">
        <ele>794</ele>
        <time>2018-09-02T07:20:14.000Z</time>
      </trkpt>
      <trkpt lat="46.16557" lon="6.39923">
        <ele>798</ele>
        <time>2018-09-02T07:21:14.000Z</time>
      </trkpt>
      <trkpt lat="46.1671" lon="6.40006">
        <ele>814</ele>
        <time>2018-09-02T07:22:14.000Z</time>
      </trkpt>
      <trkpt lat="46.16726" lon="6.40016">
        <ele>816</ele>
        <time>2018-09-02T07:23:14.000Z</time>
      </trkpt>
      <trkpt lat="46.1674" lon="6.40029">
        <ele>817</ele>
        <time>2018-09-02T07:24:14.000Z</time>
      </trkpt>
      <trkpt lat="46.16754" lon="6.40047">
        <ele>819</ele>
        <time>2018-09-02T07:25:14.000Z</time>
      </trkpt>
      <trkpt lat="46.16802" lon="6.40131">
        <ele>827</ele>
        <time>2018-09-02T07:26:14.000Z</time>
      </trkpt>
      <trkpt lat="46.16813" lon="6.40147">
        <ele>828</ele>
        <time>2018-09-02T07:27:14.000Z</time>
      </trkpt>
      <trkpt lat="46.1686" lon="6.40206">
        <ele>834</ele>
        <time>2018-09-02T07:28:14.000Z</time>
      </trkpt>
      <trkpt lat="46.16872" lon="6.40227">
        <ele>835</ele>
        <time>2018-09-02T07:29:14.000Z</time>
      </trkpt>
      <trkpt lat="46.16882" lon="6.40249">
        <ele>836</ele>
        <time>2018-09-02T07:30:14.000Z</time>
      </trkpt>
      <trkpt lat="46.16894" lon="6.40288">
        <ele>837</ele>
        <time>2018-09-02T07:31:14.000Z</time>
      </trkpt>
      <trkpt lat="46.16905" lon="6.40312">
        <ele>839</ele>
        <time>2018-09-02T07:32:14.000Z</time>
      </trkpt>
      <trkpt lat="46.16946" lon="6.40359">
        <ele>847</ele>
        <time>2018-09-02T07:33:14.000Z</time>
      </trkpt>
      <trkpt lat="46.1695" lon="6.40368">
        <ele>847</ele>
        <time>2018-09-02T07:34:14.000Z</time>
      </trkpt>
      <trkpt lat="46.1697" lon="6.40454">
        <ele>849</ele>
        <time>2018-09-02T07:35:14.000Z</time>
      </trkpt>
      <trkpt lat="46.16982" lon="6.40471">
        <ele>850</ele>
        <time>2018-09-02T07:36:14.000Z</time>
      </trkpt>
      <trkpt lat="46.17034" lon="6.40491">
        <ele>854</ele>
        <time>2018-09-02T07:37:14.000Z</time>
      </trkpt>
      <trkpt lat="46.17159" lon="6.40512">
        <ele>869</ele>
        <time>2018-09-02T07:38:14.000Z</time>
      </trkpt>
      <trkpt lat="46.17171" lon="6.40516">
        <ele>871</ele>
        <time>2018-09-02T07:39:14.000Z</time>
      </trkpt>
      <trkpt lat="46.1718" lon="6.40526">
        <ele>872</ele>
        <time>2018-09-02T07:40:14.000Z</time>
      </trkpt>
      <trkpt lat="46.17189" lon="6.40549">
        <ele>873</ele>
        <time>2018-09-02T07:41:14.000Z</time>
      </trkpt>
      <trkpt lat="46.17194" lon="6.40578">
        <ele>875</ele>
        <time>2018-09-02T07:42:14.000Z</time>
      </trkpt>
      <trkpt lat="46.17194" lon="6.40589">
        <ele>874</ele>
        <time>2018-09-02T07:43:14.000Z</time>
      </trkpt>
      <trkpt lat="46.17183" lon="6.40629">
        <ele>870</ele>
        <time>2018-09-02T07:44:14.000Z</time>
      </trkpt>
      <trkpt lat="46.17183" lon="6.40661">
        <ele>869</ele>
        <time>2018-09-02T07:45:14.000Z</time>
      </trkpt>
      <trkpt lat="46.17187" lon="6.40692">
        <ele>872</ele>
        <time>2018-09-02T07:46:14.000Z</time>
      </trkpt>
      <trkpt lat="46.17195" lon="6.4072">
        <ele>876</ele>
        <time>2018-09-02T07:47:14.000Z</time>
      </trkpt>
      <trkpt lat="46.172" lon="6.40747">
        <ele>879</ele>
        <time>2018-09-02T07:48:14.000Z</time>
      </trkpt>
      <trkpt lat="46.17191" lon="6.40838">
        <ele>879</ele>
        <time>2018-09-02T07:49:14.000Z</time>
      </trkpt>
      <trkpt lat="46.17191" lon="6.40865">
        <ele>878</ele>
        <time>2018-09-02T07:50:14.000Z</time>
      </trkpt>
      <trkpt lat="46.17197" lon="6.40898">
        <ele>879</ele>
        <time>2018-09-02T07:51:14.000Z</time>
      </trkpt>
      <trkpt lat="46.17217" lon="6.40952">
        <ele>883</ele>
        <time>2018-09-02T07:52:14.000Z</time>
      </trkpt>
      <trkpt lat="46.17232" lon="6.40977">
        <ele>886</ele>
        <time>2018-09-02T07:53:14.000Z</time>
      </trkpt>
      <trkpt lat="46.17251" lon="6.40993">
        <ele>891</ele>
        <time>2018-09-02T07:54:14.000Z</time>
      </trkpt>
      <trkpt lat="46.17273" lon="6.41015">
        <ele>892</ele>
        <time>2018-09-02T07:55:14.000Z</time>
      </trkpt>
      <trkpt lat="46.17295" lon="6.41027">
        <ele>894</ele>
        <time>2018-09-02T07:56:14.000Z</time>
      </trkpt>
      <trkpt lat="46.17311" lon="6.41034">
        <ele>895</ele>
        <time>2018-09-02T07:57:14.000Z</time>
      </trkpt>
      <trkpt lat="46.17359" lon="6.41039">
        <ele>893</ele>
        <time>2018-09-02T07:58:14.000Z</time>
      </trkpt>
      <trkpt lat="46.1739" lon="6.41037">
        <ele>890</ele>
        <time>2018-09-02T07:59:14.000Z</time>
      </trkpt>
      <trkpt lat="46.1742" lon="6.41026">
        <ele>889</ele>
        <time>2018-09-02T08:00:14.000Z</time>
      </trkpt>
      <trkpt lat="46.17515" lon="6.4095">
        <ele>888</ele>
        <time>2018-09-02T08:01:14.000Z</time>
      </trkpt>
      <trkpt lat="46.17534" lon="6.40937">
        <ele>888</ele>
        <time>2018-09-02T08:02:14.000Z</time>
      </trkpt>
      <trkpt lat="46.17626" lon="6.40896">
        <ele>884</ele>
        <time>2018-09-02T08:03:14.000Z</time>
      </trkpt>
      <trkpt lat="46.17638" lon="6.40894">
        <ele>884</ele>
        <time>2018-09-02T08:04:14.000Z</time>
      </trkpt>
      <trkpt lat="46.1765" lon="6.40896">
        <ele>883</ele>
        <time>2018-09-02T08:05:14.000Z</time>
      </trkpt>
      <trkpt lat="46.17773" lon="6.40939">
        <ele>883</ele>
        <time>2018-09-02T08:06:14.000Z</time>
      </trkpt>
      <trkpt lat="46.17793" lon="6.40952">
        <ele>884</ele>
        <time>2018-09-02T08:07:14.000Z</time>
      </trkpt>
      <trkpt lat="46.17809" lon="6.40972">
        <ele>884</ele>
        <time>2018-09-02T08:08:14.000Z</time>
      </trkpt>
      <trkpt lat="46.17836" lon="6.41028">
        <ele>881</ele>
        <time>2018-09-02T08:09:14.000Z</time>
      </trkpt>
      <trkpt lat="46.1795" lon="6.41152">
        <ele>887</ele>
        <time>2018-09-02T08:10:14.000Z</time>
      </trkpt>
      <trkpt lat="46.17967" lon="6.41169">
        <ele>888</ele>
        <time>2018-09-02T08:11:14.000Z</time>
      </trkpt>
      <trkpt lat="46.18117" lon="6.41229">
        <ele>900</ele>
        <time>2018-09-02T08:12:14.000Z</time>
      </trkpt>
      <trkpt lat="46.1813" lon="6.41239">
        <ele>901</ele>
        <time>2018-09-02T08:13:14.000Z</time>
      </trkpt>
      <trkpt lat="46.18145" lon="6.41257">
        <ele>901</ele>
        <time>2018-09-02T08:14:14.000Z</time>
      </trkpt>
      <trkpt lat="46.18211" lon="6.41393">
        <ele>906</ele>
        <time>2018-09-02T08:15:14.000Z</time>
      </trkpt>
      <trkpt lat="46.18231" lon="6.41451">
        <ele>904</ele>
        <time>2018-09-02T08:16:14.000Z</time>
      </trkpt>
      <trkpt lat="46.18274" lon="6.41528">
        <ele>901</ele>
        <time>2018-09-02T08:17:14.000Z</time>
      </trkpt>
      <trkpt lat="46.18303" lon="6.41563">
        <ele>903</ele>
        <time>2018-09-02T08:18:14.000Z</time>
      </trkpt>
      <trkpt lat="46.18368" lon="6.41608">
        <ele>907</ele>
        <time>2018-09-02T08:19:14.000Z</time>
      </trkpt>
      <trkpt lat="46.18441" lon="6.41653">
        <ele>914</ele>
        <time>2018-09-02T08:20:14.000Z</time>
      </trkpt>
      <trkpt lat="46.185" lon="6.4174">
        <ele>917</ele>
        <time>2018-09-02T08:21:14.000Z</time>
      </trkpt>
      <trkpt lat="46.18523" lon="6.41766">
        <ele>916</ele>
        <time>2018-09-02T08:22:14.000Z</time>
      </trkpt>
      <trkpt lat="46.18536" lon="6.41776">
        <ele>915</ele>
        <time>2018-09-02T08:23:14.000Z</time>
      </trkpt>
      <trkpt lat="46.18549" lon="6.41777">
        <ele>917</ele>
        <time>2018-09-02T08:24:14.000Z</time>
      </trkpt>
      <trkpt lat="46.18588" lon="6.41771">
        <ele>922</ele>
        <time>2018-09-02T08:25:14.000Z</time>
      </trkpt>
      <trkpt lat="46.1861" lon="6.41773">
        <ele>923</ele>
        <time>2018-09-02T08:26:14.000Z</time>
      </trkpt>
      <trkpt lat="46.18628" lon="6.41781">
        <ele>923</ele>
        <time>2018-09-02T08:27:14.000Z</time>
      </trkpt>
      <trkpt lat="46.18717" lon="6.41833">
        <ele>919</ele>
        <time>2018-09-02T08:28:14.000Z</time>
      </trkpt>
      <trkpt lat="46.18799" lon="6.41877">
        <ele>917</ele>
        <time>2018-09-02T08:29:14.000Z</time>
      </trkpt>
      <trkpt lat="46.1886" lon="6.41918">
        <ele>915</ele>
        <time>2018-09-02T08:30:14.000Z</time>
      </trkpt>
      <trkpt lat="46.18911" lon="6.41967">
        <ele>913</ele>
        <time>2018-09-02T08:31:14.000Z</time>
      </trkpt>
      <trkpt lat="46.18939" lon="6.42011">
        <ele>911</ele>
        <time>2018-09-02T08:32:14.000Z</time>
      </trkpt>
      <trkpt lat="46.18956" lon="6.42049">
        <ele>910</ele>
        <time>2018-09-02T08:33:14.000Z</time>
      </trkpt>
      <trkpt lat="46.1897" lon="6.42115">
        <ele>908</ele>
        <time>2018-09-02T08:34:14.000Z</time>
      </trkpt>
      <trkpt lat="46.18979" lon="6.42143">
        <ele>907</ele>
        <time>2018-09-02T08:35:14.000Z</time>
      </trkpt>
      <trkpt lat="46.18993" lon="6.42172">
        <ele>907</ele>
        <time>2018-09-02T08:36:14.000Z</time>
      </trkpt>
      <trkpt lat="46.19009" lon="6.42195">
        <ele>906</ele>
        <time>2018-09-02T08:37:14.000Z</time>
      </trkpt>
      <trkpt lat="46.19099" lon="6.42296">
        <ele>910</ele>
        <time>2018-09-02T08:38:14.000Z</time>
      </trkpt>
      <trkpt lat="46.19147" lon="6.42357">
        <ele>911</ele>
        <time>2018-09-02T08:39:14.000Z</time>
      </trkpt>
      <trkpt lat="46.19225" lon="6.42473">
        <ele>914</ele>
        <time>2018-09-02T08:40:14.000Z</time>
      </trkpt>
      <trkpt lat="46.19242" lon="6.42493">
        <ele>914</ele>
        <time>2018-09-02T08:41:14.000Z</time>
      </trkpt>
      <trkpt lat="46.19322" lon="6.42568">
        <ele>922</ele>
        <time>2018-09-02T08:42:14.000Z</time>
      </trkpt>
      <trkpt lat="46.19344" lon="6.42598">
        <ele>923</ele>
        <time>2018-09-02T08:43:14.000Z</time>
      </trkpt>
      <trkpt lat="46.19365" lon="6.42635">
        <ele>923</ele>
        <time>2018-09-02T08:44:14.000Z</time>
      </trkpt>
      <trkpt lat="46.1939" lon="6.42689">
        <ele>922</ele>
        <time>2018-09-02T08:45:14.000Z</time>
      </trkpt>
      <trkpt lat="46.19431" lon="6.42787">
        <ele>923</ele>
        <time>2018-09-02T08:46:14.000Z</time>
      </trkpt>
      <trkpt lat="46.1947" lon="6.42898">
        <ele>929</ele>
        <time>2018-09-02T08:47:14.000Z</time>
      </trkpt>
      <trkpt lat="46.19469" lon="6.42937">
        <ele>928</ele>
        <time>2018-09-02T08:48:14.000Z</time>
      </trkpt>
      <trkpt lat="46.19466" lon="6.42952">
        <ele>928</ele>
        <time>2018-09-02T08:49:14.000Z</time>
      </trkpt>
      <trkpt lat="46.19462" lon="6.42957">
        <ele>928</ele>
        <time>2018-09-02T08:50:14.000Z</time>
      </trkpt>
      <trkpt lat="46.1949" lon="6.42961">
        <ele>930</ele>
        <time>2018-09-02T08:51:14.000Z</time>
      </trkpt>
      <trkpt lat="46.19562" lon="6.42943">
        <ele>938</ele>
        <time>2018-09-02T08:52:14.000Z</time>
      </trkpt>
      <trkpt lat="46.19592" lon="6.42913">
        <ele>941</ele>
        <time>2018-09-02T08:53:14.000Z</time>
      </trkpt>
      <trkpt lat="46.1961" lon="6.42901">
        <ele>944</ele>
        <time>2018-09-02T08:54:14.000Z</time>
      </trkpt>
      <trkpt lat="46.1962" lon="6.42901">
        <ele>946</ele>
        <time>2018-09-02T08:55:14.000Z</time>
      </trkpt>
      <trkpt lat="46.1963" lon="6.42896">
        <ele>947</ele>
        <time>2018-09-02T08:56:14.000Z</time>
      </trkpt>
      <trkpt lat="46.19648" lon="6.42876">
        <ele>950</ele>
        <time>2018-09-02T08:57:14.000Z</time>
      </trkpt>
      <trkpt lat="46.19669" lon="6.42863">
        <ele>952</ele>
        <time>2018-09-02T08:58:14.000Z</time>
      </trkpt>
      <trkpt lat="46.19686" lon="6.42847">
        <ele>956</ele>
        <time>2018-09-02T08:59:14.000Z</time>
      </trkpt>
      <trkpt lat="46.19748" lon="6.4283">
        <ele>967</ele>
        <time>2018-09-02T09:00:14.000Z</time>
      </trkpt>
      <trkpt lat="46.19787" lon="6.42812">
        <ele>969</ele>
        <time>2018-09-02T09:01:14.000Z</time>
      </trkpt>
      <trkpt lat="46.19816" lon="6.42804">
        <ele>971</ele>
        <time>2018-09-02T09:02:14.000Z</time>
      </trkpt>
      <trkpt lat="46.19856" lon="6.42799">
        <ele>969</ele>
        <time>2018-09-02T09:03:14.000Z</time>
      </trkpt>
      <trkpt lat="46.19884" lon="6.42802">
        <ele>966</ele>
        <time>2018-09-02T09:04:14.000Z</time>
      </trkpt>
      <trkpt lat="46.19903" lon="6.42807">
        <ele>964</ele>
        <time>2018-09-02T09:05:14.000Z</time>
      </trkpt>
      <trkpt lat="46.19903" lon="6.42807">
        <ele>964</ele>
        <time>2018-09-02T09:06:14.000Z</time>
      </trkpt>
      <trkpt lat="46.19927" lon="6.42815">
        <ele>962</ele>
        <time>2018-09-02T09:07:14.000Z</time>
      </trkpt>
      <trkpt lat="46.19984" lon="6.42839">
        <ele>959</ele>
        <time>2018-09-02T09:08:14.000Z</time>
      </trkpt>
      <trkpt lat="46.20003" lon="6.42839">
        <ele>958</ele>
        <time>2018-09-02T09:09:14.000Z</time>
      </trkpt>
      <trkpt lat="46.20032" lon="6.42831">
        <ele>958</ele>
        <time>2018-09-02T09:10:14.000Z</time>
      </trkpt>
      <trkpt lat="46.20081" lon="6.4281">
        <ele>958</ele>
        <time>2018-09-02T09:11:14.000Z</time>
      </trkpt>
      <trkpt lat="46.20112" lon="6.42805">
        <ele>956</ele>
        <time>2018-09-02T09:12:14.000Z</time>
      </trkpt>
      <trkpt lat="46.20136" lon="6.42806">
        <ele>954</ele>
        <time>2018-09-02T09:13:14.000Z</time>
      </trkpt>
      <trkpt lat="46.20158" lon="6.42813">
        <ele>953</ele>
        <time>2018-09-02T09:14:14.000Z</time>
      </trkpt>
      <trkpt lat="46.20186" lon="6.42824">
        <ele>951</ele>
        <time>2018-09-02T09:15:14.000Z</time>
      </trkpt>
      <trkpt lat="46.20242" lon="6.4286">
        <ele>946</ele>
        <time>2018-09-02T09:16:14.000Z</time>
      </trkpt>
      <trkpt lat="46.2026" lon="6.42883">
        <ele>945</ele>
        <time>2018-09-02T09:17:14.000Z</time>
      </trkpt>
      <trkpt lat="46.20281" lon="6.42921">
        <ele>942</ele>
        <time>2018-09-02T09:18:14.000Z</time>
      </trkpt>
      <trkpt lat="46.20326" lon="6.42991">
        <ele>942</ele>
        <time>2018-09-02T09:19:14.000Z</time>
      </trkpt>
      <trkpt lat="46.20342" lon="6.4301">
        <ele>941</ele>
        <time>2018-09-02T09:20:14.000Z</time>
      </trkpt>
      <trkpt lat="46.20411" lon="6.4307">
        <ele>927</ele>
        <time>2018-09-02T09:21:14.000Z</time>
      </trkpt>
      <trkpt lat="46.2044" lon="6.4309">
        <ele>923</ele>
        <time>2018-09-02T09:22:14.000Z</time>
      </trkpt>
      <trkpt lat="46.20469" lon="6.43107">
        <ele>922</ele>
        <time>2018-09-02T09:23:14.000Z</time>
      </trkpt>
      <trkpt lat="46.20491" lon="6.43113">
        <ele>919</ele>
        <time>2018-09-02T09:24:14.000Z</time>
      </trkpt>
      <trkpt lat="46.20503" lon="6.43119">
        <ele>918</ele>
        <time>2018-09-02T09:25:14.000Z</time>
      </trkpt>
      <trkpt lat="46.20619" lon="6.43206">
        <ele>904</ele>
        <time>2018-09-02T09:26:14.000Z</time>
      </trkpt>
      <trkpt lat="46.20637" lon="6.43222">
        <ele>902</ele>
        <time>2018-09-02T09:27:14.000Z</time>
      </trkpt>
      <trkpt lat="46.20653" lon="6.43243">
        <ele>901</ele>
        <time>2018-09-02T09:28:14.000Z</time>
      </trkpt>
      <trkpt lat="46.20734" lon="6.43371">
        <ele>893</ele>
        <time>2018-09-02T09:29:14.000Z</time>
      </trkpt>
      <trkpt lat="46.20746" lon="6.43392">
        <ele>891</ele>
        <time>2018-09-02T09:30:14.000Z</time>
      </trkpt>
      <trkpt lat="46.20753" lon="6.43422">
        <ele>890</ele>
        <time>2018-09-02T09:31:14.000Z</time>
      </trkpt>
      <trkpt lat="46.2076" lon="6.43477">
        <ele>888</ele>
        <time>2018-09-02T09:32:14.000Z</time>
      </trkpt>
      <trkpt lat="46.20765" lon="6.43507">
        <ele>888</ele>
        <time>2018-09-02T09:33:14.000Z</time>
      </trkpt>
      <trkpt lat="46.20787" lon="6.43569">
        <ele>885</ele>
        <time>2018-09-02T09:34:14.000Z</time>
      </trkpt>
      <trkpt lat="46.20802" lon="6.43633">
        <ele>884</ele>
        <time>2018-09-02T09:35:14.000Z</time>
      </trkpt>
      <trkpt lat="46.20804" lon="6.43656">
        <ele>884</ele>
        <time>2018-09-02T09:36:14.000Z</time>
      </trkpt>
      <trkpt lat="46.20802" lon="6.43677">
        <ele>884</ele>
        <time>2018-09-02T09:37:14.000Z</time>
      </trkpt>
      <trkpt lat="46.20788" lon="6.43716">
        <ele>886</ele>
        <time>2018-09-02T09:38:14.000Z</time>
      </trkpt>
      <trkpt lat="46.20785" lon="6.43736">
        <ele>886</ele>
        <time>2018-09-02T09:39:14.000Z</time>
      </trkpt>
      <trkpt lat="46.20787" lon="6.43757">
        <ele>886</ele>
        <time>2018-09-02T09:40:14.000Z</time>
      </trkpt>
      <trkpt lat="46.2079" lon="6.43768">
        <ele>885</ele>
        <time>2018-09-02T09:41:14.000Z</time>
      </trkpt>
      <trkpt lat="46.20796" lon="6.43777">
        <ele>884</ele>
        <time>2018-09-02T09:42:14.000Z</time>
      </trkpt>
      <trkpt lat="46.20805" lon="6.43784">
        <ele>883</ele>
        <time>2018-09-02T09:43:14.000Z</time>
      </trkpt>
      <trkpt lat="46.20848" lon="6.43799">
        <ele>877</ele>
        <time>2018-09-02T09:44:14.000Z</time>
      </trkpt>
      <trkpt lat="46.20878" lon="6.43817">
        <ele>873</ele>
        <time>2018-09-02T09:45:14.000Z</time>
      </trkpt>
      <trkpt lat="46.20899" lon="6.43827">
        <ele>870</ele>
        <time>2018-09-02T09:46:14.000Z</time>
      </trkpt>
      <trkpt lat="46.20932" lon="6.43837">
        <ele>867</ele>
        <time>2018-09-02T09:47:14.000Z</time>
      </trkpt>
      <trkpt lat="46.20948" lon="6.43834">
        <ele>866</ele>
        <time>2018-09-02T09:48:14.000Z</time>
      </trkpt>
      <trkpt lat="46.20962" lon="6.43822">
        <ele>865</ele>
        <time>2018-09-02T09:49:14.000Z</time>
      </trkpt>
      <trkpt lat="46.21004" lon="6.43766">
        <ele>861</ele>
        <time>2018-09-02T09:50:14.000Z</time>
      </trkpt>
      <trkpt lat="46.21013" lon="6.43756">
        <ele>859</ele>
        <time>2018-09-02T09:51:14.000Z</time>
      </trkpt>
      <trkpt lat="46.21027" lon="6.43749">
        <ele>856</ele>
        <time>2018-09-02T09:52:14.000Z</time>
      </trkpt>
      <trkpt lat="46.21045" lon="6.4375">
        <ele>853</ele>
        <time>2018-09-02T09:53:14.000Z</time>
      </trkpt>
      <trkpt lat="46.21053" lon="6.43753">
        <ele>852</ele>
        <time>2018-09-02T09:54:14.000Z</time>
      </trkpt>
      <trkpt lat="46.21062" lon="6.4376">
        <ele>851</ele>
        <time>2018-09-02T09:55:14.000Z</time>
      </trkpt>
      <trkpt lat="46.21091" lon="6.43808">
        <ele>848</ele>
        <time>2018-09-02T09:56:14.000Z</time>
      </trkpt>
      <trkpt lat="46.21097" lon="6.43823">
        <ele>847</ele>
        <time>2018-09-02T09:57:14.000Z</time>
      </trkpt>
      <trkpt lat="46.211" lon="6.4384">
        <ele>847</ele>
        <time>2018-09-02T09:58:14.000Z</time>
      </trkpt>
      <trkpt lat="46.21105" lon="6.43904">
        <ele>846</ele>
        <time>2018-09-02T09:59:14.000Z</time>
      </trkpt>
      <trkpt lat="46.2111" lon="6.43924">
        <ele>846</ele>
        <time>2018-09-02T10:00:14.000Z</time>
      </trkpt>
      <trkpt lat="46.2113" lon="6.43964">
        <ele>842</ele>
        <time>2018-09-02T10:01:14.000Z</time>
      </trkpt>
      <trkpt lat="46.21137" lon="6.44008">
        <ele>843</ele>
        <time>2018-09-02T10:02:14.000Z</time>
      </trkpt>
      <trkpt lat="46.21143" lon="6.44029">
        <ele>843</ele>
        <time>2018-09-02T10:03:14.000Z</time>
      </trkpt>
      <trkpt lat="46.21153" lon="6.44042">
        <ele>842</ele>
        <time>2018-09-02T10:04:14.000Z</time>
      </trkpt>
      <trkpt lat="46.21212" lon="6.44088">
        <ele>836</ele>
        <time>2018-09-02T10:05:14.000Z</time>
      </trkpt>
      <trkpt lat="46.21235" lon="6.441">
        <ele>834</ele>
        <time>2018-09-02T10:06:14.000Z</time>
      </trkpt>
      <trkpt lat="46.21257" lon="6.44106">
        <ele>832</ele>
        <time>2018-09-02T10:07:14.000Z</time>
      </trkpt>
      <trkpt lat="46.21289" lon="6.44109">
        <ele>831</ele>
        <time>2018-09-02T10:08:14.000Z</time>
      </trkpt>
      <trkpt lat="46.21312" lon="6.44101">
        <ele>828</ele>
        <time>2018-09-02T10:09:14.000Z</time>
      </trkpt>
      <trkpt lat="46.21323" lon="6.44087">
        <ele>826</ele>
        <time>2018-09-02T10:10:14.000Z</time>
      </trkpt>
      <trkpt lat="46.21338" lon="6.44057">
        <ele>823</ele>
        <time>2018-09-02T10:11:14.000Z</time>
      </trkpt>
      <trkpt lat="46.21349" lon="6.44048">
        <ele>822</ele>
        <time>2018-09-02T10:12:14.000Z</time>
      </trkpt>
      <trkpt lat="46.21391" lon="6.44022">
        <ele>821</ele>
        <time>2018-09-02T10:13:14.000Z</time>
      </trkpt>
      <trkpt lat="46.214" lon="6.44007">
        <ele>820</ele>
        <time>2018-09-02T10:14:14.000Z</time>
      </trkpt>
      <trkpt lat="46.21402" lon="6.43988">
        <ele>819</ele>
        <time>2018-09-02T10:15:14.000Z</time>
      </trkpt>
      <trkpt lat="46.214" lon="6.43973">
        <ele>817</ele>
        <time>2018-09-02T10:16:14.000Z</time>
      </trkpt>
      <trkpt lat="46.21391" lon="6.4396">
        <ele>816</ele>
        <time>2018-09-02T10:17:14.000Z</time>
      </trkpt>
      <trkpt lat="46.21378" lon="6.43947">
        <ele>815</ele>
        <time>2018-09-02T10:18:14.000Z</time>
      </trkpt>
      <trkpt lat="46.21365" lon="6.43932">
        <ele>813</ele>
        <time>2018-09-02T10:19:14.000Z</time>
      </trkpt>
      <trkpt lat="46.21362" lon="6.43914">
        <ele>812</ele>
        <time>2018-09-02T10:20:14.000Z</time>
      </trkpt>
      <trkpt lat="46.21364" lon="6.43895">
        <ele>810</ele>
        <time>2018-09-02T10:21:14.000Z</time>
      </trkpt>
      <trkpt lat="46.21371" lon="6.43881">
        <ele>809</ele>
        <time>2018-09-02T10:22:14.000Z</time>
      </trkpt>
      <trkpt lat="46.21383" lon="6.43874">
        <ele>808</ele>
        <time>2018-09-02T10:23:14.000Z</time>
      </trkpt>
      <trkpt lat="46.21416" lon="6.43871">
        <ele>807</ele>
        <time>2018-09-02T10:24:14.000Z</time>
      </trkpt>
      <trkpt lat="46.21441" lon="6.43873">
        <ele>806</ele>
        <time>2018-09-02T10:25:14.000Z</time>
      </trkpt>
      <trkpt lat="46.21483" lon="6.43862">
        <ele>802</ele>
        <time>2018-09-02T10:26:14.000Z</time>
      </trkpt>
      <trkpt lat="46.21534" lon="6.43858">
        <ele>801</ele>
        <time>2018-09-02T10:27:14.000Z</time>
      </trkpt>
      <trkpt lat="46.21544" lon="6.43855">
        <ele>800</ele>
        <time>2018-09-02T10:28:14.000Z</time>
      </trkpt>
      <trkpt lat="46.21553" lon="6.43842">
        <ele>799</ele>
        <time>2018-09-02T10:29:14.000Z</time>
      </trkpt>
      <trkpt lat="46.2157" lon="6.43855">
        <ele>800</ele>
        <time>2018-09-02T10:30:14.000Z</time>
      </trkpt>
      <trkpt lat="46.21598" lon="6.43869">
        <ele>802</ele>
        <time>2018-09-02T10:31:14.000Z</time>
      </trkpt>
      <trkpt lat="46.21596" lon="6.43881">
        <ele>803</ele>
        <time>2018-09-02T10:32:14.000Z</time>
      </trkpt>
      <trkpt lat="46.21597" lon="6.4389">
        <ele>804</ele>
        <time>2018-09-02T10:33:14.000Z</time>
      </trkpt>
      <trkpt lat="46.21606" lon="6.43922">
        <ele>807</ele>
        <time>2018-09-02T10:34:14.000Z</time>
      </trkpt>
      <trkpt lat="46.21616" lon="6.43936">
        <ele>808</ele>
        <time>2018-09-02T10:35:14.000Z</time>
      </trkpt>
      <trkpt lat="46.21622" lon="6.43952">
        <ele>810</ele>
        <time>2018-09-02T10:36:14.000Z</time>
      </trkpt>
      <trkpt lat="46.21631" lon="6.43983">
        <ele>813</ele>
        <time>2018-09-02T10:37:14.000Z</time>
      </trkpt>
      <trkpt lat="46.21635" lon="6.44037">
        <ele>818</ele>
        <time>2018-09-02T10:38:14.000Z</time>
      </trkpt>
      <trkpt lat="46.21638" lon="6.44063">
        <ele>820</ele>
        <time>2018-09-02T10:39:14.000Z</time>
      </trkpt>
      <trkpt lat="46.21645" lon="6.44088">
        <ele>821</ele>
        <time>2018-09-02T10:40:14.000Z</time>
      </trkpt>
      <trkpt lat="46.21655" lon="6.44107">
        <ele>821</ele>
        <time>2018-09-02T10:41:14.000Z</time>
      </trkpt>
      <trkpt lat="46.21668" lon="6.44122">
        <ele>822</ele>
        <time>2018-09-02T10:42:14.000Z</time>
      </trkpt>
      <trkpt lat="46.21691" lon="6.44133">
        <ele>822</ele>
        <time>2018-09-02T10:43:14.000Z</time>
      </trkpt>
      <trkpt lat="46.21704" lon="6.44137">
        <ele>823</ele>
        <time>2018-09-02T10:44:14.000Z</time>
      </trkpt>
      <trkpt lat="46.21701" lon="6.44153">
        <ele>824</ele>
        <time>2018-09-02T10:45:14.000Z</time>
      </trkpt>
      <trkpt lat="46.217" lon="6.44173">
        <ele>826</ele>
        <time>2018-09-02T10:46:14.000Z</time>
      </trkpt>
      <trkpt lat="46.21711" lon="6.44243">
        <ele>829</ele>
        <time>2018-09-02T10:47:14.000Z</time>
      </trkpt>
      <trkpt lat="46.217" lon="6.44264">
        <ele>831</ele>
        <time>2018-09-02T10:48:14.000Z</time>
      </trkpt>
      <trkpt lat="46.21699" lon="6.44272">
        <ele>831</ele>
        <time>2018-09-02T10:49:14.000Z</time>
      </trkpt>
      <trkpt lat="46.21701" lon="6.44281">
        <ele>832</ele>
        <time>2018-09-02T10:50:14.000Z</time>
      </trkpt>
      <trkpt lat="46.21703" lon="6.44317">
        <ele>835</ele>
        <time>2018-09-02T10:51:14.000Z</time>
      </trkpt>
      <trkpt lat="46.21703" lon="6.44352">
        <ele>838</ele>
        <time>2018-09-02T10:52:14.000Z</time>
      </trkpt>
      <trkpt lat="46.21701" lon="6.44369">
        <ele>840</ele>
        <time>2018-09-02T10:53:14.000Z</time>
      </trkpt>
      <trkpt lat="46.21698" lon="6.4442">
        <ele>846</ele>
        <time>2018-09-02T10:54:14.000Z</time>
      </trkpt>
      <trkpt lat="46.21695" lon="6.44439">
        <ele>849</ele>
        <time>2018-09-02T10:55:14.000Z</time>
      </trkpt>
      <trkpt lat="46.2168" lon="6.44471">
        <ele>853</ele>
        <time>2018-09-02T10:56:14.000Z</time>
      </trkpt>
      <trkpt lat="46.21663" lon="6.44512">
        <ele>857</ele>
        <time>2018-09-02T10:57:14.000Z</time>
      </trkpt>
      <trkpt lat="46.21653" lon="6.44529">
        <ele>858</ele>
        <time>2018-09-02T10:58:14.000Z</time>
      </trkpt>
      <trkpt lat="46.21642" lon="6.44541">
        <ele>859</ele>
        <time>2018-09-02T10:59:14.000Z</time>
      </trkpt>
      <trkpt lat="46.21629" lon="6.44548">
        <ele>859</ele>
        <time>2018-09-02T11:00:14.000Z</time>
      </trkpt>
      <trkpt lat="46.21617" lon="6.44559">
        <ele>859</ele>
        <time>2018-09-02T11:01:14.000Z</time>
      </trkpt>
      <trkpt lat="46.21602" lon="6.44585">
        <ele>862</ele>
        <time>2018-09-02T11:02:14.000Z</time>
      </trkpt>
      <trkpt lat="46.21643" lon="6.44601">
        <ele>864</ele>
        <time>2018-09-02T11:03:14.000Z</time>
      </trkpt>
      <trkpt lat="46.21655" lon="6.44612">
        <ele>866</ele>
        <time>2018-09-02T11:04:14.000Z</time>
      </trkpt>
      <trkpt lat="46.21658" lon="6.44621">
        <ele>867</ele>
        <time>2018-09-02T11:05:14.000Z</time>
      </trkpt>
      <trkpt lat="46.21658" lon="6.4463">
        <ele>868</ele>
        <time>2018-09-02T11:06:14.000Z</time>
      </trkpt>
      <trkpt lat="46.21657" lon="6.4464">
        <ele>869</ele>
        <time>2018-09-02T11:07:14.000Z</time>
      </trkpt>
      <trkpt lat="46.21654" lon="6.44647">
        <ele>870</ele>
        <time>2018-09-02T11:08:14.000Z</time>
      </trkpt>
      <trkpt lat="46.2165" lon="6.4465">
        <ele>870</ele>
        <time>2018-09-02T11:09:14.000Z</time>
      </trkpt>
      <trkpt lat="46.2164" lon="6.44656">
        <ele>871</ele>
        <time>2018-09-02T11:10:14.000Z</time>
      </trkpt>
      <trkpt lat="46.21611" lon="6.44666">
        <ele>870</ele>
        <time>2018-09-02T11:11:14.000Z</time>
      </trkpt>
      <trkpt lat="46.21553" lon="6.44723">
        <ele>876</ele>
        <time>2018-09-02T11:12:14.000Z</time>
      </trkpt>
      <trkpt lat="46.21553" lon="6.44723">
        <ele>876</ele>
        <time>2018-09-02T11:13:14.000Z</time>
      </trkpt>
      <trkpt lat="46.21522" lon="6.44747">
        <ele>879</ele>
        <time>2018-09-02T11:14:14.000Z</time>
      </trkpt>
      <trkpt lat="46.21496" lon="6.4476">
        <ele>882</ele>
        <time>2018-09-02T11:15:14.000Z</time>
      </trkpt>
      <trkpt lat="46.21479" lon="6.44764">
        <ele>884</ele>
        <time>2018-09-02T11:16:14.000Z</time>
      </trkpt>
      <trkpt lat="46.21445" lon="6.44765">
        <ele>886</ele>
        <time>2018-09-02T11:17:14.000Z</time>
      </trkpt>
      <trkpt lat="46.21403" lon="6.44757">
        <ele>888</ele>
        <time>2018-09-02T11:18:14.000Z</time>
      </trkpt>
      <trkpt lat="46.2139" lon="6.44757">
        <ele>890</ele>
        <time>2018-09-02T11:19:14.000Z</time>
      </trkpt>
      <trkpt lat="46.21371" lon="6.44764">
        <ele>893</ele>
        <time>2018-09-02T11:20:14.000Z</time>
      </trkpt>
      <trkpt lat="46.21379" lon="6.44789">
        <ele>896</ele>
        <time>2018-09-02T11:21:14.000Z</time>
      </trkpt>
      <trkpt lat="46.21384" lon="6.44796">
        <ele>897</ele>
        <time>2018-09-02T11:22:14.000Z</time>
      </trkpt>
      <trkpt lat="46.21392" lon="6.44802">
        <ele>898</ele>
        <time>2018-09-02T11:23:14.000Z</time>
      </trkpt>
      <trkpt lat="46.21449" lon="6.44822">
        <ele>897</ele>
        <time>2018-09-02T11:24:14.000Z</time>
      </trkpt>
      <trkpt lat="46.21541" lon="6.44868">
        <ele>900</ele>
        <time>2018-09-02T11:25:14.000Z</time>
      </trkpt>
      <trkpt lat="46.21564" lon="6.44883">
        <ele>901</ele>
        <time>2018-09-02T11:26:14.000Z</time>
      </trkpt>
      <trkpt lat="46.21598" lon="6.44913">
        <ele>904</ele>
        <time>2018-09-02T11:27:14.000Z</time>
      </trkpt>
      <trkpt lat="46.21654" lon="6.44994">
        <ele>914</ele>
        <time>2018-09-02T11:28:14.000Z</time>
      </trkpt>
      <trkpt lat="46.21672" lon="6.45017">
        <ele>917</ele>
        <time>2018-09-02T11:29:14.000Z</time>
      </trkpt>
      <trkpt lat="46.21721" lon="6.45056">
        <ele>924</ele>
        <time>2018-09-02T11:30:14.000Z</time>
      </trkpt>
      <trkpt lat="46.21739" lon="6.45064">
        <ele>925</ele>
        <time>2018-09-02T11:31:14.000Z</time>
      </trkpt>
      <trkpt lat="46.21854" lon="6.45081">
        <ele>933</ele>
        <time>2018-09-02T11:32:14.000Z</time>
      </trkpt>
      <trkpt lat="46.21863" lon="6.4508">
        <ele>933</ele>
        <time>2018-09-02T11:33:14.000Z</time>
      </trkpt>
      <trkpt lat="46.21927" lon="6.45061">
        <ele>935</ele>
        <time>2018-09-02T11:34:14.000Z</time>
      </trkpt>
      <trkpt lat="46.21936" lon="6.45061">
        <ele>934</ele>
        <time>2018-09-02T11:35:14.000Z</time>
      </trkpt>
      <trkpt lat="46.21947" lon="6.45069">
        <ele>934</ele>
        <time>2018-09-02T11:36:14.000Z</time>
      </trkpt>
      <trkpt lat="46.21971" lon="6.45108">
        <ele>936</ele>
        <time>2018-09-02T11:37:14.000Z</time>
      </trkpt>
      <trkpt lat="46.22034" lon="6.45183">
        <ele>943</ele>
        <time>2018-09-02T11:38:14.000Z</time>
      </trkpt>
      <trkpt lat="46.22082" lon="6.45232">
        <ele>946</ele>
        <time>2018-09-02T11:39:14.000Z</time>
      </trkpt>
      <trkpt lat="46.22103" lon="6.45268">
        <ele>948</ele>
        <time>2018-09-02T11:40:14.000Z</time>
      </trkpt>
      <trkpt lat="46.22117" lon="6.45313">
        <ele>953</ele>
        <time>2018-09-02T11:41:14.000Z</time>
      </trkpt>
      <trkpt lat="46.22125" lon="6.45328">
        <ele>954</ele>
        <time>2018-09-02T11:42:14.000Z</time>
      </trkpt>
      <trkpt lat="46.22136" lon="6.45343">
        <ele>956</ele>
        <time>2018-09-02T11:43:14.000Z</time>
      </trkpt>
      <trkpt lat="46.22147" lon="6.45364">
        <ele>958</ele>
        <time>2018-09-02T11:44:14.000Z</time>
      </trkpt>
      <trkpt lat="46.22165" lon="6.45407">
        <ele>962</ele>
        <time>2018-09-02T11:45:14.000Z</time>
      </trkpt>
      <trkpt lat="46.22174" lon="6.45482">
        <ele>968</ele>
        <time>2018-09-02T11:46:14.000Z</time>
      </trkpt>
      <trkpt lat="46.22179" lon="6.45502">
        <ele>969</ele>
        <time>2018-09-02T11:47:14.000Z</time>
      </trkpt>
      <trkpt lat="46.22229" lon="6.45567">
        <ele>971</ele>
        <time>2018-09-02T11:48:14.000Z</time>
      </trkpt>
      <trkpt lat="46.22233" lon="6.45575">
        <ele>972</ele>
        <time>2018-09-02T11:49:14.000Z</time>
      </trkpt>
      <trkpt lat="46.2228" lon="6.45593">
        <ele>972</ele>
        <time>2018-09-02T11:50:14.000Z</time>
      </trkpt>
      <trkpt lat="46.22361" lon="6.45635">
        <ele>976</ele>
        <time>2018-09-02T11:51:14.000Z</time>
      </trkpt>
      <trkpt lat="46.22395" lon="6.45659">
        <ele>975</ele>
        <time>2018-09-02T11:52:14.000Z</time>
      </trkpt>
      <trkpt lat="46.22465" lon="6.45713">
        <ele>974</ele>
        <time>2018-09-02T11:53:14.000Z</time>
      </trkpt>
      <trkpt lat="46.22591" lon="6.45835">
        <ele>972</ele>
        <time>2018-09-02T11:54:14.000Z</time>
      </trkpt>
      <trkpt lat="46.22603" lon="6.45843">
        <ele>973</ele>
        <time>2018-09-02T11:55:14.000Z</time>
      </trkpt>
      <trkpt lat="46.22614" lon="6.45845">
        <ele>973</ele>
        <time>2018-09-02T11:56:14.000Z</time>
      </trkpt>
      <trkpt lat="46.22658" lon="6.45843">
        <ele>970</ele>
        <time>2018-09-02T11:57:14.000Z</time>
      </trkpt>
      <trkpt lat="46.22695" lon="6.4586">
        <ele>969</ele>
        <time>2018-09-02T11:58:14.000Z</time>
      </trkpt>
      <trkpt lat="46.227" lon="6.4586">
        <ele>969</ele>
        <time>2018-09-02T11:59:14.000Z</time>
      </trkpt>
      <trkpt lat="46.22704" lon="6.45858">
        <ele>968</ele>
        <time>2018-09-02T12:00:14.000Z</time>
      </trkpt>
      <trkpt lat="46.22707" lon="6.45849">
        <ele>967</ele>
        <time>2018-09-02T12:01:14.000Z</time>
      </trkpt>
      <trkpt lat="46.22708" lon="6.45843">
        <ele>966</ele>
        <time>2018-09-02T12:02:14.000Z</time>
      </trkpt>
      <trkpt lat="46.22729" lon="6.45841">
        <ele>964</ele>
        <time>2018-09-02T12:03:14.000Z</time>
      </trkpt>
      <trkpt lat="46.22734" lon="6.45837">
        <ele>963</ele>
        <time>2018-09-02T12:04:14.000Z</time>
      </trkpt>
      <trkpt lat="46.22738" lon="6.45829">
        <ele>962</ele>
        <time>2018-09-02T12:05:14.000Z</time>
      </trkpt>
      <trkpt lat="46.22745" lon="6.45822">
        <ele>960</ele>
        <time>2018-09-02T12:06:14.000Z</time>
      </trkpt>
      <trkpt lat="46.22751" lon="6.45819">
        <ele>959</ele>
        <time>2018-09-02T12:07:14.000Z</time>
      </trkpt>
      <trkpt lat="46.22768" lon="6.45818">
        <ele>955</ele>
        <time>2018-09-02T12:08:14.000Z</time>
      </trkpt>
      <trkpt lat="46.22789" lon="6.45845">
        <ele>954</ele>
        <time>2018-09-02T12:09:14.000Z</time>
      </trkpt>
      <trkpt lat="46.22808" lon="6.45885">
        <ele>957</ele>
        <time>2018-09-02T12:10:14.000Z</time>
      </trkpt>
      <trkpt lat="46.2282" lon="6.45898">
        <ele>957</ele>
        <time>2018-09-02T12:11:14.000Z</time>
      </trkpt>
      <trkpt lat="46.22928" lon="6.45975">
        <ele>966</ele>
        <time>2018-09-02T12:12:14.000Z</time>
      </trkpt>
      <trkpt lat="46.22932" lon="6.45982">
        <ele>968</ele>
        <time>2018-09-02T12:13:14.000Z</time>
      </trkpt>
      <trkpt lat="46.22955" lon="6.46041">
        <ele>977</ele>
        <time>2018-09-02T12:14:14.000Z</time>
      </trkpt>
      <trkpt lat="46.22955" lon="6.46041">
        <ele>977</ele>
        <time>2018-09-02T12:15:14.000Z</time>
      </trkpt>
      <trkpt lat="46.22958" lon="6.46047">
        <ele>977</ele>
        <time>2018-09-02T12:16:14.000Z</time>
      </trkpt>
      <trkpt lat="46.22968" lon="6.46056">
        <ele>977</ele>
        <time>2018-09-02T12:17:14.000Z</time>
      </trkpt>
      <trkpt lat="46.23023" lon="6.46053">
        <ele>964</ele>
        <time>2018-09-02T12:18:14.000Z</time>
      </trkpt>
      <trkpt lat="46.23035" lon="6.46056">
        <ele>962</ele>
        <time>2018-09-02T12:19:14.000Z</time>
      </trkpt>
      <trkpt lat="46.23048" lon="6.46066">
        <ele>961</ele>
        <time>2018-09-02T12:20:14.000Z</time>
      </trkpt>
      <trkpt lat="46.23187" lon="6.46235">
        <ele>958</ele>
        <time>2018-09-02T12:21:14.000Z</time>
      </trkpt>
      <trkpt lat="46.232" lon="6.46267">
        <ele>960</ele>
        <time>2018-09-02T12:22:14.000Z</time>
      </trkpt>
      <trkpt lat="46.23259" lon="6.46361">
        <ele>958</ele>
        <time>2018-09-02T12:23:14.000Z</time>
      </trkpt>
      <trkpt lat="46.23342" lon="6.46508">
        <ele>961</ele>
        <time>2018-09-02T12:24:14.000Z</time>
      </trkpt>
      <trkpt lat="46.23354" lon="6.46527">
        <ele>963</ele>
        <time>2018-09-02T12:25:14.000Z</time>
      </trkpt>
      <trkpt lat="46.2339" lon="6.46568">
        <ele>964</ele>
        <time>2018-09-02T12:26:14.000Z</time>
      </trkpt>
      <trkpt lat="46.234" lon="6.46576">
        <ele>964</ele>
        <time>2018-09-02T12:27:14.000Z</time>
      </trkpt>
      <trkpt lat="46.23418" lon="6.46584">
        <ele>963</ele>
        <time>2018-09-02T12:28:14.000Z</time>
      </trkpt>
      <trkpt lat="46.23463" lon="6.46587">
        <ele>959</ele>
        <time>2018-09-02T12:29:14.000Z</time>
      </trkpt>
      <trkpt lat="46.23477" lon="6.46594">
        <ele>959</ele>
        <time>2018-09-02T12:30:14.000Z</time>
      </trkpt>
      <trkpt lat="46.23483" lon="6.466">
        <ele>959</ele>
        <time>2018-09-02T12:31:14.000Z</time>
      </trkpt>
      <trkpt lat="46.23487" lon="6.46613">
        <ele>960</ele>
        <time>2018-09-02T12:32:14.000Z</time>
      </trkpt>
      <trkpt lat="46.23491" lon="6.4665">
        <ele>965</ele>
        <time>2018-09-02T12:33:14.000Z</time>
      </trkpt>
      <trkpt lat="46.23494" lon="6.46659">
        <ele>965</ele>
        <time>2018-09-02T12:34:14.000Z</time>
      </trkpt>
      <trkpt lat="46.23497" lon="6.46668">
        <ele>966</ele>
        <time>2018-09-02T12:35:14.000Z</time>
      </trkpt>
      <trkpt lat="46.23509" lon="6.46682">
        <ele>966</ele>
        <time>2018-09-02T12:36:14.000Z</time>
      </trkpt>
      <trkpt lat="46.23535" lon="6.46687">
        <ele>962</ele>
        <time>2018-09-02T12:37:14.000Z</time>
      </trkpt>
      <trkpt lat="46.23601" lon="6.46691">
        <ele>955</ele>
        <time>2018-09-02T12:38:14.000Z</time>
      </trkpt>
      <trkpt lat="46.23613" lon="6.46689">
        <ele>956</ele>
        <time>2018-09-02T12:39:14.000Z</time>
      </trkpt>
      <trkpt lat="46.2362" lon="6.46682">
        <ele>956</ele>
        <time>2018-09-02T12:40:14.000Z</time>
      </trkpt>
      <trkpt lat="46.23625" lon="6.46666">
        <ele>954</ele>
        <time>2018-09-02T12:41:14.000Z</time>
      </trkpt>
      <trkpt lat="46.23628" lon="6.46646">
        <ele>953</ele>
        <time>2018-09-02T12:42:14.000Z</time>
      </trkpt>
      <trkpt lat="46.2363" lon="6.46611">
        <ele>951</ele>
        <time>2018-09-02T12:43:14.000Z</time>
      </trkpt>
      <trkpt lat="46.23629" lon="6.46566">
        <ele>948</ele>
        <time>2018-09-02T12:44:14.000Z</time>
      </trkpt>
      <trkpt lat="46.23624" lon="6.46537">
        <ele>945</ele>
        <time>2018-09-02T12:45:14.000Z</time>
      </trkpt>
      <trkpt lat="46.23619" lon="6.46501">
        <ele>942</ele>
        <time>2018-09-02T12:46:14.000Z</time>
      </trkpt>
      <trkpt lat="46.2362" lon="6.46455">
        <ele>939</ele>
        <time>2018-09-02T12:47:14.000Z</time>
      </trkpt>
      <trkpt lat="46.23623" lon="6.46447">
        <ele>939</ele>
        <time>2018-09-02T12:48:14.000Z</time>
      </trkpt>
      <trkpt lat="46.23624" lon="6.46438">
        <ele>939</ele>
        <time>2018-09-02T12:49:14.000Z</time>
      </trkpt>
      <trkpt lat="46.23619" lon="6.46356">
        <ele>931</ele>
        <time>2018-09-02T12:50:14.000Z</time>
      </trkpt>
      <trkpt lat="46.23611" lon="6.46331">
        <ele>928</ele>
        <time>2018-09-02T12:51:14.000Z</time>
      </trkpt>
      <trkpt lat="46.23599" lon="6.46307">
        <ele>925</ele>
        <time>2018-09-02T12:52:14.000Z</time>
      </trkpt>
      <trkpt lat="46.23595" lon="6.46304">
        <ele>924</ele>
        <time>2018-09-02T12:53:14.000Z</time>
      </trkpt>
      <trkpt lat="46.23584" lon="6.46305">
        <ele>924</ele>
        <time>2018-09-02T12:54:14.000Z</time>
      </trkpt>
      <trkpt lat="46.23578" lon="6.46313">
        <ele>924</ele>
        <time>2018-09-02T12:55:14.000Z</time>
      </trkpt>
      <trkpt lat="46.23577" lon="6.46319">
        <ele>925</ele>
        <time>2018-09-02T12:56:14.000Z</time>
      </trkpt>
      <trkpt lat="46.23574" lon="6.46386">
        <ele>931</ele>
        <time>2018-09-02T12:57:14.000Z</time>
      </trkpt>
      <trkpt lat="46.23571" lon="6.4641">
        <ele>933</ele>
        <time>2018-09-02T12:58:14.000Z</time>
      </trkpt>
      <trkpt lat="46.23567" lon="6.4642">
        <ele>934</ele>
        <time>2018-09-02T12:59:14.000Z</time>
      </trkpt>
      <trkpt lat="46.23561" lon="6.46428">
        <ele>935</ele>
        <time>2018-09-02T13:00:14.000Z</time>
      </trkpt>
      <trkpt lat="46.23552" lon="6.46435">
        <ele>935</ele>
        <time>2018-09-02T13:01:14.000Z</time>
      </trkpt>
      <trkpt lat="46.23532" lon="6.46436">
        <ele>936</ele>
        <time>2018-09-02T13:02:14.000Z</time>
      </trkpt>
      <trkpt lat="46.23521" lon="6.46434">
        <ele>936</ele>
        <time>2018-09-02T13:03:14.000Z</time>
      </trkpt>
      <trkpt lat="46.23515" lon="6.46431">
        <ele>935</ele>
        <time>2018-09-02T13:04:14.000Z</time>
      </trkpt>
      <trkpt lat="46.23505" lon="6.4642">
        <ele>934</ele>
        <time>2018-09-02T13:05:14.000Z</time>
      </trkpt>
      <trkpt lat="46.23501" lon="6.46411">
        <ele>932</ele>
        <time>2018-09-02T13:06:14.000Z</time>
      </trkpt>
      <trkpt lat="46.23499" lon="6.464">
        <ele>931</ele>
        <time>2018-09-02T13:07:14.000Z</time>
      </trkpt>
      <trkpt lat="46.23498" lon="6.4639">
        <ele>929</ele>
        <time>2018-09-02T13:08:14.000Z</time>
      </trkpt>
      <trkpt lat="46.23499" lon="6.46324">
        <ele>920</ele>
        <time>2018-09-02T13:09:14.000Z</time>
      </trkpt>
      <trkpt lat="46.23496" lon="6.46299">
        <ele>917</ele>
        <time>2018-09-02T13:10:14.000Z</time>
      </trkpt>
      <trkpt lat="46.23492" lon="6.46289">
        <ele>916</ele>
        <time>2018-09-02T13:11:14.000Z</time>
      </trkpt>
      <trkpt lat="46.23487" lon="6.46279">
        <ele>916</ele>
        <time>2018-09-02T13:12:14.000Z</time>
      </trkpt>
      <trkpt lat="46.23468" lon="6.46258">
        <ele>915</ele>
        <time>2018-09-02T13:13:14.000Z</time>
      </trkpt>
      <trkpt lat="46.23465" lon="6.46252">
        <ele>915</ele>
        <time>2018-09-02T13:14:14.000Z</time>
      </trkpt>
      <trkpt lat="46.23463" lon="6.46238">
        <ele>914</ele>
        <time>2018-09-02T13:15:14.000Z</time>
      </trkpt>
      <trkpt lat="46.23468" lon="6.46222">
        <ele>913</ele>
        <time>2018-09-02T13:16:14.000Z</time>
      </trkpt>
      <trkpt lat="46.23471" lon="6.46219">
        <ele>912</ele>
        <time>2018-09-02T13:17:14.000Z</time>
      </trkpt>
      <trkpt lat="46.23498" lon="6.46218">
        <ele>909</ele>
        <time>2018-09-02T13:18:14.000Z</time>
      </trkpt>
      <trkpt lat="46.23507" lon="6.4621">
        <ele>909</ele>
        <time>2018-09-02T13:19:14.000Z</time>
      </trkpt>
      <trkpt lat="46.23509" lon="6.46203">
        <ele>909</ele>
        <time>2018-09-02T13:20:14.000Z</time>
      </trkpt>
      <trkpt lat="46.23509" lon="6.46185">
        <ele>907</ele>
        <time>2018-09-02T13:21:14.000Z</time>
      </trkpt>
      <trkpt lat="46.23508" lon="6.46176">
        <ele>907</ele>
        <time>2018-09-02T13:22:14.000Z</time>
      </trkpt>
      <trkpt lat="46.23505" lon="6.4617">
        <ele>906</ele>
        <time>2018-09-02T13:23:14.000Z</time>
      </trkpt>
      <trkpt lat="46.23481" lon="6.46151">
        <ele>906</ele>
        <time>2018-09-02T13:24:14.000Z</time>
      </trkpt>
      <trkpt lat="46.23477" lon="6.46144">
        <ele>906</ele>
        <time>2018-09-02T13:25:14.000Z</time>
      </trkpt>
      <trkpt lat="46.23474" lon="6.46135">
        <ele>905</ele>
        <time>2018-09-02T13:26:14.000Z</time>
      </trkpt>
      <trkpt lat="46.23476" lon="6.46119">
        <ele>903</ele>
        <time>2018-09-02T13:27:14.000Z</time>
      </trkpt>
      <trkpt lat="46.23493" lon="6.46071">
        <ele>897</ele>
        <time>2018-09-02T13:28:14.000Z</time>
      </trkpt>
      <trkpt lat="46.23492" lon="6.46042">
        <ele>894</ele>
        <time>2018-09-02T13:29:14.000Z</time>
      </trkpt>
      <trkpt lat="46.2348" lon="6.46018">
        <ele>893</ele>
        <time>2018-09-02T13:30:14.000Z</time>
      </trkpt>
      <trkpt lat="46.23478" lon="6.4601">
        <ele>892</ele>
        <time>2018-09-02T13:31:14.000Z</time>
      </trkpt>
      <trkpt lat="46.23477" lon="6.45999">
        <ele>891</ele>
        <time>2018-09-02T13:32:14.000Z</time>
      </trkpt>
      <trkpt lat="46.23478" lon="6.45988">
        <ele>890</ele>
        <time>2018-09-02T13:33:14.000Z</time>
      </trkpt>
      <trkpt lat="46.23481" lon="6.45978">
        <ele>889</ele>
        <time>2018-09-02T13:34:14.000Z</time>
      </trkpt>
      <trkpt lat="46.23495" lon="6.45955">
        <ele>887</ele>
        <time>2018-09-02T13:35:14.000Z</time>
      </trkpt>
      <trkpt lat="46.2351" lon="6.4594">
        <ele>886</ele>
        <time>2018-09-02T13:36:14.000Z</time>
      </trkpt>
      <trkpt lat="46.2352" lon="6.45939">
        <ele>886</ele>
        <time>2018-09-02T13:37:14.000Z</time>
      </trkpt>
      <trkpt lat="46.23528" lon="6.45941">
        <ele>886</ele>
        <time>2018-09-02T13:38:14.000Z</time>
      </trkpt>
      <trkpt lat="46.23555" lon="6.4596">
        <ele>886</ele>
        <time>2018-09-02T13:39:14.000Z</time>
      </trkpt>
      <trkpt lat="46.23565" lon="6.45963">
        <ele>887</ele>
        <time>2018-09-02T13:40:14.000Z</time>
      </trkpt>
      <trkpt lat="46.23574" lon="6.45962">
        <ele>886</ele>
        <time>2018-09-02T13:41:14.000Z</time>
      </trkpt>
      <trkpt lat="46.23581" lon="6.45955">
        <ele>886</ele>
        <time>2018-09-02T13:42:14.000Z</time>
      </trkpt>
      <trkpt lat="46.23598" lon="6.45925">
        <ele>882</ele>
        <time>2018-09-02T13:43:14.000Z</time>
      </trkpt>
      <trkpt lat="46.2361" lon="6.45897">
        <ele>880</ele>
        <time>2018-09-02T13:44:14.000Z</time>
      </trkpt>
      <trkpt lat="46.23637" lon="6.45831">
        <ele>874</ele>
        <time>2018-09-02T13:45:14.000Z</time>
      </trkpt>
      <trkpt lat="46.23681" lon="6.45864">
        <ele>875</ele>
        <time>2018-09-02T13:46:14.000Z</time>
      </trkpt>
      <trkpt lat="46.23712" lon="6.4589">
        <ele>876</ele>
        <time>2018-09-02T13:47:14.000Z</time>
      </trkpt>
      <trkpt lat="46.23758" lon="6.45943">
        <ele>878</ele>
        <time>2018-09-02T13:48:14.000Z</time>
      </trkpt>
      <trkpt lat="46.23789" lon="6.45988">
        <ele>879</ele>
        <time>2018-09-02T13:49:14.000Z</time>
      </trkpt>
      <trkpt lat="46.23823" lon="6.4603">
        <ele>881</ele>
        <time>2018-09-02T13:50:14.000Z</time>
      </trkpt>
      <trkpt lat="46.23918" lon="6.46121">
        <ele>887</ele>
        <time>2018-09-02T13:51:14.000Z</time>
      </trkpt>
      <trkpt lat="46.2396" lon="6.46176">
        <ele>891</ele>
        <time>2018-09-02T13:52:14.000Z</time>
      </trkpt>
      <trkpt lat="46.23987" lon="6.46242">
        <ele>894</ele>
        <time>2018-09-02T13:53:14.000Z</time>
      </trkpt>
      <trkpt lat="46.24012" lon="6.46296">
        <ele>896</ele>
        <time>2018-09-02T13:54:14.000Z</time>
      </trkpt>
      <trkpt lat="46.24021" lon="6.46311">
        <ele>896</ele>
        <time>2018-09-02T13:55:14.000Z</time>
      </trkpt>
      <trkpt lat="46.24035" lon="6.46324">
        <ele>896</ele>
        <time>2018-09-02T13:56:14.000Z</time>
      </trkpt>
      <trkpt lat="46.24075" lon="6.46345">
        <ele>895</ele>
        <time>2018-09-02T13:57:14.000Z</time>
      </trkpt>
      <trkpt lat="46.2418" lon="6.46381">
        <ele>897</ele>
        <time>2018-09-02T13:58:14.000Z</time>
      </trkpt>
      <trkpt lat="46.24297" lon="6.46473">
        <ele>904</ele>
        <time>2018-09-02T13:59:14.000Z</time>
      </trkpt>
      <trkpt lat="46.24449" lon="6.46617">
        <ele>909</ele>
        <time>2018-09-02T14:00:14.000Z</time>
      </trkpt>
      <trkpt lat="46.24462" lon="6.46633">
        <ele>910</ele>
        <time>2018-09-02T14:01:14.000Z</time>
      </trkpt>
      <trkpt lat="46.24482" lon="6.46667">
        <ele>912</ele>
        <time>2018-09-02T14:02:14.000Z</time>
      </trkpt>
      <trkpt lat="46.24545" lon="6.46796">
        <ele>919</ele>
        <time>2018-09-02T14:03:14.000Z</time>
      </trkpt>
      <trkpt lat="46.24607" lon="6.46914">
        <ele>927</ele>
        <time>2018-09-02T14:04:14.000Z</time>
      </trkpt>
      <trkpt lat="46.24615" lon="6.46938">
        <ele>929</ele>
        <time>2018-09-02T14:05:14.000Z</time>
      </trkpt>
      <trkpt lat="46.24619" lon="6.46957">
        <ele>930</ele>
        <time>2018-09-02T14:06:14.000Z</time>
      </trkpt>
      <trkpt lat="46.24619" lon="6.46957">
        <ele>930</ele>
        <time>2018-09-02T14:07:14.000Z</time>
      </trkpt>
      <trkpt lat="46.2462" lon="6.46993">
        <ele>933</ele>
        <time>2018-09-02T14:08:14.000Z</time>
      </trkpt>
      <trkpt lat="46.24616" lon="6.47031">
        <ele>934</ele>
        <time>2018-09-02T14:09:14.000Z</time>
      </trkpt>
      <trkpt lat="46.24592" lon="6.47168">
        <ele>938</ele>
        <time>2018-09-02T14:10:14.000Z</time>
      </trkpt>
      <trkpt lat="46.24591" lon="6.47189">
        <ele>939</ele>
        <time>2018-09-02T14:11:14.000Z</time>
      </trkpt>
      <trkpt lat="46.24594" lon="6.47223">
        <ele>941</ele>
        <time>2018-09-02T14:12:14.000Z</time>
      </trkpt>
      <trkpt lat="46.246" lon="6.47254">
        <ele>944</ele>
        <time>2018-09-02T14:13:14.000Z</time>
      </trkpt>
      <trkpt lat="46.24606" lon="6.4727">
        <ele>946</ele>
        <time>2018-09-02T14:14:14.000Z</time>
      </trkpt>
      <trkpt lat="46.24614" lon="6.47284">
        <ele>947</ele>
        <time>2018-09-02T14:15:14.000Z</time>
      </trkpt>
      <trkpt lat="46.24624" lon="6.47295">
        <ele>948</ele>
        <time>2018-09-02T14:16:14.000Z</time>
      </trkpt>
      <trkpt lat="46.24635" lon="6.473">
        <ele>949</ele>
        <time>2018-09-02T14:17:14.000Z</time>
      </trkpt>
      <trkpt lat="46.24662" lon="6.473">
        <ele>948</ele>
        <time>2018-09-02T14:18:14.000Z</time>
      </trkpt>
      <trkpt lat="46.24684" lon="6.47291">
        <ele>948</ele>
        <time>2018-09-02T14:19:14.000Z</time>
      </trkpt>
      <trkpt lat="46.24695" lon="6.47281">
        <ele>948</ele>
        <time>2018-09-02T14:20:14.000Z</time>
      </trkpt>
      <trkpt lat="46.24706" lon="6.47276">
        <ele>948</ele>
        <time>2018-09-02T14:21:14.000Z</time>
      </trkpt>
      <trkpt lat="46.24718" lon="6.47275">
        <ele>948</ele>
        <time>2018-09-02T14:22:14.000Z</time>
      </trkpt>
      <trkpt lat="46.24787" lon="6.473">
        <ele>953</ele>
        <time>2018-09-02T14:23:14.000Z</time>
      </trkpt>
      <trkpt lat="46.24815" lon="6.47317">
        <ele>956</ele>
        <time>2018-09-02T14:24:14.000Z</time>
      </trkpt>
      <trkpt lat="46.24842" lon="6.47337">
        <ele>959</ele>
        <time>2018-09-02T14:25:14.000Z</time>
      </trkpt>
      <trkpt lat="46.24851" lon="6.4734">
        <ele>959</ele>
        <time>2018-09-02T14:26:14.000Z</time>
      </trkpt>
      <trkpt lat="46.24849" lon="6.47358">
        <ele>960</ele>
        <time>2018-09-02T14:27:14.000Z</time>
      </trkpt>
      <trkpt lat="46.24844" lon="6.47373">
        <ele>961</ele>
        <time>2018-09-02T14:28:14.000Z</time>
      </trkpt>
      <trkpt lat="46.24786" lon="6.47496">
        <ele>966</ele>
        <time>2018-09-02T14:29:14.000Z</time>
      </trkpt>
      <trkpt lat="46.24773" lon="6.47515">
        <ele>968</ele>
        <time>2018-09-02T14:30:14.000Z</time>
      </trkpt>
      <trkpt lat="46.2476" lon="6.4753">
        <ele>970</ele>
        <time>2018-09-02T14:31:14.000Z</time>
      </trkpt>
      <trkpt lat="46.24744" lon="6.47538">
        <ele>971</ele>
        <time>2018-09-02T14:32:14.000Z</time>
      </trkpt>
      <trkpt lat="46.24658" lon="6.47564">
        <ele>975</ele>
        <time>2018-09-02T14:33:14.000Z</time>
      </trkpt>
      <trkpt lat="46.24647" lon="6.47571">
        <ele>976</ele>
        <time>2018-09-02T14:34:14.000Z</time>
      </trkpt>
      <trkpt lat="46.24621" lon="6.47595">
        <ele>980</ele>
        <time>2018-09-02T14:35:14.000Z</time>
      </trkpt>
      <trkpt lat="46.24567" lon="6.47685">
        <ele>985</ele>
        <time>2018-09-02T14:36:14.000Z</time>
      </trkpt>
      <trkpt lat="46.24527" lon="6.47764">
        <ele>992</ele>
        <time>2018-09-02T14:37:14.000Z</time>
      </trkpt>
      <trkpt lat="46.24519" lon="6.47773">
        <ele>993</ele>
        <time>2018-09-02T14:38:14.000Z</time>
      </trkpt>
      <trkpt lat="46.2451" lon="6.47776">
        <ele>993</ele>
        <time>2018-09-02T14:39:14.000Z</time>
      </trkpt>
      <trkpt lat="46.24504" lon="6.47775">
        <ele>993</ele>
        <time>2018-09-02T14:40:14.000Z</time>
      </trkpt>
      <trkpt lat="46.24494" lon="6.47769">
        <ele>993</ele>
        <time>2018-09-02T14:41:14.000Z</time>
      </trkpt>
      <trkpt lat="46.24481" lon="6.47754">
        <ele>992</ele>
        <time>2018-09-02T14:42:14.000Z</time>
      </trkpt>
      <trkpt lat="46.24458" lon="6.47795">
        <ele>998</ele>
        <time>2018-09-02T14:43:14.000Z</time>
      </trkpt>
      <trkpt lat="46.2442" lon="6.47856">
        <ele>1006</ele>
        <time>2018-09-02T14:44:14.000Z</time>
      </trkpt>
      <trkpt lat="46.24415" lon="6.4786">
        <ele>1007</ele>
        <time>2018-09-02T14:45:14.000Z</time>
      </trkpt>
      <trkpt lat="46.24404" lon="6.47863">
        <ele>1008</ele>
        <time>2018-09-02T14:46:14.000Z</time>
      </trkpt>
      <trkpt lat="46.24368" lon="6.47837">
        <ele>1010</ele>
        <time>2018-09-02T14:47:14.000Z</time>
      </trkpt>
      <trkpt lat="46.24355" lon="6.47838">
        <ele>1011</ele>
        <time>2018-09-02T14:48:14.000Z</time>
      </trkpt>
      <trkpt lat="46.24265" lon="6.4794">
        <ele>1031</ele>
        <time>2018-09-02T14:49:14.000Z</time>
      </trkpt>
      <trkpt lat="46.2427" lon="6.47961">
        <ele>1031</ele>
        <time>2018-09-02T14:50:14.000Z</time>
      </trkpt>
      <trkpt lat="46.2428" lon="6.47994">
        <ele>1032</ele>
        <time>2018-09-02T14:51:14.000Z</time>
      </trkpt>
      <trkpt lat="46.24292" lon="6.48017">
        <ele>1033</ele>
        <time>2018-09-02T14:52:14.000Z</time>
      </trkpt>
      <trkpt lat="46.24308" lon="6.48036">
        <ele>1033</ele>
        <time>2018-09-02T14:53:14.000Z</time>
      </trkpt>
      <trkpt lat="46.24338" lon="6.48055">
        <ele>1032</ele>
        <time>2018-09-02T14:54:14.000Z</time>
      </trkpt>
      <trkpt lat="46.24352" lon="6.48072">
        <ele>1035</ele>
        <time>2018-09-02T14:55:14.000Z</time>
      </trkpt>
      <trkpt lat="46.24362" lon="6.48092">
        <ele>1039</ele>
        <time>2018-09-02T14:56:14.000Z</time>
      </trkpt>
      <trkpt lat="46.2437" lon="6.48101">
        <ele>1040</ele>
        <time>2018-09-02T14:57:14.000Z</time>
      </trkpt>
      <trkpt lat="46.24382" lon="6.48106">
        <ele>1042</ele>
        <time>2018-09-02T14:58:14.000Z</time>
      </trkpt>
      <trkpt lat="46.24386" lon="6.48112">
        <ele>1043</ele>
        <time>2018-09-02T14:59:14.000Z</time>
      </trkpt>
      <trkpt lat="46.24388" lon="6.48119">
        <ele>1044</ele>
        <time>2018-09-02T15:00:14.000Z</time>
      </trkpt>
      <trkpt lat="46.24388" lon="6.48128">
        <ele>1045</ele>
        <time>2018-09-02T15:01:14.000Z</time>
      </trkpt>
      <trkpt lat="46.24386" lon="6.4815">
        <ele>1049</ele>
        <time>2018-09-02T15:02:14.000Z</time>
      </trkpt>
      <trkpt lat="46.24391" lon="6.48162">
        <ele>1051</ele>
        <time>2018-09-02T15:03:14.000Z</time>
      </trkpt>
      <trkpt lat="46.24399" lon="6.48168">
        <ele>1052</ele>
        <time>2018-09-02T15:04:14.000Z</time>
      </trkpt>
      <trkpt lat="46.24404" lon="6.48167">
        <ele>1052</ele>
        <time>2018-09-02T15:05:14.000Z</time>
      </trkpt>
      <trkpt lat="46.24413" lon="6.48163">
        <ele>1051</ele>
        <time>2018-09-02T15:06:14.000Z</time>
      </trkpt>
      <trkpt lat="46.24423" lon="6.48154">
        <ele>1050</ele>
        <time>2018-09-02T15:07:14.000Z</time>
      </trkpt>
      <trkpt lat="46.24428" lon="6.48152">
        <ele>1050</ele>
        <time>2018-09-02T15:08:14.000Z</time>
      </trkpt>
      <trkpt lat="46.24435" lon="6.48156">
        <ele>1051</ele>
        <time>2018-09-02T15:09:14.000Z</time>
      </trkpt>
      <trkpt lat="46.24439" lon="6.48164">
        <ele>1053</ele>
        <time>2018-09-02T15:10:14.000Z</time>
      </trkpt>
      <trkpt lat="46.2444" lon="6.48173">
        <ele>1054</ele>
        <time>2018-09-02T15:11:14.000Z</time>
      </trkpt>
      <trkpt lat="46.24437" lon="6.48186">
        <ele>1056</ele>
        <time>2018-09-02T15:12:14.000Z</time>
      </trkpt>
      <trkpt lat="46.24427" lon="6.48207">
        <ele>1058</ele>
        <time>2018-09-02T15:13:14.000Z</time>
      </trkpt>
      <trkpt lat="46.24423" lon="6.48226">
        <ele>1060</ele>
        <time>2018-09-02T15:14:14.000Z</time>
      </trkpt>
      <trkpt lat="46.24417" lon="6.4829">
        <ele>1067</ele>
        <time>2018-09-02T15:15:14.000Z</time>
      </trkpt>
      <trkpt lat="46.24415" lon="6.48298">
        <ele>1068</ele>
        <time>2018-09-02T15:16:14.000Z</time>
      </trkpt>
      <trkpt lat="46.24412" lon="6.48304">
        <ele>1069</ele>
        <time>2018-09-02T15:17:14.000Z</time>
      </trkpt>
      <trkpt lat="46.24408" lon="6.4831">
        <ele>1069</ele>
        <time>2018-09-02T15:18:14.000Z</time>
      </trkpt>
      <trkpt lat="46.24403" lon="6.48314">
        <ele>1070</ele>
        <time>2018-09-02T15:19:14.000Z</time>
      </trkpt>
      <trkpt lat="46.2439" lon="6.48315">
        <ele>1071</ele>
        <time>2018-09-02T15:20:14.000Z</time>
      </trkpt>
      <trkpt lat="46.24384" lon="6.48313">
        <ele>1072</ele>
        <time>2018-09-02T15:21:14.000Z</time>
      </trkpt>
      <trkpt lat="46.24377" lon="6.48305">
        <ele>1071</ele>
        <time>2018-09-02T15:22:14.000Z</time>
      </trkpt>
      <trkpt lat="46.24362" lon="6.48304">
        <ele>1072</ele>
        <time>2018-09-02T15:23:14.000Z</time>
      </trkpt>
      <trkpt lat="46.24356" lon="6.48308">
        <ele>1073</ele>
        <time>2018-09-02T15:24:14.000Z</time>
      </trkpt>
      <trkpt lat="46.24351" lon="6.48315">
        <ele>1074</ele>
        <time>2018-09-02T15:25:14.000Z</time>
      </trkpt>
      <trkpt lat="46.24361" lon="6.48333">
        <ele>1076</ele>
        <time>2018-09-02T15:26:14.000Z</time>
      </trkpt>
      <trkpt lat="46.24375" lon="6.48377">
        <ele>1078</ele>
        <time>2018-09-02T15:27:14.000Z</time>
      </trkpt>
      <trkpt lat="46.24385" lon="6.48492">
        <ele>1084</ele>
        <time>2018-09-02T15:28:14.000Z</time>
      </trkpt>
      <trkpt lat="46.24392" lon="6.48527">
        <ele>1087</ele>
        <time>2018-09-02T15:29:14.000Z</time>
      </trkpt>
      <trkpt lat="46.24403" lon="6.48549">
        <ele>1088</ele>
        <time>2018-09-02T15:30:14.000Z</time>
      </trkpt>
      <trkpt lat="46.24469" lon="6.48645">
        <ele>1094</ele>
        <time>2018-09-02T15:31:14.000Z</time>
      </trkpt>
      <trkpt lat="46.24504" lon="6.48692">
        <ele>1091</ele>
        <time>2018-09-02T15:32:14.000Z</time>
      </trkpt>
      <trkpt lat="46.24518" lon="6.48715">
        <ele>1093</ele>
        <time>2018-09-02T15:33:14.000Z</time>
      </trkpt>
      <trkpt lat="46.24621" lon="6.4896">
        <ele>1100</ele>
        <time>2018-09-02T15:34:14.000Z</time>
      </trkpt>
      <trkpt lat="46.24628" lon="6.48974">
        <ele>1100</ele>
        <time>2018-09-02T15:35:14.000Z</time>
      </trkpt>
      <trkpt lat="46.24683" lon="6.49039">
        <ele>1098</ele>
        <time>2018-09-02T15:36:14.000Z</time>
      </trkpt>
      <trkpt lat="46.24739" lon="6.49127">
        <ele>1096</ele>
        <time>2018-09-02T15:37:14.000Z</time>
      </trkpt>
      <trkpt lat="46.24783" lon="6.49203">
        <ele>1100</ele>
        <time>2018-09-02T15:38:14.000Z</time>
      </trkpt>
      <trkpt lat="46.24867" lon="6.49371">
        <ele>1098</ele>
        <time>2018-09-02T15:39:14.000Z</time>
      </trkpt>
      <trkpt lat="46.24912" lon="6.49469">
        <ele>1094</ele>
        <time>2018-09-02T15:40:14.000Z</time>
      </trkpt>
      <trkpt lat="46.24976" lon="6.49618">
        <ele>1094</ele>
        <time>2018-09-02T15:41:14.000Z</time>
      </trkpt>
      <trkpt lat="46.25008" lon="6.49673">
        <ele>1093</ele>
        <time>2018-09-02T15:42:14.000Z</time>
      </trkpt>
      <trkpt lat="46.25026" lon="6.4972">
        <ele>1094</ele>
        <time>2018-09-02T15:43:14.000Z</time>
      </trkpt>
      <trkpt lat="46.2504" lon="6.49743">
        <ele>1093</ele>
        <time>2018-09-02T15:44:14.000Z</time>
      </trkpt>
      <trkpt lat="46.25062" lon="6.4977">
        <ele>1093</ele>
        <time>2018-09-02T15:45:14.000Z</time>
      </trkpt>
      <trkpt lat="46.2507" lon="6.49783">
        <ele>1091</ele>
        <time>2018-09-02T15:46:14.000Z</time>
      </trkpt>
      <trkpt lat="46.25094" lon="6.49853">
        <ele>1085</ele>
        <time>2018-09-02T15:47:14.000Z</time>
      </trkpt>
      <trkpt lat="46.25213" lon="6.5006">
        <ele>1082</ele>
        <time>2018-09-02T15:48:14.000Z</time>
      </trkpt>
      <trkpt lat="46.25223" lon="6.50075">
        <ele>1080</ele>
        <time>2018-09-02T15:49:14.000Z</time>
      </trkpt>
      <trkpt lat="46.25301" lon="6.50174">
        <ele>1075</ele>
        <time>2018-09-02T15:50:14.000Z</time>
      </trkpt>
      <trkpt lat="46.25401" lon="6.50343">
        <ele>1063</ele>
        <time>2018-09-02T15:51:14.000Z</time>
      </trkpt>
      <trkpt lat="46.25433" lon="6.5039">
        <ele>1059</ele>
        <time>2018-09-02T15:52:14.000Z</time>
      </trkpt>
      <trkpt lat="46.25556" lon="6.50539">
        <ele>1047</ele>
        <time>2018-09-02T15:53:14.000Z</time>
      </trkpt>
      <trkpt lat="46.2561" lon="6.5061">
        <ele>1040</ele>
        <time>2018-09-02T15:54:14.000Z</time>
      </trkpt>
      <trkpt lat="46.25618" lon="6.50617">
        <ele>1039</ele>
        <time>2018-09-02T15:55:14.000Z</time>
      </trkpt>
      <trkpt lat="46.25632" lon="6.50625">
        <ele>1039</ele>
        <time>2018-09-02T15:56:14.000Z</time>
      </trkpt>
      <trkpt lat="46.25659" lon="6.5063">
        <ele>1038</ele>
        <time>2018-09-02T15:57:14.000Z</time>
      </trkpt>
      <trkpt lat="46.25747" lon="6.50621">
        <ele>1035</ele>
        <time>2018-09-02T15:58:14.000Z</time>
      </trkpt>
      <trkpt lat="46.25771" lon="6.50626">
        <ele>1034</ele>
        <time>2018-09-02T15:59:14.000Z</time>
      </trkpt>
      <trkpt lat="46.25808" lon="6.50643">
        <ele>1032</ele>
        <time>2018-09-02T16:00:14.000Z</time>
      </trkpt>
      <trkpt lat="46.25858" lon="6.50675">
        <ele>1028</ele>
        <time>2018-09-02T16:01:14.000Z</time>
      </trkpt>
      <trkpt lat="46.25873" lon="6.50681">
        <ele>1027</ele>
        <time>2018-09-02T16:02:14.000Z</time>
      </trkpt>
      <trkpt lat="46.25895" lon="6.50686">
        <ele>1026</ele>
        <time>2018-09-02T16:03:14.000Z</time>
      </trkpt>
      <trkpt lat="46.25948" lon="6.50685">
        <ele>1025</ele>
        <time>2018-09-02T16:04:14.000Z</time>
      </trkpt>
      <trkpt lat="46.25958" lon="6.50686">
        <ele>1024</ele>
        <time>2018-09-02T16:05:14.000Z</time>
      </trkpt>
      <trkpt lat="46.25979" lon="6.50696">
        <ele>1024</ele>
        <time>2018-09-02T16:06:14.000Z</time>
      </trkpt>
      <trkpt lat="46.26028" lon="6.50732">
        <ele>1020</ele>
        <time>2018-09-02T16:07:14.000Z</time>
      </trkpt>
      <trkpt lat="46.26037" lon="6.50737">
        <ele>1019</ele>
        <time>2018-09-02T16:08:14.000Z</time>
      </trkpt>
      <trkpt lat="46.26059" lon="6.50741">
        <ele>1017</ele>
        <time>2018-09-02T16:09:14.000Z</time>
      </trkpt>
      <trkpt lat="46.26096" lon="6.5074">
        <ele>1015</ele>
        <time>2018-09-02T16:10:14.000Z</time>
      </trkpt>
      <trkpt lat="46.26127" lon="6.50745">
        <ele>1015</ele>
        <time>2018-09-02T16:11:14.000Z</time>
      </trkpt>
      <trkpt lat="46.26141" lon="6.50753">
        <ele>1014</ele>
        <time>2018-09-02T16:12:14.000Z</time>
      </trkpt>
      <trkpt lat="46.26263" lon="6.50859">
        <ele>1003</ele>
        <time>2018-09-02T16:13:14.000Z</time>
      </trkpt>
      <trkpt lat="46.2628" lon="6.50871">
        <ele>1002</ele>
        <time>2018-09-02T16:14:14.000Z</time>
      </trkpt>
      <trkpt lat="46.26323" lon="6.5089">
        <ele>1000</ele>
        <time>2018-09-02T16:15:14.000Z</time>
      </trkpt>
      <trkpt lat="46.26343" lon="6.50901">
        <ele>999</ele>
        <time>2018-09-02T16:16:14.000Z</time>
      </trkpt>
      <trkpt lat="46.26581" lon="6.51065">
        <ele>983</ele>
        <time>2018-09-02T16:17:14.000Z</time>
      </trkpt>
      <trkpt lat="46.26735" lon="6.51157">
        <ele>973</ele>
        <time>2018-09-02T16:18:14.000Z</time>
      </trkpt>
      <trkpt lat="46.26746" lon="6.51165">
        <ele>973</ele>
        <time>2018-09-02T16:19:14.000Z</time>
      </trkpt>
      <trkpt lat="46.26813" lon="6.51233">
        <ele>967</ele>
        <time>2018-09-02T16:20:14.000Z</time>
      </trkpt>
      <trkpt lat="46.26836" lon="6.51251">
        <ele>963</ele>
        <time>2018-09-02T16:21:14.000Z</time>
      </trkpt>
      <trkpt lat="46.26887" lon="6.51273">
        <ele>963</ele>
        <time>2018-09-02T16:22:14.000Z</time>
      </trkpt>
      <trkpt lat="46.26924" lon="6.51292">
        <ele>961</ele>
        <time>2018-09-02T16:23:14.000Z</time>
      </trkpt>
      <trkpt lat="46.26966" lon="6.51321">
        <ele>959</ele>
        <time>2018-09-02T16:24:14.000Z</time>
      </trkpt>
      <trkpt lat="46.26978" lon="6.51327">
        <ele>958</ele>
        <time>2018-09-02T16:25:14.000Z</time>
      </trkpt>
      <trkpt lat="46.27088" lon="6.51346">
        <ele>961</ele>
        <time>2018-09-02T16:26:14.000Z</time>
      </trkpt>
      <trkpt lat="46.27108" lon="6.51353">
        <ele>962</ele>
        <time>2018-09-02T16:27:14.000Z</time>
      </trkpt>
      <trkpt lat="46.27126" lon="6.51363">
        <ele>960</ele>
        <time>2018-09-02T16:28:14.000Z</time>
      </trkpt>
      <trkpt lat="46.2723" lon="6.51443">
        <ele>945</ele>
        <time>2018-09-02T16:29:14.000Z</time>
      </trkpt>
      <trkpt lat="46.27294" lon="6.51484">
        <ele>942</ele>
        <time>2018-09-02T16:30:14.000Z</time>
      </trkpt>
      <trkpt lat="46.27365" lon="6.51527">
        <ele>941</ele>
        <time>2018-09-02T16:31:14.000Z</time>
      </trkpt>
      <trkpt lat="46.27395" lon="6.51552">
        <ele>939</ele>
        <time>2018-09-02T16:32:14.000Z</time>
      </trkpt>
      <trkpt lat="46.27395" lon="6.51552">
        <ele>939</ele>
        <time>2018-09-02T16:33:14.000Z</time>
      </trkpt>
      <trkpt lat="46.2745" lon="6.51599">
        <ele>930</ele>
        <time>2018-09-02T16:34:14.000Z</time>
      </trkpt>
      <trkpt lat="46.27462" lon="6.51607">
        <ele>929</ele>
        <time>2018-09-02T16:35:14.000Z</time>
      </trkpt>
      <trkpt lat="46.27475" lon="6.51611">
        <ele>928</ele>
        <time>2018-09-02T16:36:14.000Z</time>
      </trkpt>
      <trkpt lat="46.27544" lon="6.51621">
        <ele>922</ele>
        <time>2018-09-02T16:37:14.000Z</time>
      </trkpt>
      <trkpt lat="46.27591" lon="6.51633">
        <ele>915</ele>
        <time>2018-09-02T16:38:14.000Z</time>
      </trkpt>
      <trkpt lat="46.27693" lon="6.51639">
        <ele>901</ele>
        <time>2018-09-02T16:39:14.000Z</time>
      </trkpt>
      <trkpt lat="46.27708" lon="6.51635">
        <ele>900</ele>
        <time>2018-09-02T16:40:14.000Z</time>
      </trkpt>
      <trkpt lat="46.27717" lon="6.51627">
        <ele>899</ele>
        <time>2018-09-02T16:41:14.000Z</time>
      </trkpt>
      <trkpt lat="46.27723" lon="6.51618">
        <ele>899</ele>
        <time>2018-09-02T16:42:14.000Z</time>
      </trkpt>
      <trkpt lat="46.27727" lon="6.516">
        <ele>901</ele>
        <time>2018-09-02T16:43:14.000Z</time>
      </trkpt>
      <trkpt lat="46.27728" lon="6.51576">
        <ele>902</ele>
        <time>2018-09-02T16:44:14.000Z</time>
      </trkpt>
      <trkpt lat="46.27719" lon="6.5147">
        <ele>905</ele>
        <time>2018-09-02T16:45:14.000Z</time>
      </trkpt>
      <trkpt lat="46.27719" lon="6.51454">
        <ele>905</ele>
        <time>2018-09-02T16:46:14.000Z</time>
      </trkpt>
      <trkpt lat="46.27726" lon="6.51435">
        <ele>904</ele>
        <time>2018-09-02T16:47:14.000Z</time>
      </trkpt>
      <trkpt lat="46.27733" lon="6.51426">
        <ele>902</ele>
        <time>2018-09-02T16:48:14.000Z</time>
      </trkpt>
      <trkpt lat="46.27753" lon="6.51418">
        <ele>899</ele>
        <time>2018-09-02T16:49:14.000Z</time>
      </trkpt>
      <trkpt lat="46.27762" lon="6.5142">
        <ele>899</ele>
        <time>2018-09-02T16:50:14.000Z</time>
      </trkpt>
      <trkpt lat="46.27769" lon="6.51427">
        <ele>900</ele>
        <time>2018-09-02T16:51:14.000Z</time>
      </trkpt>
      <trkpt lat="46.27771" lon="6.51432">
        <ele>899</ele>
        <time>2018-09-02T16:52:14.000Z</time>
      </trkpt>
      <trkpt lat="46.27787" lon="6.51499">
        <ele>898</ele>
        <time>2018-09-02T16:53:14.000Z</time>
      </trkpt>
      <trkpt lat="46.27811" lon="6.51587">
        <ele>893</ele>
        <time>2018-09-02T16:54:14.000Z</time>
      </trkpt>
      <trkpt lat="46.27825" lon="6.51628">
        <ele>889</ele>
        <time>2018-09-02T16:55:14.000Z</time>
      </trkpt>
      <trkpt lat="46.27835" lon="6.5165">
        <ele>887</ele>
        <time>2018-09-02T16:56:14.000Z</time>
      </trkpt>
      <trkpt lat="46.2785" lon="6.51671">
        <ele>886</ele>
        <time>2018-09-02T16:57:14.000Z</time>
      </trkpt>
      <trkpt lat="46.27861" lon="6.51682">
        <ele>886</ele>
        <time>2018-09-02T16:58:14.000Z</time>
      </trkpt>
      <trkpt lat="46.2788" lon="6.51693">
        <ele>886</ele>
        <time>2018-09-02T16:59:14.000Z</time>
      </trkpt>
      <trkpt lat="46.27998" lon="6.51743">
        <ele>880</ele>
        <time>2018-09-02T17:00:14.000Z</time>
      </trkpt>
      <trkpt lat="46.28027" lon="6.51763">
        <ele>879</ele>
        <time>2018-09-02T17:01:14.000Z</time>
      </trkpt>
      <trkpt lat="46.28051" lon="6.51787">
        <ele>877</ele>
        <time>2018-09-02T17:02:14.000Z</time>
      </trkpt>
      <trkpt lat="46.28164" lon="6.51932">
        <ele>865</ele>
        <time>2018-09-02T17:03:14.000Z</time>
      </trkpt>
      <trkpt lat="46.28194" lon="6.51968">
        <ele>864</ele>
        <time>2018-09-02T17:04:14.000Z</time>
      </trkpt>
      <trkpt lat="46.28254" lon="6.52051">
        <ele>859</ele>
        <time>2018-09-02T17:05:14.000Z</time>
      </trkpt>
      <trkpt lat="46.28303" lon="6.52111">
        <ele>855</ele>
        <time>2018-09-02T17:06:14.000Z</time>
      </trkpt>
      <trkpt lat="46.28382" lon="6.52216">
        <ele>852</ele>
        <time>2018-09-02T17:07:14.000Z</time>
      </trkpt>
      <trkpt lat="46.28387" lon="6.52231">
        <ele>852</ele>
        <time>2018-09-02T17:08:14.000Z</time>
      </trkpt>
      <trkpt lat="46.28377" lon="6.52275">
        <ele>851</ele>
        <time>2018-09-02T17:09:14.000Z</time>
      </trkpt>
      <trkpt lat="46.28377" lon="6.52285">
        <ele>851</ele>
        <time>2018-09-02T17:10:14.000Z</time>
      </trkpt>
      <trkpt lat="46.28379" lon="6.52294">
        <ele>850</ele>
        <time>2018-09-02T17:11:14.000Z</time>
      </trkpt>
      <trkpt lat="46.28384" lon="6.52307">
        <ele>850</ele>
        <time>2018-09-02T17:12:14.000Z</time>
      </trkpt>
      <trkpt lat="46.28448" lon="6.52362">
        <ele>846</ele>
        <time>2018-09-02T17:13:14.000Z</time>
      </trkpt>
      <trkpt lat="46.28535" lon="6.52443">
        <ele>842</ele>
        <time>2018-09-02T17:14:14.000Z</time>
      </trkpt>
      <trkpt lat="46.28547" lon="6.5245">
        <ele>841</ele>
        <time>2018-09-02T17:15:14.000Z</time>
      </trkpt>
      <trkpt lat="46.2856" lon="6.52455">
        <ele>841</ele>
        <time>2018-09-02T17:16:14.000Z</time>
      </trkpt>
      <trkpt lat="46.2863" lon="6.52468">
        <ele>839</ele>
        <time>2018-09-02T17:17:14.000Z</time>
      </trkpt>
      <trkpt lat="46.28649" lon="6.52476">
        <ele>838</ele>
        <time>2018-09-02T17:18:14.000Z</time>
      </trkpt>
      <trkpt lat="46.28665" lon="6.52487">
        <ele>837</ele>
        <time>2018-09-02T17:19:14.000Z</time>
      </trkpt>
      <trkpt lat="46.28681" lon="6.52501">
        <ele>837</ele>
        <time>2018-09-02T17:20:14.000Z</time>
      </trkpt>
      <trkpt lat="46.28768" lon="6.52605">
        <ele>832</ele>
        <time>2018-09-02T17:21:14.000Z</time>
      </trkpt>
      <trkpt lat="46.2879" lon="6.5263">
        <ele>832</ele>
        <time>2018-09-02T17:22:14.000Z</time>
      </trkpt>
      <trkpt lat="46.28916" lon="6.52745">
        <ele>830</ele>
        <time>2018-09-02T17:23:14.000Z</time>
      </trkpt>
      <trkpt lat="46.29039" lon="6.5288">
        <ele>827</ele>
        <time>2018-09-02T17:24:14.000Z</time>
      </trkpt>
      <trkpt lat="46.29047" lon="6.52885">
        <ele>827</ele>
        <time>2018-09-02T17:25:14.000Z</time>
      </trkpt>
      <trkpt lat="46.2906" lon="6.52884">
        <ele>827</ele>
        <time>2018-09-02T17:26:14.000Z</time>
      </trkpt>
      <trkpt lat="46.2907" lon="6.52879">
        <ele>827</ele>
        <time>2018-09-02T17:27:14.000Z</time>
      </trkpt>
      <trkpt lat="46.29156" lon="6.52821">
        <ele>825</ele>
        <time>2018-09-02T17:28:14.000Z</time>
      </trkpt>
      <trkpt lat="46.29171" lon="6.52815">
        <ele>825</ele>
        <time>2018-09-02T17:29:14.000Z</time>
      </trkpt>
      <trkpt lat="46.29196" lon="6.52812">
        <ele>826</ele>
        <time>2018-09-02T17:30:14.000Z</time>
      </trkpt>
      <trkpt lat="46.29258" lon="6.52818">
        <ele>828</ele>
        <time>2018-09-02T17:31:14.000Z</time>
      </trkpt>
      <trkpt lat="46.29275" lon="6.52822">
        <ele>828</ele>
        <time>2018-09-02T17:32:14.000Z</time>
      </trkpt>
      <trkpt lat="46.29286" lon="6.52827">
        <ele>828</ele>
        <time>2018-09-02T17:33:14.000Z</time>
      </trkpt>
      <trkpt lat="46.29301" lon="6.52838">
        <ele>828</ele>
        <time>2018-09-02T17:34:14.000Z</time>
      </trkpt>
      <trkpt lat="46.29316" lon="6.52853">
        <ele>827</ele>
        <time>2018-09-02T17:35:14.000Z</time>
      </trkpt>
      <trkpt lat="46.29354" lon="6.52902">
        <ele>824</ele>
        <time>2018-09-02T17:36:14.000Z</time>
      </trkpt>
      <trkpt lat="46.2937" lon="6.52915">
        <ele>824</ele>
        <time>2018-09-02T17:37:14.000Z</time>
      </trkpt>
      <trkpt lat="46.29395" lon="6.52925">
        <ele>825</ele>
        <time>2018-09-02T17:38:14.000Z</time>
      </trkpt>
      <trkpt lat="46.29406" lon="6.52931">
        <ele>825</ele>
        <time>2018-09-02T17:39:14.000Z</time>
      </trkpt>
      <trkpt lat="46.29452" lon="6.52979">
        <ele>825</ele>
        <time>2018-09-02T17:40:14.000Z</time>
      </trkpt>
      <trkpt lat="46.29527" lon="6.53035">
        <ele>825</ele>
        <time>2018-09-02T17:41:14.000Z</time>
      </trkpt>
      <trkpt lat="46.29546" lon="6.53045">
        <ele>825</ele>
        <time>2018-09-02T17:42:14.000Z</time>
      </trkpt>
      <trkpt lat="46.29593" lon="6.53061">
        <ele>825</ele>
        <time>2018-09-02T17:43:14.000Z</time>
      </trkpt>
      <trkpt lat="46.29615" lon="6.53064">
        <ele>824</ele>
        <time>2018-09-02T17:44:14.000Z</time>
      </trkpt>
      <trkpt lat="46.2963" lon="6.5306">
        <ele>825</ele>
        <time>2018-09-02T17:45:14.000Z</time>
      </trkpt>
      <trkpt lat="46.29643" lon="6.53051">
        <ele>826</ele>
        <time>2018-09-02T17:46:14.000Z</time>
      </trkpt>
      <trkpt lat="46.29654" lon="6.53038">
        <ele>827</ele>
        <time>2018-09-02T17:47:14.000Z</time>
      </trkpt>
      <trkpt lat="46.29678" lon="6.53006">
        <ele>829</ele>
        <time>2018-09-02T17:48:14.000Z</time>
      </trkpt>
      <trkpt lat="46.29695" lon="6.52999">
        <ele>828</ele>
        <time>2018-09-02T17:49:14.000Z</time>
      </trkpt>
      <trkpt lat="46.297" lon="6.53">
        <ele>828</ele>
        <time>2018-09-02T17:50:14.000Z</time>
      </trkpt>
      <trkpt lat="46.29717" lon="6.53008">
        <ele>826</ele>
        <time>2018-09-02T17:51:14.000Z</time>
      </trkpt>
      <trkpt lat="46.29754" lon="6.53036">
        <ele>823</ele>
        <time>2018-09-02T17:52:14.000Z</time>
      </trkpt>
      <trkpt lat="46.29772" lon="6.53048">
        <ele>823</ele>
        <time>2018-09-02T17:53:14.000Z</time>
      </trkpt>
      <trkpt lat="46.29851" lon="6.53075">
        <ele>827</ele>
        <time>2018-09-02T17:54:14.000Z</time>
      </trkpt>
      <trkpt lat="46.29865" lon="6.53085">
        <ele>829</ele>
        <time>2018-09-02T17:55:14.000Z</time>
      </trkpt>
      <trkpt lat="46.29878" lon="6.53102">
        <ele>829</ele>
        <time>2018-09-02T17:56:14.000Z</time>
      </trkpt>
      <trkpt lat="46.29885" lon="6.53132">
        <ele>828</ele>
        <time>2018-09-02T17:57:14.000Z</time>
      </trkpt>
      <trkpt lat="46.29888" lon="6.53194">
        <ele>824</ele>
        <time>2018-09-02T17:58:14.000Z</time>
      </trkpt>
      <trkpt lat="46.29891" lon="6.53236">
        <ele>823</ele>
        <time>2018-09-02T17:59:14.000Z</time>
      </trkpt>
      <trkpt lat="46.29904" lon="6.533">
        <ele>822</ele>
        <time>2018-09-02T18:00:14.000Z</time>
      </trkpt>
      <trkpt lat="46.29912" lon="6.53353">
        <ele>819</ele>
        <time>2018-09-02T18:01:14.000Z</time>
      </trkpt>
      <trkpt lat="46.29957" lon="6.53534">
        <ele>810</ele>
        <time>2018-09-02T18:02:14.000Z</time>
      </trkpt>
      <trkpt lat="46.29965" lon="6.53556">
        <ele>808</ele>
        <time>2018-09-02T18:03:14.000Z</time>
      </trkpt>
      <trkpt lat="46.29972" lon="6.53568">
        <ele>807</ele>
        <time>2018-09-02T18:04:14.000Z</time>
      </trkpt>
      <trkpt lat="46.2998" lon="6.53575">
        <ele>806</ele>
        <time>2018-09-02T18:05:14.000Z</time>
      </trkpt>
      <trkpt lat="46.2999" lon="6.53579">
        <ele>806</ele>
        <time>2018-09-02T18:06:14.000Z</time>
      </trkpt>
      <trkpt lat="46.30007" lon="6.53578">
        <ele>807</ele>
        <time>2018-09-02T18:07:14.000Z</time>
      </trkpt>
      <trkpt lat="46.30041" lon="6.53562">
        <ele>809</ele>
        <time>2018-09-02T18:08:14.000Z</time>
      </trkpt>
      <trkpt lat="46.3006" lon="6.5356">
        <ele>808</ele>
        <time>2018-09-02T18:09:14.000Z</time>
      </trkpt>
      <trkpt lat="46.30132" lon="6.53574">
        <ele>804</ele>
        <time>2018-09-02T18:10:14.000Z</time>
      </trkpt>
      <trkpt lat="46.30142" lon="6.53577">
        <ele>804</ele>
        <time>2018-09-02T18:11:14.000Z</time>
      </trkpt>
      <trkpt lat="46.30167" lon="6.53593">
        <ele>801</ele>
        <time>2018-09-02T18:12:14.000Z</time>
      </trkpt>
      <trkpt lat="46.30176" lon="6.53602">
        <ele>801</ele>
        <time>2018-09-02T18:13:14.000Z</time>
      </trkpt>
      <trkpt lat="46.30191" lon="6.53622">
        <ele>800</ele>
        <time>2018-09-02T18:14:14.000Z</time>
      </trkpt>
      <trkpt lat="46.30209" lon="6.53664">
        <ele>797</ele>
        <time>2018-09-02T18:15:14.000Z</time>
      </trkpt>
      <trkpt lat="46.3022" lon="6.53692">
        <ele>797</ele>
        <time>2018-09-02T18:16:14.000Z</time>
      </trkpt>
      <trkpt lat="46.30228" lon="6.53721">
        <ele>796</ele>
        <time>2018-09-02T18:17:14.000Z</time>
      </trkpt>
      <trkpt lat="46.3023" lon="6.53737">
        <ele>796</ele>
        <time>2018-09-02T18:18:14.000Z</time>
      </trkpt>
      <trkpt lat="46.3023" lon="6.53757">
        <ele>795</ele>
        <time>2018-09-02T18:19:14.000Z</time>
      </trkpt>
      <trkpt lat="46.30228" lon="6.53765">
        <ele>795</ele>
        <time>2018-09-02T18:20:14.000Z</time>
      </trkpt>
      <trkpt lat="46.30225" lon="6.53768">
        <ele>795</ele>
        <time>2018-09-02T18:21:14.000Z</time>
      </trkpt>
      <trkpt lat="46.30227" lon="6.53775">
        <ele>795</ele>
        <time>2018-09-02T18:22:14.000Z</time>
      </trkpt>
      <trkpt lat="46.30231" lon="6.53805">
        <ele>795</ele>
        <time>2018-09-02T18:23:14.000Z</time>
      </trkpt>
      <trkpt lat="46.30223" lon="6.5405">
        <ele>791</ele>
        <time>2018-09-02T18:24:14.000Z</time>
      </trkpt>
      <trkpt lat="46.30223" lon="6.54092">
        <ele>790</ele>
        <time>2018-09-02T18:25:14.000Z</time>
      </trkpt>
      <trkpt lat="46.30228" lon="6.54116">
        <ele>789</ele>
        <time>2018-09-02T18:26:14.000Z</time>
      </trkpt>
      <trkpt lat="46.30236" lon="6.54138">
        <ele>789</ele>
        <time>2018-09-02T18:27:14.000Z</time>
      </trkpt>
      <trkpt lat="46.30263" lon="6.54182">
        <ele>790</ele>
        <time>2018-09-02T18:28:14.000Z</time>
      </trkpt>
      <trkpt lat="46.30272" lon="6.54192">
        <ele>790</ele>
        <time>2018-09-02T18:29:14.000Z</time>
      </trkpt>
      <trkpt lat="46.30283" lon="6.542">
        <ele>790</ele>
        <time>2018-09-02T18:30:14.000Z</time>
      </trkpt>
      <trkpt lat="46.30321" lon="6.54212">
        <ele>794</ele>
        <time>2018-09-02T18:31:14.000Z</time>
      </trkpt>
      <trkpt lat="46.30339" lon="6.54222">
        <ele>796</ele>
        <time>2018-09-02T18:32:14.000Z</time>
      </trkpt>
      <trkpt lat="46.30346" lon="6.54228">
        <ele>796</ele>
        <time>2018-09-02T18:33:14.000Z</time>
      </trkpt>
      <trkpt lat="46.3036" lon="6.54253">
        <ele>796</ele>
        <time>2018-09-02T18:34:14.000Z</time>
      </trkpt>
      <trkpt lat="46.30388" lon="6.54337">
        <ele>792</ele>
        <time>2018-09-02T18:35:14.000Z</time>
      </trkpt>
      <trkpt lat="46.30401" lon="6.54362">
        <ele>791</ele>
        <time>2018-09-02T18:36:14.000Z</time>
      </trkpt>
      <trkpt lat="46.30427" lon="6.54401">
        <ele>790</ele>
        <time>2018-09-02T18:37:14.000Z</time>
      </trkpt>
      <trkpt lat="46.30452" lon="6.54433">
        <ele>788</ele>
        <time>2018-09-02T18:38:14.000Z</time>
      </trkpt>
      <trkpt lat="46.30483" lon="6.54467">
        <ele>787</ele>
        <time>2018-09-02T18:39:14.000Z</time>
      </trkpt>
      <trkpt lat="46.30563" lon="6.54569">
        <ele>791</ele>
        <time>2018-09-02T18:40:14.000Z</time>
      </trkpt>
      <trkpt lat="46.30579" lon="6.54591">
        <ele>792</ele>
        <time>2018-09-02T18:41:14.000Z</time>
      </trkpt>
      <trkpt lat="46.30588" lon="6.5461">
        <ele>794</ele>
        <time>2018-09-02T18:42:14.000Z</time>
      </trkpt>
      <trkpt lat="46.30602" lon="6.54683">
        <ele>791</ele>
        <time>2018-09-02T18:43:14.000Z</time>
      </trkpt>
      <trkpt lat="46.30613" lon="6.54706">
        <ele>791</ele>
        <time>2018-09-02T18:44:14.000Z</time>
      </trkpt>
      <trkpt lat="46.30673" lon="6.54771">
        <ele>795</ele>
        <time>2018-09-02T18:45:14.000Z</time>
      </trkpt>
      <trkpt lat="46.30744" lon="6.54837">
        <ele>793</ele>
        <time>2018-09-02T18:46:14.000Z</time>
      </trkpt>
      <trkpt lat="46.30773" lon="6.54852">
        <ele>791</ele>
        <time>2018-09-02T18:47:14.000Z</time>
      </trkpt>
      <trkpt lat="46.3081" lon="6.54857">
        <ele>793</ele>
        <time>2018-09-02T18:48:14.000Z</time>
      </trkpt>
      <trkpt lat="46.30854" lon="6.54871">
        <ele>791</ele>
        <time>2018-09-02T18:49:14.000Z</time>
      </trkpt>
      <trkpt lat="46.30863" lon="6.54872">
        <ele>791</ele>
        <time>2018-09-02T18:50:14.000Z</time>
      </trkpt>
      <trkpt lat="46.30872" lon="6.54868">
        <ele>792</ele>
        <time>2018-09-02T18:51:14.000Z</time>
      </trkpt>
      <trkpt lat="46.30879" lon="6.54862">
        <ele>794</ele>
        <time>2018-09-02T18:52:14.000Z</time>
      </trkpt>
      <trkpt lat="46.30901" lon="6.54826">
        <ele>802</ele>
        <time>2018-09-02T18:53:14.000Z</time>
      </trkpt>
      <trkpt lat="46.30916" lon="6.54816">
        <ele>804</ele>
        <time>2018-09-02T18:54:14.000Z</time>
      </trkpt>
      <trkpt lat="46.30926" lon="6.54815">
        <ele>805</ele>
        <time>2018-09-02T18:55:14.000Z</time>
      </trkpt>
      <trkpt lat="46.30936" lon="6.54818">
        <ele>806</ele>
        <time>2018-09-02T18:56:14.000Z</time>
      </trkpt>
      <trkpt lat="46.30954" lon="6.54827">
        <ele>806</ele>
        <time>2018-09-02T18:57:14.000Z</time>
      </trkpt>
      <trkpt lat="46.30993" lon="6.54856">
        <ele>806</ele>
        <time>2018-09-02T18:58:14.000Z</time>
      </trkpt>
      <trkpt lat="46.31006" lon="6.54873">
        <ele>806</ele>
        <time>2018-09-02T18:59:14.000Z</time>
      </trkpt>
      <trkpt lat="46.31017" lon="6.54899">
        <ele>806</ele>
        <time>2018-09-02T19:00:14.000Z</time>
      </trkpt>
      <trkpt lat="46.31022" lon="6.54913">
        <ele>805</ele>
        <time>2018-09-02T19:01:14.000Z</time>
      </trkpt>
      <trkpt lat="46.31028" lon="6.54941">
        <ele>804</ele>
        <time>2018-09-02T19:02:14.000Z</time>
      </trkpt>
      <trkpt lat="46.31037" lon="6.55006">
        <ele>799</ele>
        <time>2018-09-02T19:03:14.000Z</time>
      </trkpt>
      <trkpt lat="46.31043" lon="6.55037">
        <ele>797</ele>
        <time>2018-09-02T19:04:14.000Z</time>
      </trkpt>
      <trkpt lat="46.31053" lon="6.55065">
        <ele>798</ele>
        <time>2018-09-02T19:05:14.000Z</time>
      </trkpt>
      <trkpt lat="46.31067" lon="6.55091">
        <ele>799</ele>
        <time>2018-09-02T19:06:14.000Z</time>
      </trkpt>
      <trkpt lat="46.31089" lon="6.55118">
        <ele>800</ele>
        <time>2018-09-02T19:07:14.000Z</time>
      </trkpt>
      <trkpt lat="46.31147" lon="6.55174">
        <ele>803</ele>
        <time>2018-09-02T19:08:14.000Z</time>
      </trkpt>
      <trkpt lat="46.31193" lon="6.55213">
        <ele>806</ele>
        <time>2018-09-02T19:09:14.000Z</time>
      </trkpt>
      <trkpt lat="46.31226" lon="6.55248">
        <ele>807</ele>
        <time>2018-09-02T19:10:14.000Z</time>
      </trkpt>
      <trkpt lat="46.31286" lon="6.55364">
        <ele>802</ele>
        <time>2018-09-02T19:11:14.000Z</time>
      </trkpt>
      <trkpt lat="46.31306" lon="6.55392">
        <ele>803</ele>
        <time>2018-09-02T19:12:14.000Z</time>
      </trkpt>
      <trkpt lat="46.31357" lon="6.55445">
        <ele>807</ele>
        <time>2018-09-02T19:13:14.000Z</time>
      </trkpt>
      <trkpt lat="46.31387" lon="6.5549">
        <ele>803</ele>
        <time>2018-09-02T19:14:14.000Z</time>
      </trkpt>
      <trkpt lat="46.31401" lon="6.55504">
        <ele>803</ele>
        <time>2018-09-02T19:15:14.000Z</time>
      </trkpt>
      <trkpt lat="46.31441" lon="6.55533">
        <ele>806</ele>
        <time>2018-09-02T19:16:14.000Z</time>
      </trkpt>
      <trkpt lat="46.31483" lon="6.55581">
        <ele>802</ele>
        <time>2018-09-02T19:17:14.000Z</time>
      </trkpt>
      <trkpt lat="46.31532" lon="6.55642">
        <ele>805</ele>
        <time>2018-09-02T19:18:14.000Z</time>
      </trkpt>
      <trkpt lat="46.31582" lon="6.55726">
        <ele>803</ele>
        <time>2018-09-02T19:19:14.000Z</time>
      </trkpt>
      <trkpt lat="46.31623" lon="6.55819">
        <ele>801</ele>
        <time>2018-09-02T19:20:14.000Z</time>
      </trkpt>
      <trkpt lat="46.31637" lon="6.55846">
        <ele>801</ele>
        <time>2018-09-02T19:21:14.000Z</time>
      </trkpt>
      <trkpt lat="46.31707" lon="6.55949">
        <ele>803</ele>
        <time>2018-09-02T19:22:14.000Z</time>
      </trkpt>
      <trkpt lat="46.31739" lon="6.55983">
        <ele>806</ele>
        <time>2018-09-02T19:23:14.000Z</time>
      </trkpt>
      <trkpt lat="46.31831" lon="6.56044">
        <ele>815</ele>
        <time>2018-09-02T19:24:14.000Z</time>
      </trkpt>
      <trkpt lat="46.3185" lon="6.56059">
        <ele>815</ele>
        <time>2018-09-02T19:25:14.000Z</time>
      </trkpt>
      <trkpt lat="46.31859" lon="6.56069">
        <ele>814</ele>
        <time>2018-09-02T19:26:14.000Z</time>
      </trkpt>
      <trkpt lat="46.31894" lon="6.56117">
        <ele>808</ele>
        <time>2018-09-02T19:27:14.000Z</time>
      </trkpt>
      <trkpt lat="46.3198" lon="6.56219">
        <ele>810</ele>
        <time>2018-09-02T19:28:14.000Z</time>
      </trkpt>
      <trkpt lat="46.32016" lon="6.56277">
        <ele>801</ele>
        <time>2018-09-02T19:29:14.000Z</time>
      </trkpt>
      <trkpt lat="46.32027" lon="6.5629">
        <ele>799</ele>
        <time>2018-09-02T19:30:14.000Z</time>
      </trkpt>
      <trkpt lat="46.32047" lon="6.56305">
        <ele>798</ele>
        <time>2018-09-02T19:31:14.000Z</time>
      </trkpt>
      <trkpt lat="46.32063" lon="6.56313">
        <ele>799</ele>
        <time>2018-09-02T19:32:14.000Z</time>
      </trkpt>
      <trkpt lat="46.32136" lon="6.56337">
        <ele>804</ele>
        <time>2018-09-02T19:33:14.000Z</time>
      </trkpt>
      <trkpt lat="46.32219" lon="6.56367">
        <ele>802</ele>
        <time>2018-09-02T19:34:14.000Z</time>
      </trkpt>
      <trkpt lat="46.32253" lon="6.56375">
        <ele>801</ele>
        <time>2018-09-02T19:35:14.000Z</time>
      </trkpt>
      <trkpt lat="46.32264" lon="6.56379">
        <ele>799</ele>
        <time>2018-09-02T19:36:14.000Z</time>
      </trkpt>
      <trkpt lat="46.32276" lon="6.56388">
        <ele>796</ele>
        <time>2018-09-02T19:37:14.000Z</time>
      </trkpt>
      <trkpt lat="46.32351" lon="6.56466">
        <ele>778</ele>
        <time>2018-09-02T19:38:14.000Z</time>
      </trkpt>
      <trkpt lat="46.32369" lon="6.56484">
        <ele>776</ele>
        <time>2018-09-02T19:39:14.000Z</time>
      </trkpt>
      <trkpt lat="46.32403" lon="6.56506">
        <ele>775</ele>
        <time>2018-09-02T19:40:14.000Z</time>
      </trkpt>
      <trkpt lat="46.32425" lon="6.56516">
        <ele>775</ele>
        <time>2018-09-02T19:41:14.000Z</time>
      </trkpt>
      <trkpt lat="46.32441" lon="6.56516">
        <ele>773</ele>
        <time>2018-09-02T19:42:14.000Z</time>
      </trkpt>
      <trkpt lat="46.32458" lon="6.56508">
        <ele>771</ele>
        <time>2018-09-02T19:43:14.000Z</time>
      </trkpt>
      <trkpt lat="46.3257" lon="6.56412">
        <ele>767</ele>
        <time>2018-09-02T19:44:14.000Z</time>
      </trkpt>
      <trkpt lat="46.32598" lon="6.56397">
        <ele>766</ele>
        <time>2018-09-02T19:45:14.000Z</time>
      </trkpt>
      <trkpt lat="46.32611" lon="6.56392">
        <ele>766</ele>
        <time>2018-09-02T19:46:14.000Z</time>
      </trkpt>
      <trkpt lat="46.32631" lon="6.56389">
        <ele>765</ele>
        <time>2018-09-02T19:47:14.000Z</time>
      </trkpt>
      <trkpt lat="46.32668" lon="6.56386">
        <ele>762</ele>
        <time>2018-09-02T19:48:14.000Z</time>
      </trkpt>
      <trkpt lat="46.32694" lon="6.56387">
        <ele>762</ele>
        <time>2018-09-02T19:49:14.000Z</time>
      </trkpt>
      <trkpt lat="46.3273" lon="6.56396">
        <ele>759</ele>
        <time>2018-09-02T19:50:14.000Z</time>
      </trkpt>
      <trkpt lat="46.32778" lon="6.56401">
        <ele>760</ele>
        <time>2018-09-02T19:51:14.000Z</time>
      </trkpt>
      <trkpt lat="46.32796" lon="6.56405">
        <ele>760</ele>
        <time>2018-09-02T19:52:14.000Z</time>
      </trkpt>
      <trkpt lat="46.32831" lon="6.56422">
        <ele>757</ele>
        <time>2018-09-02T19:53:14.000Z</time>
      </trkpt>
      <trkpt lat="46.32907" lon="6.56471">
        <ele>755</ele>
        <time>2018-09-02T19:54:14.000Z</time>
      </trkpt>
      <trkpt lat="46.33006" lon="6.5651">
        <ele>755</ele>
        <time>2018-09-02T19:55:14.000Z</time>
      </trkpt>
      <trkpt lat="46.33049" lon="6.56523">
        <ele>753</ele>
        <time>2018-09-02T19:56:14.000Z</time>
      </trkpt>
      <trkpt lat="46.33092" lon="6.56553">
        <ele>741</ele>
        <time>2018-09-02T19:57:14.000Z</time>
      </trkpt>
      <trkpt lat="46.33108" lon="6.56559">
        <ele>739</ele>
        <time>2018-09-02T19:58:14.000Z</time>
      </trkpt>
      <trkpt lat="46.33151" lon="6.56564">
        <ele>739</ele>
        <time>2018-09-02T19:59:14.000Z</time>
      </trkpt>
      <trkpt lat="46.33202" lon="6.56592">
        <ele>727</ele>
        <time>2018-09-02T20:00:14.000Z</time>
      </trkpt>
      <trkpt lat="46.33233" lon="6.56598">
        <ele>723</ele>
        <time>2018-09-02T20:01:14.000Z</time>
      </trkpt>
      <trkpt lat="46.33249" lon="6.56595">
        <ele>724</ele>
        <time>2018-09-02T20:02:14.000Z</time>
      </trkpt>
      <trkpt lat="46.3326" lon="6.56589">
        <ele>723</ele>
        <time>2018-09-02T20:03:14.000Z</time>
      </trkpt>
      <trkpt lat="46.33302" lon="6.56546">
        <ele>722</ele>
        <time>2018-09-02T20:04:14.000Z</time>
      </trkpt>
      <trkpt lat="46.33353" lon="6.56478">
        <ele>723</ele>
        <time>2018-09-02T20:05:14.000Z</time>
      </trkpt>
      <trkpt lat="46.33384" lon="6.56452">
        <ele>721</ele>
        <time>2018-09-02T20:06:14.000Z</time>
      </trkpt>
      <trkpt lat="46.3343" lon="6.56378">
        <ele>722</ele>
        <time>2018-09-02T20:07:14.000Z</time>
      </trkpt>
      <trkpt lat="46.33468" lon="6.56333">
        <ele>714</ele>
        <time>2018-09-02T20:08:14.000Z</time>
      </trkpt>
      <trkpt lat="46.33477" lon="6.56316">
        <ele>713</ele>
        <time>2018-09-02T20:09:14.000Z</time>
      </trkpt>
      <trkpt lat="46.33494" lon="6.56237">
        <ele>716</ele>
        <time>2018-09-02T20:10:14.000Z</time>
      </trkpt>
      <trkpt lat="46.33513" lon="6.56187">
        <ele>713</ele>
        <time>2018-09-02T20:11:14.000Z</time>
      </trkpt>
      <trkpt lat="46.33528" lon="6.56136">
        <ele>715</ele>
        <time>2018-09-02T20:12:14.000Z</time>
      </trkpt>
      <trkpt lat="46.33545" lon="6.5609">
        <ele>715</ele>
        <time>2018-09-02T20:13:14.000Z</time>
      </trkpt>
      <trkpt lat="46.33552" lon="6.56065">
        <ele>715</ele>
        <time>2018-09-02T20:14:14.000Z</time>
      </trkpt>
      <trkpt lat="46.33562" lon="6.56013">
        <ele>717</ele>
        <time>2018-09-02T20:15:14.000Z</time>
      </trkpt>
      <trkpt lat="46.33567" lon="6.55998">
        <ele>715</ele>
        <time>2018-09-02T20:16:14.000Z</time>
      </trkpt>
      <trkpt lat="46.33582" lon="6.55963">
        <ele>711</ele>
        <time>2018-09-02T20:17:14.000Z</time>
      </trkpt>
      <trkpt lat="46.33591" lon="6.55934">
        <ele>710</ele>
        <time>2018-09-02T20:18:14.000Z</time>
      </trkpt>
      <trkpt lat="46.33605" lon="6.5586">
        <ele>717</ele>
        <time>2018-09-02T20:19:14.000Z</time>
      </trkpt>
      <trkpt lat="46.33607" lon="6.55822">
        <ele>724</ele>
        <time>2018-09-02T20:20:14.000Z</time>
      </trkpt>
      <trkpt lat="46.33607" lon="6.55793">
        <ele>729</ele>
        <time>2018-09-02T20:21:14.000Z</time>
      </trkpt>
      <trkpt lat="46.3361" lon="6.55772">
        <ele>731</ele>
        <time>2018-09-02T20:22:14.000Z</time>
      </trkpt>
      <trkpt lat="46.33619" lon="6.55753">
        <ele>728</ele>
        <time>2018-09-02T20:23:14.000Z</time>
      </trkpt>
      <trkpt lat="46.33646" lon="6.55719">
        <ele>714</ele>
        <time>2018-09-02T20:24:14.000Z</time>
      </trkpt>
      <trkpt lat="46.33653" lon="6.55707">
        <ele>712</ele>
        <time>2018-09-02T20:25:14.000Z</time>
      </trkpt>
      <trkpt lat="46.33659" lon="6.55688">
        <ele>711</ele>
        <time>2018-09-02T20:26:14.000Z</time>
      </trkpt>
      <trkpt lat="46.3366" lon="6.55672">
        <ele>714</ele>
        <time>2018-09-02T20:27:14.000Z</time>
      </trkpt>
      <trkpt lat="46.33657" lon="6.55606">
        <ele>720</ele>
        <time>2018-09-02T20:28:14.000Z</time>
      </trkpt>
      <trkpt lat="46.33654" lon="6.5559">
        <ele>723</ele>
        <time>2018-09-02T20:29:14.000Z</time>
      </trkpt>
      <trkpt lat="46.33636" lon="6.55526">
        <ele>734</ele>
        <time>2018-09-02T20:30:14.000Z</time>
      </trkpt>
      <trkpt lat="46.33631" lon="6.55447">
        <ele>734</ele>
        <time>2018-09-02T20:31:14.000Z</time>
      </trkpt>
      <trkpt lat="46.33637" lon="6.55383">
        <ele>732</ele>
        <time>2018-09-02T20:32:14.000Z</time>
      </trkpt>
      <trkpt lat="46.3365" lon="6.55338">
        <ele>725</ele>
        <time>2018-09-02T20:33:14.000Z</time>
      </trkpt>
      <trkpt lat="46.33661" lon="6.55276">
        <ele>726</ele>
        <time>2018-09-02T20:34:14.000Z</time>
      </trkpt>
      <trkpt lat="46.33666" lon="6.55265">
        <ele>724</ele>
        <time>2018-09-02T20:35:14.000Z</time>
      </trkpt>
      <trkpt lat="46.3369" lon="6.55238">
        <ele>716</ele>
        <time>2018-09-02T20:36:14.000Z</time>
      </trkpt>
      <trkpt lat="46.33696" lon="6.5523">
        <ele>714</ele>
        <time>2018-09-02T20:37:14.000Z</time>
      </trkpt>
      <trkpt lat="46.337" lon="6.55218">
        <ele>715</ele>
        <time>2018-09-02T20:38:14.000Z</time>
      </trkpt>
      <trkpt lat="46.33706" lon="6.55187">
        <ele>719</ele>
        <time>2018-09-02T20:39:14.000Z</time>
      </trkpt>
      <trkpt lat="46.33716" lon="6.55163">
        <ele>720</ele>
        <time>2018-09-02T20:40:14.000Z</time>
      </trkpt>
      <trkpt lat="46.33727" lon="6.5515">
        <ele>718</ele>
        <time>2018-09-02T20:41:14.000Z</time>
      </trkpt>
      <trkpt lat="46.33727" lon="6.5515">
        <ele>718</ele>
        <time>2018-09-02T20:42:14.000Z</time>
      </trkpt>
      <trkpt lat="46.33753" lon="6.55122">
        <ele>713</ele>
        <time>2018-09-02T20:43:14.000Z</time>
      </trkpt>
      <trkpt lat="46.33764" lon="6.55107">
        <ele>712</ele>
        <time>2018-09-02T20:44:14.000Z</time>
      </trkpt>
      <trkpt lat="46.33771" lon="6.55096">
        <ele>712</ele>
        <time>2018-09-02T20:45:14.000Z</time>
      </trkpt>
      <trkpt lat="46.33797" lon="6.55033">
        <ele>719</ele>
        <time>2018-09-02T20:46:14.000Z</time>
      </trkpt>
      <trkpt lat="46.33823" lon="6.54996">
        <ele>719</ele>
        <time>2018-09-02T20:47:14.000Z</time>
      </trkpt>
      <trkpt lat="46.33837" lon="6.54983">
        <ele>718</ele>
        <time>2018-09-02T20:48:14.000Z</time>
      </trkpt>
      <trkpt lat="46.33858" lon="6.54971">
        <ele>714</ele>
        <time>2018-09-02T20:49:14.000Z</time>
      </trkpt>
      <trkpt lat="46.33894" lon="6.54966">
        <ele>700</ele>
        <time>2018-09-02T20:50:14.000Z</time>
      </trkpt>
      <trkpt lat="46.33907" lon="6.5496">
        <ele>696</ele>
        <time>2018-09-02T20:51:14.000Z</time>
      </trkpt>
      <trkpt lat="46.33913" lon="6.54951">
        <ele>695</ele>
        <time>2018-09-02T20:52:14.000Z</time>
      </trkpt>
      <trkpt lat="46.33915" lon="6.54945">
        <ele>696</ele>
        <time>2018-09-02T20:53:14.000Z</time>
      </trkpt>
      <trkpt lat="46.33915" lon="6.54925">
        <ele>700</ele>
        <time>2018-09-02T20:54:14.000Z</time>
      </trkpt>
      <trkpt lat="46.33907" lon="6.54879">
        <ele>707</ele>
        <time>2018-09-02T20:55:14.000Z</time>
      </trkpt>
      <trkpt lat="46.33893" lon="6.54822">
        <ele>717</ele>
        <time>2018-09-02T20:56:14.000Z</time>
      </trkpt>
      <trkpt lat="46.33891" lon="6.54791">
        <ele>717</ele>
        <time>2018-09-02T20:57:14.000Z</time>
      </trkpt>
      <trkpt lat="46.33891" lon="6.54768">
        <ele>717</ele>
        <time>2018-09-02T20:58:14.000Z</time>
      </trkpt>
      <trkpt lat="46.33893" lon="6.54741">
        <ele>716</ele>
        <time>2018-09-02T20:59:14.000Z</time>
      </trkpt>
      <trkpt lat="46.33896" lon="6.54716">
        <ele>719</ele>
        <time>2018-09-02T21:00:14.000Z</time>
      </trkpt>
      <trkpt lat="46.33903" lon="6.54684">
        <ele>720</ele>
        <time>2018-09-02T21:01:14.000Z</time>
      </trkpt>
      <trkpt lat="46.33911" lon="6.5466">
        <ele>720</ele>
        <time>2018-09-02T21:02:14.000Z</time>
      </trkpt>
      <trkpt lat="46.33923" lon="6.54638">
        <ele>720</ele>
        <time>2018-09-02T21:03:14.000Z</time>
      </trkpt>
      <trkpt lat="46.33997" lon="6.54553">
        <ele>705</ele>
        <time>2018-09-02T21:04:14.000Z</time>
      </trkpt>
      <trkpt lat="46.34004" lon="6.5454">
        <ele>706</ele>
        <time>2018-09-02T21:05:14.000Z</time>
      </trkpt>
      <trkpt lat="46.3402" lon="6.54471">
        <ele>719</ele>
        <time>2018-09-02T21:06:14.000Z</time>
      </trkpt>
      <trkpt lat="46.34056" lon="6.54377">
        <ele>715</ele>
        <time>2018-09-02T21:07:14.000Z</time>
      </trkpt>
      <trkpt lat="46.34088" lon="6.54281">
        <ele>708</ele>
        <time>2018-09-02T21:08:14.000Z</time>
      </trkpt>
      <trkpt lat="46.34116" lon="6.54173">
        <ele>705</ele>
        <time>2018-09-02T21:09:14.000Z</time>
      </trkpt>
      <trkpt lat="46.3413" lon="6.54142">
        <ele>698</ele>
        <time>2018-09-02T21:10:14.000Z</time>
      </trkpt>
      <trkpt lat="46.34136" lon="6.54113">
        <ele>696</ele>
        <time>2018-09-02T21:11:14.000Z</time>
      </trkpt>
      <trkpt lat="46.34124" lon="6.5407">
        <ele>702</ele>
        <time>2018-09-02T21:12:14.000Z</time>
      </trkpt>
      <trkpt lat="46.34103" lon="6.54017">
        <ele>710</ele>
        <time>2018-09-02T21:13:14.000Z</time>
      </trkpt>
      <trkpt lat="46.34099" lon="6.53976">
        <ele>711</ele>
        <time>2018-09-02T21:14:14.000Z</time>
      </trkpt>
      <trkpt lat="46.34115" lon="6.53839">
        <ele>702</ele>
        <time>2018-09-02T21:15:14.000Z</time>
      </trkpt>
      <trkpt lat="46.34123" lon="6.53754">
        <ele>705</ele>
        <time>2018-09-02T21:16:14.000Z</time>
      </trkpt>
      <trkpt lat="46.3412" lon="6.53691">
        <ele>711</ele>
        <time>2018-09-02T21:17:14.000Z</time>
      </trkpt>
      <trkpt lat="46.34126" lon="6.53643">
        <ele>713</ele>
        <time>2018-09-02T21:18:14.000Z</time>
      </trkpt>
      <trkpt lat="46.34164" lon="6.5356">
        <ele>709</ele>
        <time>2018-09-02T21:19:14.000Z</time>
      </trkpt>
      <trkpt lat="46.34172" lon="6.5353">
        <ele>706</ele>
        <time>2018-09-02T21:20:14.000Z</time>
      </trkpt>
      <trkpt lat="46.34173" lon="6.53505">
        <ele>705</ele>
        <time>2018-09-02T21:21:14.000Z</time>
      </trkpt>
      <trkpt lat="46.34144" lon="6.53425">
        <ele>704</ele>
        <time>2018-09-02T21:22:14.000Z</time>
      </trkpt>
      <trkpt lat="46.34142" lon="6.53395">
        <ele>705</ele>
        <time>2018-09-02T21:23:14.000Z</time>
      </trkpt>
      <trkpt lat="46.34149" lon="6.53367">
        <ele>706</ele>
        <time>2018-09-02T21:24:14.000Z</time>
      </trkpt>
      <trkpt lat="46.34168" lon="6.53343">
        <ele>704</ele>
        <time>2018-09-02T21:25:14.000Z</time>
      </trkpt>
      <trkpt lat="46.34272" lon="6.53266">
        <ele>695</ele>
        <time>2018-09-02T21:26:14.000Z</time>
      </trkpt>
      <trkpt lat="46.34287" lon="6.53248">
        <ele>694</ele>
        <time>2018-09-02T21:27:14.000Z</time>
      </trkpt>
      <trkpt lat="46.34293" lon="6.53225">
        <ele>695</ele>
        <time>2018-09-02T21:28:14.000Z</time>
      </trkpt>
      <trkpt lat="46.343" lon="6.53028">
        <ele>691</ele>
        <time>2018-09-02T21:29:14.000Z</time>
      </trkpt>
      <trkpt lat="46.34305" lon="6.53001">
        <ele>688</ele>
        <time>2018-09-02T21:30:14.000Z</time>
      </trkpt>
      <trkpt lat="46.34312" lon="6.52985">
        <ele>688</ele>
        <time>2018-09-02T21:31:14.000Z</time>
      </trkpt>
      <trkpt lat="46.34327" lon="6.52975">
        <ele>687</ele>
        <time>2018-09-02T21:32:14.000Z</time>
      </trkpt>
      <trkpt lat="46.34377" lon="6.52948">
        <ele>679</ele>
        <time>2018-09-02T21:33:14.000Z</time>
      </trkpt>
      <trkpt lat="46.34401" lon="6.5293">
        <ele>677</ele>
        <time>2018-09-02T21:34:14.000Z</time>
      </trkpt>
      <trkpt lat="46.34416" lon="6.52909">
        <ele>677</ele>
        <time>2018-09-02T21:35:14.000Z</time>
      </trkpt>
      <trkpt lat="46.34431" lon="6.52864">
        <ele>677</ele>
        <time>2018-09-02T21:36:14.000Z</time>
      </trkpt>
      <trkpt lat="46.3445" lon="6.52836">
        <ele>676</ele>
        <time>2018-09-02T21:37:14.000Z</time>
      </trkpt>
      <trkpt lat="46.34521" lon="6.52771">
        <ele>667</ele>
        <time>2018-09-02T21:38:14.000Z</time>
      </trkpt>
      <trkpt lat="46.34548" lon="6.52738">
        <ele>668</ele>
        <time>2018-09-02T21:39:14.000Z</time>
      </trkpt>
      <trkpt lat="46.34566" lon="6.52682">
        <ele>667</ele>
        <time>2018-09-02T21:40:14.000Z</time>
      </trkpt>
      <trkpt lat="46.34582" lon="6.52652">
        <ele>667</ele>
        <time>2018-09-02T21:41:14.000Z</time>
      </trkpt>
      <trkpt lat="46.34598" lon="6.52625">
        <ele>664</ele>
        <time>2018-09-02T21:42:14.000Z</time>
      </trkpt>
      <trkpt lat="46.34622" lon="6.52597">
        <ele>659</ele>
        <time>2018-09-02T21:43:14.000Z</time>
      </trkpt>
      <trkpt lat="46.34634" lon="6.5257">
        <ele>656</ele>
        <time>2018-09-02T21:44:14.000Z</time>
      </trkpt>
      <trkpt lat="46.34643" lon="6.52443">
        <ele>653</ele>
        <time>2018-09-02T21:45:14.000Z</time>
      </trkpt>
      <trkpt lat="46.34643" lon="6.52374">
        <ele>652</ele>
        <time>2018-09-02T21:46:14.000Z</time>
      </trkpt>
      <trkpt lat="46.34425" lon="6.52367">
        <ele>654</ele>
        <time>2018-09-02T21:47:14.000Z</time>
      </trkpt>
      <trkpt lat="46.34234" lon="6.52329">
        <ele>653</ele>
        <time>2018-09-02T21:48:14.000Z</time>
      </trkpt>
      <trkpt lat="46.34108" lon="6.52314">
        <ele>654</ele>
        <time>2018-09-02T21:49:14.000Z</time>
      </trkpt>
      <trkpt lat="46.34055" lon="6.52298">
        <ele>654</ele>
        <time>2018-09-02T21:50:14.000Z</time>
      </trkpt>
      <trkpt lat="46.34041" lon="6.5229">
        <ele>653</ele>
        <time>2018-09-02T21:51:14.000Z</time>
      </trkpt>
      <trkpt lat="46.33983" lon="6.5224">
        <ele>652</ele>
        <time>2018-09-02T21:52:14.000Z</time>
      </trkpt>
      <trkpt lat="46.33956" lon="6.52226">
        <ele>653</ele>
        <time>2018-09-02T21:53:14.000Z</time>
      </trkpt>
      <trkpt lat="46.33928" lon="6.5221">
        <ele>654</ele>
        <time>2018-09-02T21:54:14.000Z</time>
      </trkpt>
      <trkpt lat="46.33918" lon="6.52201">
        <ele>654</ele>
        <time>2018-09-02T21:55:14.000Z</time>
      </trkpt>
      <trkpt lat="46.33909" lon="6.52192">
        <ele>653</ele>
        <time>2018-09-02T21:56:14.000Z</time>
      </trkpt>
      <trkpt lat="46.33896" lon="6.52173">
        <ele>652</ele>
        <time>2018-09-02T21:57:14.000Z</time>
      </trkpt>
      <trkpt lat="46.33894" lon="6.52164">
        <ele>652</ele>
        <time>2018-09-02T21:58:14.000Z</time>
      </trkpt>
      <trkpt lat="46.33897" lon="6.5216">
        <ele>651</ele>
        <time>2018-09-02T21:59:14.000Z</time>
      </trkpt>
      <trkpt lat="46.33896" lon="6.52148">
        <ele>651</ele>
        <time>2018-09-02T22:00:14.000Z</time>
      </trkpt>
      <trkpt lat="46.3389" lon="6.52138">
        <ele>650</ele>
        <time>2018-09-02T22:01:14.000Z</time>
      </trkpt>
      <trkpt lat="46.33885" lon="6.52136">
        <ele>651</ele>
        <time>2018-09-02T22:02:14.000Z</time>
      </trkpt>
      <trkpt lat="46.3388" lon="6.52138">
        <ele>651</ele>
        <time>2018-09-02T22:03:14.000Z</time>
      </trkpt>
      <trkpt lat="46.33876" lon="6.52143">
        <ele>652</ele>
        <time>2018-09-02T22:04:14.000Z</time>
      </trkpt>
      <trkpt lat="46.3385" lon="6.52128">
        <ele>653</ele>
        <time>2018-09-02T22:05:14.000Z</time>
      </trkpt>
      <trkpt lat="46.33823" lon="6.52101">
        <ele>653</ele>
        <time>2018-09-02T22:06:14.000Z</time>
      </trkpt>
      <trkpt lat="46.33814" lon="6.5209">
        <ele>653</ele>
        <time>2018-09-02T22:07:14.000Z</time>
      </trkpt>
      <trkpt lat="46.33805" lon="6.52071">
        <ele>653</ele>
        <time>2018-09-02T22:08:14.000Z</time>
      </trkpt>
      <trkpt lat="46.33802" lon="6.52058">
        <ele>653</ele>
        <time>2018-09-02T22:09:14.000Z</time>
      </trkpt>
      <trkpt lat="46.33798" lon="6.52">
        <ele>652</ele>
        <time>2018-09-02T22:10:14.000Z</time>
      </trkpt>
      <trkpt lat="46.33795" lon="6.51984">
        <ele>651</ele>
        <time>2018-09-02T22:11:14.000Z</time>
      </trkpt>
      <trkpt lat="46.3379" lon="6.5197">
        <ele>651</ele>
        <time>2018-09-02T22:12:14.000Z</time>
      </trkpt>
      <trkpt lat="46.33753" lon="6.51905">
        <ele>649</ele>
        <time>2018-09-02T22:13:14.000Z</time>
      </trkpt>
      <trkpt lat="46.33732" lon="6.51872">
        <ele>648</ele>
        <time>2018-09-02T22:14:14.000Z</time>
      </trkpt>
      <trkpt lat="46.3367" lon="6.51803">
        <ele>648</ele>
        <time>2018-09-02T22:15:14.000Z</time>
      </trkpt>
      <trkpt lat="46.33571" lon="6.51682">
        <ele>645</ele>
        <time>2018-09-02T22:16:14.000Z</time>
      </trkpt>
      <trkpt lat="46.33572" lon="6.51671">
        <ele>643</ele>
        <time>2018-09-02T22:17:14.000Z</time>
      </trkpt>
      <trkpt lat="46.33578" lon="6.5165">
        <ele>640</ele>
        <time>2018-09-02T22:18:14.000Z</time>
      </trkpt>
      <trkpt lat="46.33612" lon="6.51577">
        <ele>634</ele>
        <time>2018-09-02T22:19:14.000Z</time>
      </trkpt>
      <trkpt lat="46.33616" lon="6.5155">
        <ele>632</ele>
        <time>2018-09-02T22:20:14.000Z</time>
      </trkpt>
      <trkpt lat="46.3361" lon="6.51511">
        <ele>630</ele>
        <time>2018-09-02T22:21:14.000Z</time>
      </trkpt>
      <trkpt lat="46.33588" lon="6.51402">
        <ele>624</ele>
        <time>2018-09-02T22:22:14.000Z</time>
      </trkpt>
      <trkpt lat="46.33583" lon="6.5137">
        <ele>623</ele>
        <time>2018-09-02T22:23:14.000Z</time>
      </trkpt>
      <trkpt lat="46.33585" lon="6.51342">
        <ele>622</ele>
        <time>2018-09-02T22:24:14.000Z</time>
      </trkpt>
      <trkpt lat="46.33596" lon="6.51288">
        <ele>621</ele>
        <time>2018-09-02T22:25:14.000Z</time>
      </trkpt>
      <trkpt lat="46.33599" lon="6.51265">
        <ele>621</ele>
        <time>2018-09-02T22:26:14.000Z</time>
      </trkpt>
      <trkpt lat="46.33601" lon="6.51232">
        <ele>620</ele>
        <time>2018-09-02T22:27:14.000Z</time>
      </trkpt>
      <trkpt lat="46.33598" lon="6.51203">
        <ele>618</ele>
        <time>2018-09-02T22:28:14.000Z</time>
      </trkpt>
      <trkpt lat="46.33579" lon="6.51147">
        <ele>614</ele>
        <time>2018-09-02T22:29:14.000Z</time>
      </trkpt>
      <trkpt lat="46.33576" lon="6.51123">
        <ele>614</ele>
        <time>2018-09-02T22:30:14.000Z</time>
      </trkpt>
      <trkpt lat="46.33579" lon="6.5111">
        <ele>612</ele>
        <time>2018-09-02T22:31:14.000Z</time>
      </trkpt>
      <trkpt lat="46.33584" lon="6.51096">
        <ele>611</ele>
        <time>2018-09-02T22:32:14.000Z</time>
      </trkpt>
      <trkpt lat="46.33607" lon="6.51059">
        <ele>609</ele>
        <time>2018-09-02T22:33:14.000Z</time>
      </trkpt>
      <trkpt lat="46.33609" lon="6.5105">
        <ele>608</ele>
        <time>2018-09-02T22:34:14.000Z</time>
      </trkpt>
      <trkpt lat="46.33608" lon="6.51031">
        <ele>608</ele>
        <time>2018-09-02T22:35:14.000Z</time>
      </trkpt>
      <trkpt lat="46.33603" lon="6.51019">
        <ele>608</ele>
        <time>2018-09-02T22:36:14.000Z</time>
      </trkpt>
      <trkpt lat="46.33544" lon="6.50941">
        <ele>615</ele>
        <time>2018-09-02T22:37:14.000Z</time>
      </trkpt>
      <trkpt lat="46.33469" lon="6.50789">
        <ele>616</ele>
        <time>2018-09-02T22:38:14.000Z</time>
      </trkpt>
      <trkpt lat="46.33466" lon="6.50774">
        <ele>616</ele>
        <time>2018-09-02T22:39:14.000Z</time>
      </trkpt>
      <trkpt lat="46.33463" lon="6.50756">
        <ele>615</ele>
        <time>2018-09-02T22:40:14.000Z</time>
      </trkpt>
      <trkpt lat="46.33466" lon="6.50677">
        <ele>608</ele>
        <time>2018-09-02T22:41:14.000Z</time>
      </trkpt>
      <trkpt lat="46.33465" lon="6.50662">
        <ele>607</ele>
        <time>2018-09-02T22:42:14.000Z</time>
      </trkpt>
      <trkpt lat="46.33461" lon="6.50651">
        <ele>607</ele>
        <time>2018-09-02T22:43:14.000Z</time>
      </trkpt>
      <trkpt lat="46.33411" lon="6.50579">
        <ele>607</ele>
        <time>2018-09-02T22:44:14.000Z</time>
      </trkpt>
      <trkpt lat="46.33391" lon="6.50545">
        <ele>606</ele>
        <time>2018-09-02T22:45:14.000Z</time>
      </trkpt>
      <trkpt lat="46.3338" lon="6.5052">
        <ele>604</ele>
        <time>2018-09-02T22:46:14.000Z</time>
      </trkpt>
      <trkpt lat="46.33328" lon="6.50384">
        <ele>596</ele>
        <time>2018-09-02T22:47:14.000Z</time>
      </trkpt>
      <trkpt lat="46.33318" lon="6.5035">
        <ele>596</ele>
        <time>2018-09-02T22:48:14.000Z</time>
      </trkpt>
      <trkpt lat="46.33309" lon="6.50307">
        <ele>594</ele>
        <time>2018-09-02T22:49:14.000Z</time>
      </trkpt>
      <trkpt lat="46.3331" lon="6.50295">
        <ele>594</ele>
        <time>2018-09-02T22:50:14.000Z</time>
      </trkpt>
      <trkpt lat="46.33313" lon="6.50287">
        <ele>594</ele>
        <time>2018-09-02T22:51:14.000Z</time>
      </trkpt>
      <trkpt lat="46.33365" lon="6.50217">
        <ele>594</ele>
        <time>2018-09-02T22:52:14.000Z</time>
      </trkpt>
      <trkpt lat="46.33379" lon="6.5019">
        <ele>594</ele>
        <time>2018-09-02T22:53:14.000Z</time>
      </trkpt>
      <trkpt lat="46.33443" lon="6.5004">
        <ele>593</ele>
        <time>2018-09-02T22:54:14.000Z</time>
      </trkpt>
      <trkpt lat="46.33491" lon="6.4992">
        <ele>592</ele>
        <time>2018-09-02T22:55:14.000Z</time>
      </trkpt>
      <trkpt lat="46.33499" lon="6.49887">
        <ele>590</ele>
        <time>2018-09-02T22:56:14.000Z</time>
      </trkpt>
      <trkpt lat="46.33498" lon="6.49849">
        <ele>589</ele>
        <time>2018-09-02T22:57:14.000Z</time>
      </trkpt>
      <trkpt lat="46.33485" lon="6.4981">
        <ele>591</ele>
        <time>2018-09-02T22:58:14.000Z</time>
      </trkpt>
      <trkpt lat="46.33414" lon="6.49722">
        <ele>592</ele>
        <time>2018-09-02T22:59:14.000Z</time>
      </trkpt>
      <trkpt lat="46.33397" lon="6.49697">
        <ele>594</ele>
        <time>2018-09-02T23:00:14.000Z</time>
      </trkpt>
      <trkpt lat="46.33394" lon="6.49684">
        <ele>594</ele>
        <time>2018-09-02T23:01:14.000Z</time>
      </trkpt>
      <trkpt lat="46.33395" lon="6.4967">
        <ele>595</ele>
        <time>2018-09-02T23:02:14.000Z</time>
      </trkpt>
      <trkpt lat="46.33409" lon="6.49641">
        <ele>593</ele>
        <time>2018-09-02T23:03:14.000Z</time>
      </trkpt>
      <trkpt lat="46.33423" lon="6.49625">
        <ele>591</ele>
        <time>2018-09-02T23:04:14.000Z</time>
      </trkpt>
      <trkpt lat="46.33462" lon="6.49593">
        <ele>588</ele>
        <time>2018-09-02T23:05:14.000Z</time>
      </trkpt>
      <trkpt lat="46.33471" lon="6.49577">
        <ele>587</ele>
        <time>2018-09-02T23:06:14.000Z</time>
      </trkpt>
      <trkpt lat="46.33476" lon="6.49556">
        <ele>585</ele>
        <time>2018-09-02T23:07:14.000Z</time>
      </trkpt>
      <trkpt lat="46.33476" lon="6.49519">
        <ele>582</ele>
        <time>2018-09-02T23:08:14.000Z</time>
      </trkpt>
      <trkpt lat="46.33466" lon="6.49286">
        <ele>579</ele>
        <time>2018-09-02T23:09:14.000Z</time>
      </trkpt>
      <trkpt lat="46.33466" lon="6.49198">
        <ele>580</ele>
        <time>2018-09-02T23:10:14.000Z</time>
      </trkpt>
      <trkpt lat="46.33455" lon="6.49205">
        <ele>579</ele>
        <time>2018-09-02T23:11:14.000Z</time>
      </trkpt>
      <trkpt lat="46.33407" lon="6.49259">
        <ele>578</ele>
        <time>2018-09-02T23:12:14.000Z</time>
      </trkpt>
      <trkpt lat="46.33394" lon="6.4927">
        <ele>578</ele>
        <time>2018-09-02T23:13:14.000Z</time>
      </trkpt>
      <trkpt lat="46.33379" lon="6.49273">
        <ele>578</ele>
        <time>2018-09-02T23:14:14.000Z</time>
      </trkpt>
      <trkpt lat="46.333" lon="6.49258">
        <ele>578</ele>
        <time>2018-09-02T23:15:14.000Z</time>
      </trkpt>
      <trkpt lat="46.33215" lon="6.49257">
        <ele>586</ele>
        <time>2018-09-02T23:16:14.000Z</time>
      </trkpt>
      <trkpt lat="46.33173" lon="6.49242">
        <ele>592</ele>
        <time>2018-09-02T23:17:14.000Z</time>
      </trkpt>
      <trkpt lat="46.33148" lon="6.49224">
        <ele>594</ele>
        <time>2018-09-02T23:18:14.000Z</time>
      </trkpt>
      <trkpt lat="46.33105" lon="6.49183">
        <ele>598</ele>
        <time>2018-09-02T23:19:14.000Z</time>
      </trkpt>
      <trkpt lat="46.33089" lon="6.49179">
        <ele>600</ele>
        <time>2018-09-02T23:20:14.000Z</time>
      </trkpt>
      <trkpt lat="46.33082" lon="6.49182">
        <ele>602</ele>
        <time>2018-09-02T23:21:14.000Z</time>
      </trkpt>
      <trkpt lat="46.33076" lon="6.49187">
        <ele>602</ele>
        <time>2018-09-02T23:22:14.000Z</time>
      </trkpt>
      <trkpt lat="46.3306" lon="6.49206">
        <ele>604</ele>
        <time>2018-09-02T23:23:14.000Z</time>
      </trkpt>
      <trkpt lat="46.33037" lon="6.4922">
        <ele>605</ele>
        <time>2018-09-02T23:24:14.000Z</time>
      </trkpt>
      <trkpt lat="46.33024" lon="6.4923">
        <ele>605</ele>
        <time>2018-09-02T23:25:14.000Z</time>
      </trkpt>
      <trkpt lat="46.33014" lon="6.49245">
        <ele>606</ele>
        <time>2018-09-02T23:26:14.000Z</time>
      </trkpt>
      <trkpt lat="46.33003" lon="6.49268">
        <ele>606</ele>
        <time>2018-09-02T23:27:14.000Z</time>
      </trkpt>
      <trkpt lat="46.32996" lon="6.49279">
        <ele>606</ele>
        <time>2018-09-02T23:28:14.000Z</time>
      </trkpt>
      <trkpt lat="46.32988" lon="6.49284">
        <ele>605</ele>
        <time>2018-09-02T23:29:14.000Z</time>
      </trkpt>
      <trkpt lat="46.32899" lon="6.49313">
        <ele>604</ele>
        <time>2018-09-02T23:30:14.000Z</time>
      </trkpt>
      <trkpt lat="46.32864" lon="6.49331">
        <ele>604</ele>
        <time>2018-09-02T23:31:14.000Z</time>
      </trkpt>
      <trkpt lat="46.32833" lon="6.49354">
        <ele>604</ele>
        <time>2018-09-02T23:32:14.000Z</time>
      </trkpt>
      <trkpt lat="46.32815" lon="6.49374">
        <ele>605</ele>
        <time>2018-09-02T23:33:14.000Z</time>
      </trkpt>
      <trkpt lat="46.328" lon="6.494">
        <ele>606</ele>
        <time>2018-09-02T23:34:14.000Z</time>
      </trkpt>
      <trkpt lat="46.32792" lon="6.49388">
        <ele>606</ele>
        <time>2018-09-02T23:35:14.000Z</time>
      </trkpt>
      <trkpt lat="46.32757" lon="6.49306">
        <ele>604</ele>
        <time>2018-09-02T23:36:14.000Z</time>
      </trkpt>
      <trkpt lat="46.32748" lon="6.4927">
        <ele>604</ele>
        <time>2018-09-02T23:37:14.000Z</time>
      </trkpt>
      <trkpt lat="46.32746" lon="6.4924">
        <ele>603</ele>
        <time>2018-09-02T23:38:14.000Z</time>
      </trkpt>
      <trkpt lat="46.32747" lon="6.49192">
        <ele>604</ele>
        <time>2018-09-02T23:39:14.000Z</time>
      </trkpt>
      <trkpt lat="46.32746" lon="6.49161">
        <ele>605</ele>
        <time>2018-09-02T23:40:14.000Z</time>
      </trkpt>
      <trkpt lat="46.32743" lon="6.49133">
        <ele>605</ele>
        <time>2018-09-02T23:41:14.000Z</time>
      </trkpt>
      <trkpt lat="46.32731" lon="6.49085">
        <ele>606</ele>
        <time>2018-09-02T23:42:14.000Z</time>
      </trkpt>
      <trkpt lat="46.32731" lon="6.49085">
        <ele>606</ele>
        <time>2018-09-02T23:43:14.000Z</time>
      </trkpt>
      <trkpt lat="46.32716" lon="6.49026">
        <ele>605</ele>
        <time>2018-09-02T23:44:14.000Z</time>
      </trkpt>
      <trkpt lat="46.32708" lon="6.48975">
        <ele>604</ele>
        <time>2018-09-02T23:45:14.000Z</time>
      </trkpt>
      <trkpt lat="46.32685" lon="6.48901">
        <ele>605</ele>
        <time>2018-09-02T23:46:14.000Z</time>
      </trkpt>
      <trkpt lat="46.32682" lon="6.48873">
        <ele>605</ele>
        <time>2018-09-02T23:47:14.000Z</time>
      </trkpt>
      <trkpt lat="46.32687" lon="6.48823">
        <ele>605</ele>
        <time>2018-09-02T23:48:14.000Z</time>
      </trkpt>
      <trkpt lat="46.32698" lon="6.48775">
        <ele>605</ele>
        <time>2018-09-02T23:49:14.000Z</time>
      </trkpt>
      <trkpt lat="46.327" lon="6.48754">
        <ele>605</ele>
        <time>2018-09-02T23:50:14.000Z</time>
      </trkpt>
      <trkpt lat="46.32698" lon="6.48731">
        <ele>605</ele>
        <time>2018-09-02T23:51:14.000Z</time>
      </trkpt>
      <trkpt lat="46.32674" lon="6.48635">
        <ele>605</ele>
        <time>2018-09-02T23:52:14.000Z</time>
      </trkpt>
      <trkpt lat="46.32669" lon="6.48606">
        <ele>605</ele>
        <time>2018-09-02T23:53:14.000Z</time>
      </trkpt>
      <trkpt lat="46.32661" lon="6.48517">
        <ele>605</ele>
        <time>2018-09-02T23:54:14.000Z</time>
      </trkpt>
      <trkpt lat="46.32655" lon="6.48426">
        <ele>604</ele>
        <time>2018-09-02T23:55:14.000Z</time>
      </trkpt>
      <trkpt lat="46.32658" lon="6.48368">
        <ele>605</ele>
        <time>2018-09-02T23:56:14.000Z</time>
      </trkpt>
      <trkpt lat="46.32652" lon="6.48341">
        <ele>605</ele>
        <time>2018-09-02T23:57:14.000Z</time>
      </trkpt>
      <trkpt lat="46.32613" lon="6.48218">
        <ele>604</ele>
        <time>2018-09-02T23:58:14.000Z</time>
      </trkpt>
      <trkpt lat="46.32566" lon="6.48081">
        <ele>605</ele>
        <time>2018-09-02T23:59:14.000Z</time>
      </trkpt>
      <trkpt lat="46.32519" lon="6.47959">
        <ele>602</ele>
        <time>2018-09-03T00:00:14.000Z</time>
      </trkpt>
      <trkpt lat="46.32504" lon="6.47936">
        <ele>602</ele>
        <time>2018-09-03T00:01:14.000Z</time>
      </trkpt>
      <trkpt lat="46.32471" lon="6.47897">
        <ele>602</ele>
        <time>2018-09-03T00:02:14.000Z</time>
      </trkpt>
      <trkpt lat="46.32456" lon="6.47876">
        <ele>602</ele>
        <time>2018-09-03T00:03:14.000Z</time>
      </trkpt>
      <trkpt lat="46.32439" lon="6.47844">
        <ele>601</ele>
        <time>2018-09-03T00:04:14.000Z</time>
      </trkpt>
      <trkpt lat="46.32427" lon="6.47806">
        <ele>601</ele>
        <time>2018-09-03T00:05:14.000Z</time>
      </trkpt>
      <trkpt lat="46.32379" lon="6.47577">
        <ele>603</ele>
        <time>2018-09-03T00:06:14.000Z</time>
      </trkpt>
      <trkpt lat="46.32375" lon="6.47542">
        <ele>602</ele>
        <time>2018-09-03T00:07:14.000Z</time>
      </trkpt>
      <trkpt lat="46.32371" lon="6.47421">
        <ele>599</ele>
        <time>2018-09-03T00:08:14.000Z</time>
      </trkpt>
      <trkpt lat="46.32348" lon="6.47425">
        <ele>598</ele>
        <time>2018-09-03T00:09:14.000Z</time>
      </trkpt>
      <trkpt lat="46.3226" lon="6.47446">
        <ele>601</ele>
        <time>2018-09-03T00:10:14.000Z</time>
      </trkpt>
      <trkpt lat="46.3207" lon="6.47496">
        <ele>602</ele>
        <time>2018-09-03T00:11:14.000Z</time>
      </trkpt>
      <trkpt lat="46.32042" lon="6.47502">
        <ele>602</ele>
        <time>2018-09-03T00:12:14.000Z</time>
      </trkpt>
      <trkpt lat="46.3192" lon="6.47512">
        <ele>608</ele>
        <time>2018-09-03T00:13:14.000Z</time>
      </trkpt>
      <trkpt lat="46.31822" lon="6.47515">
        <ele>610</ele>
        <time>2018-09-03T00:14:14.000Z</time>
      </trkpt>
      <trkpt lat="46.31807" lon="6.47518">
        <ele>610</ele>
        <time>2018-09-03T00:15:14.000Z</time>
      </trkpt>
      <trkpt lat="46.31799" lon="6.47522">
        <ele>610</ele>
        <time>2018-09-03T00:16:14.000Z</time>
      </trkpt>
      <trkpt lat="46.31786" lon="6.47533">
        <ele>610</ele>
        <time>2018-09-03T00:17:14.000Z</time>
      </trkpt>
      <trkpt lat="46.31775" lon="6.47548">
        <ele>610</ele>
        <time>2018-09-03T00:18:14.000Z</time>
      </trkpt>
      <trkpt lat="46.31619" lon="6.47849">
        <ele>609</ele>
        <time>2018-09-03T00:19:14.000Z</time>
      </trkpt>
      <trkpt lat="46.31603" lon="6.47873">
        <ele>608</ele>
        <time>2018-09-03T00:20:14.000Z</time>
      </trkpt>
      <trkpt lat="46.31585" lon="6.47893">
        <ele>607</ele>
        <time>2018-09-03T00:21:14.000Z</time>
      </trkpt>
      <trkpt lat="46.31553" lon="6.47921">
        <ele>609</ele>
        <time>2018-09-03T00:22:14.000Z</time>
      </trkpt>
      <trkpt lat="46.31535" lon="6.4793">
        <ele>610</ele>
        <time>2018-09-03T00:23:14.000Z</time>
      </trkpt>
      <trkpt lat="46.31506" lon="6.47931">
        <ele>611</ele>
        <time>2018-09-03T00:24:14.000Z</time>
      </trkpt>
      <trkpt lat="46.31437" lon="6.47923">
        <ele>608</ele>
        <time>2018-09-03T00:25:14.000Z</time>
      </trkpt>
      <trkpt lat="46.31401" lon="6.47932">
        <ele>608</ele>
        <time>2018-09-03T00:26:14.000Z</time>
      </trkpt>
      <trkpt lat="46.31349" lon="6.47954">
        <ele>609</ele>
        <time>2018-09-03T00:27:14.000Z</time>
      </trkpt>
      <trkpt lat="46.3133" lon="6.47959">
        <ele>610</ele>
        <time>2018-09-03T00:28:14.000Z</time>
      </trkpt>
      <trkpt lat="46.31317" lon="6.47959">
        <ele>610</ele>
        <time>2018-09-03T00:29:14.000Z</time>
      </trkpt>
      <trkpt lat="46.31295" lon="6.47953">
        <ele>610</ele>
        <time>2018-09-03T00:30:14.000Z</time>
      </trkpt>
      <trkpt lat="46.31279" lon="6.47941">
        <ele>609</ele>
        <time>2018-09-03T00:31:14.000Z</time>
      </trkpt>
      <trkpt lat="46.31273" lon="6.47934">
        <ele>609</ele>
        <time>2018-09-03T00:32:14.000Z</time>
      </trkpt>
      <trkpt lat="46.31262" lon="6.47915">
        <ele>609</ele>
        <time>2018-09-03T00:33:14.000Z</time>
      </trkpt>
      <trkpt lat="46.31238" lon="6.47836">
        <ele>614</ele>
        <time>2018-09-03T00:34:14.000Z</time>
      </trkpt>
      <trkpt lat="46.31221" lon="6.47808">
        <ele>616</ele>
        <time>2018-09-03T00:35:14.000Z</time>
      </trkpt>
      <trkpt lat="46.31193" lon="6.47773">
        <ele>619</ele>
        <time>2018-09-03T00:36:14.000Z</time>
      </trkpt>
      <trkpt lat="46.31083" lon="6.47649">
        <ele>624</ele>
        <time>2018-09-03T00:37:14.000Z</time>
      </trkpt>
      <trkpt lat="46.31048" lon="6.47625">
        <ele>627</ele>
        <time>2018-09-03T00:38:14.000Z</time>
      </trkpt>
      <trkpt lat="46.30899" lon="6.47538">
        <ele>636</ele>
        <time>2018-09-03T00:39:14.000Z</time>
      </trkpt>
      <trkpt lat="46.30878" lon="6.47514">
        <ele>635</ele>
        <time>2018-09-03T00:40:14.000Z</time>
      </trkpt>
      <trkpt lat="46.30736" lon="6.47265">
        <ele>640</ele>
        <time>2018-09-03T00:41:14.000Z</time>
      </trkpt>
      <trkpt lat="46.30744" lon="6.47232">
        <ele>639</ele>
        <time>2018-09-03T00:42:14.000Z</time>
      </trkpt>
      <trkpt lat="46.30747" lon="6.472">
        <ele>639</ele>
        <time>2018-09-03T00:43:14.000Z</time>
      </trkpt>
      <trkpt lat="46.30744" lon="6.47167">
        <ele>639</ele>
        <time>2018-09-03T00:44:14.000Z</time>
      </trkpt>
      <trkpt lat="46.30741" lon="6.47156">
        <ele>640</ele>
        <time>2018-09-03T00:45:14.000Z</time>
      </trkpt>
      <trkpt lat="46.30733" lon="6.47135">
        <ele>640</ele>
        <time>2018-09-03T00:46:14.000Z</time>
      </trkpt>
      <trkpt lat="46.30698" lon="6.4708">
        <ele>643</ele>
        <time>2018-09-03T00:47:14.000Z</time>
      </trkpt>
      <trkpt lat="46.30683" lon="6.47046">
        <ele>644</ele>
        <time>2018-09-03T00:48:14.000Z</time>
      </trkpt>
      <trkpt lat="46.30678" lon="6.47021">
        <ele>644</ele>
        <time>2018-09-03T00:49:14.000Z</time>
      </trkpt>
      <trkpt lat="46.30667" lon="6.46915">
        <ele>645</ele>
        <time>2018-09-03T00:50:14.000Z</time>
      </trkpt>
      <trkpt lat="46.3065" lon="6.46836">
        <ele>648</ele>
        <time>2018-09-03T00:51:14.000Z</time>
      </trkpt>
      <trkpt lat="46.30637" lon="6.46676">
        <ele>650</ele>
        <time>2018-09-03T00:52:14.000Z</time>
      </trkpt>
      <trkpt lat="46.30634" lon="6.46653">
        <ele>650</ele>
        <time>2018-09-03T00:53:14.000Z</time>
      </trkpt>
      <trkpt lat="46.30619" lon="6.46585">
        <ele>652</ele>
        <time>2018-09-03T00:54:14.000Z</time>
      </trkpt>
      <trkpt lat="46.30606" lon="6.46476">
        <ele>649</ele>
        <time>2018-09-03T00:55:14.000Z</time>
      </trkpt>
      <trkpt lat="46.30596" lon="6.4641">
        <ele>646</ele>
        <time>2018-09-03T00:56:14.000Z</time>
      </trkpt>
      <trkpt lat="46.30592" lon="6.46375">
        <ele>645</ele>
        <time>2018-09-03T00:57:14.000Z</time>
      </trkpt>
      <trkpt lat="46.30579" lon="6.46206">
        <ele>637</ele>
        <time>2018-09-03T00:58:14.000Z</time>
      </trkpt>
      <trkpt lat="46.30579" lon="6.46206">
        <ele>637</ele>
        <time>2018-09-03T00:59:14.000Z</time>
      </trkpt>
      <trkpt lat="46.30577" lon="6.46172">
        <ele>635</ele>
        <time>2018-09-03T01:00:14.000Z</time>
      </trkpt>
      <trkpt lat="46.30577" lon="6.46042">
        <ele>632</ele>
        <time>2018-09-03T01:01:14.000Z</time>
      </trkpt>
      <trkpt lat="46.30561" lon="6.45992">
        <ele>631</ele>
        <time>2018-09-03T01:02:14.000Z</time>
      </trkpt>
      <trkpt lat="46.30489" lon="6.45851">
        <ele>627</ele>
        <time>2018-09-03T01:03:14.000Z</time>
      </trkpt>
      <trkpt lat="46.30471" lon="6.4582">
        <ele>627</ele>
        <time>2018-09-03T01:04:14.000Z</time>
      </trkpt>
      <trkpt lat="46.30446" lon="6.45794">
        <ele>629</ele>
        <time>2018-09-03T01:05:14.000Z</time>
      </trkpt>
      <trkpt lat="46.30344" lon="6.4576">
        <ele>633</ele>
        <time>2018-09-03T01:06:14.000Z</time>
      </trkpt>
      <trkpt lat="46.30311" lon="6.45746">
        <ele>634</ele>
        <time>2018-09-03T01:07:14.000Z</time>
      </trkpt>
      <trkpt lat="46.30146" lon="6.45728">
        <ele>631</ele>
        <time>2018-09-03T01:08:14.000Z</time>
      </trkpt>
      <trkpt lat="46.30087" lon="6.45717">
        <ele>631</ele>
        <time>2018-09-03T01:09:14.000Z</time>
      </trkpt>
      <trkpt lat="46.30043" lon="6.45687">
        <ele>629</ele>
        <time>2018-09-03T01:10:14.000Z</time>
      </trkpt>
      <trkpt lat="46.29961" lon="6.45611">
        <ele>623</ele>
        <time>2018-09-03T01:11:14.000Z</time>
      </trkpt>
      <trkpt lat="46.29923" lon="6.45582">
        <ele>620</ele>
        <time>2018-09-03T01:12:14.000Z</time>
      </trkpt>
      <trkpt lat="46.29885" lon="6.45534">
        <ele>620</ele>
        <time>2018-09-03T01:13:14.000Z</time>
      </trkpt>
      <trkpt lat="46.29844" lon="6.45455">
        <ele>616</ele>
        <time>2018-09-03T01:14:14.000Z</time>
      </trkpt>
      <trkpt lat="46.2981" lon="6.45401">
        <ele>610</ele>
        <time>2018-09-03T01:15:14.000Z</time>
      </trkpt>
      <trkpt lat="46.29776" lon="6.45367">
        <ele>607</ele>
        <time>2018-09-03T01:16:14.000Z</time>
      </trkpt>
      <trkpt lat="46.29718" lon="6.45323">
        <ele>604</ele>
        <time>2018-09-03T01:17:14.000Z</time>
      </trkpt>
      <trkpt lat="46.29686" lon="6.4529">
        <ele>603</ele>
        <time>2018-09-03T01:18:14.000Z</time>
      </trkpt>
      <trkpt lat="46.29672" lon="6.45262">
        <ele>603</ele>
        <time>2018-09-03T01:19:14.000Z</time>
      </trkpt>
      <trkpt lat="46.29626" lon="6.45122">
        <ele>601</ele>
        <time>2018-09-03T01:20:14.000Z</time>
      </trkpt>
      <trkpt lat="46.29598" lon="6.45067">
        <ele>603</ele>
        <time>2018-09-03T01:21:14.000Z</time>
      </trkpt>
      <trkpt lat="46.29536" lon="6.44973">
        <ele>605</ele>
        <time>2018-09-03T01:22:14.000Z</time>
      </trkpt>
      <trkpt lat="46.29476" lon="6.44916">
        <ele>605</ele>
        <time>2018-09-03T01:23:14.000Z</time>
      </trkpt>
      <trkpt lat="46.28976" lon="6.44684">
        <ele>612</ele>
        <time>2018-09-03T01:24:14.000Z</time>
      </trkpt>
      <trkpt lat="46.28944" lon="6.44684">
        <ele>612</ele>
        <time>2018-09-03T01:25:14.000Z</time>
      </trkpt>
      <trkpt lat="46.28863" lon="6.44705">
        <ele>613</ele>
        <time>2018-09-03T01:26:14.000Z</time>
      </trkpt>
      <trkpt lat="46.2881" lon="6.447">
        <ele>614</ele>
        <time>2018-09-03T01:27:14.000Z</time>
      </trkpt>
      <trkpt lat="46.28737" lon="6.44652">
        <ele>617</ele>
        <time>2018-09-03T01:28:14.000Z</time>
      </trkpt>
      <trkpt lat="46.287" lon="6.44615">
        <ele>616</ele>
        <time>2018-09-03T01:29:14.000Z</time>
      </trkpt>
      <trkpt lat="46.28677" lon="6.44564">
        <ele>613</ele>
        <time>2018-09-03T01:30:14.000Z</time>
      </trkpt>
      <trkpt lat="46.28559" lon="6.44363">
        <ele>613</ele>
        <time>2018-09-03T01:31:14.000Z</time>
      </trkpt>
      <trkpt lat="46.28513" lon="6.44229">
        <ele>615</ele>
        <time>2018-09-03T01:32:14.000Z</time>
      </trkpt>
      <trkpt lat="46.28506" lon="6.44197">
        <ele>615</ele>
        <time>2018-09-03T01:33:14.000Z</time>
      </trkpt>
      <trkpt lat="46.28504" lon="6.44167">
        <ele>616</ele>
        <time>2018-09-03T01:34:14.000Z</time>
      </trkpt>
      <trkpt lat="46.28506" lon="6.44144">
        <ele>616</ele>
        <time>2018-09-03T01:35:14.000Z</time>
      </trkpt>
      <trkpt lat="46.28503" lon="6.44132">
        <ele>616</ele>
        <time>2018-09-03T01:36:14.000Z</time>
      </trkpt>
      <trkpt lat="46.28499" lon="6.44094">
        <ele>617</ele>
        <time>2018-09-03T01:37:14.000Z</time>
      </trkpt>
      <trkpt lat="46.28492" lon="6.44068">
        <ele>617</ele>
        <time>2018-09-03T01:38:14.000Z</time>
      </trkpt>
      <trkpt lat="46.284" lon="6.43834">
        <ele>613</ele>
        <time>2018-09-03T01:39:14.000Z</time>
      </trkpt>
      <trkpt lat="46.28341" lon="6.43647">
        <ele>610</ele>
        <time>2018-09-03T01:40:14.000Z</time>
      </trkpt>
      <trkpt lat="46.28329" lon="6.43589">
        <ele>610</ele>
        <time>2018-09-03T01:41:14.000Z</time>
      </trkpt>
      <trkpt lat="46.28299" lon="6.43478">
        <ele>609</ele>
        <time>2018-09-03T01:42:14.000Z</time>
      </trkpt>
      <trkpt lat="46.28279" lon="6.434">
        <ele>608</ele>
        <time>2018-09-03T01:43:14.000Z</time>
      </trkpt>
      <trkpt lat="46.28279" lon="6.43361">
        <ele>608</ele>
        <time>2018-09-03T01:44:14.000Z</time>
      </trkpt>
      <trkpt lat="46.28273" lon="6.433">
        <ele>607</ele>
        <time>2018-09-03T01:45:14.000Z</time>
      </trkpt>
      <trkpt lat="46.28264" lon="6.43261">
        <ele>607</ele>
        <time>2018-09-03T01:46:14.000Z</time>
      </trkpt>
      <trkpt lat="46.28252" lon="6.43224">
        <ele>607</ele>
        <time>2018-09-03T01:47:14.000Z</time>
      </trkpt>
      <trkpt lat="46.28203" lon="6.43121">
        <ele>610</ele>
        <time>2018-09-03T01:48:14.000Z</time>
      </trkpt>
      <trkpt lat="46.28151" lon="6.43033">
        <ele>612</ele>
        <time>2018-09-03T01:49:14.000Z</time>
      </trkpt>
      <trkpt lat="46.28089" lon="6.42891">
        <ele>612</ele>
        <time>2018-09-03T01:50:14.000Z</time>
      </trkpt>
      <trkpt lat="46.28071" lon="6.4286">
        <ele>612</ele>
        <time>2018-09-03T01:51:14.000Z</time>
      </trkpt>
      <trkpt lat="46.2805" lon="6.42835">
        <ele>611</ele>
        <time>2018-09-03T01:52:14.000Z</time>
      </trkpt>
      <trkpt lat="46.27997" lon="6.42796">
        <ele>610</ele>
        <time>2018-09-03T01:53:14.000Z</time>
      </trkpt>
      <trkpt lat="46.27973" lon="6.42769">
        <ele>607</ele>
        <time>2018-09-03T01:54:14.000Z</time>
      </trkpt>
      <trkpt lat="46.27954" lon="6.42725">
        <ele>604</ele>
        <time>2018-09-03T01:55:14.000Z</time>
      </trkpt>
      <trkpt lat="46.27903" lon="6.42581">
        <ele>598</ele>
        <time>2018-09-03T01:56:14.000Z</time>
      </trkpt>
      <trkpt lat="46.27894" lon="6.42543">
        <ele>597</ele>
        <time>2018-09-03T01:57:14.000Z</time>
      </trkpt>
      <trkpt lat="46.27876" lon="6.4243">
        <ele>595</ele>
        <time>2018-09-03T01:58:14.000Z</time>
      </trkpt>
      <trkpt lat="46.27865" lon="6.42386">
        <ele>593</ele>
        <time>2018-09-03T01:59:14.000Z</time>
      </trkpt>
      <trkpt lat="46.27791" lon="6.42223">
        <ele>585</ele>
        <time>2018-09-03T02:00:14.000Z</time>
      </trkpt>
      <trkpt lat="46.27777" lon="6.42185">
        <ele>585</ele>
        <time>2018-09-03T02:01:14.000Z</time>
      </trkpt>
      <trkpt lat="46.27768" lon="6.42141">
        <ele>586</ele>
        <time>2018-09-03T02:02:14.000Z</time>
      </trkpt>
      <trkpt lat="46.27758" lon="6.42038">
        <ele>591</ele>
        <time>2018-09-03T02:03:14.000Z</time>
      </trkpt>
      <trkpt lat="46.27773" lon="6.41949">
        <ele>589</ele>
        <time>2018-09-03T02:04:14.000Z</time>
      </trkpt>
      <trkpt lat="46.27848" lon="6.41701">
        <ele>583</ele>
        <time>2018-09-03T02:05:14.000Z</time>
      </trkpt>
      <trkpt lat="46.27849" lon="6.41682">
        <ele>583</ele>
        <time>2018-09-03T02:06:14.000Z</time>
      </trkpt>
      <trkpt lat="46.27844" lon="6.4166">
        <ele>583</ele>
        <time>2018-09-03T02:07:14.000Z</time>
      </trkpt>
      <trkpt lat="46.27821" lon="6.41623">
        <ele>582</ele>
        <time>2018-09-03T02:08:14.000Z</time>
      </trkpt>
      <trkpt lat="46.27794" lon="6.41574">
        <ele>581</ele>
        <time>2018-09-03T02:09:14.000Z</time>
      </trkpt>
      <trkpt lat="46.27775" lon="6.41547">
        <ele>580</ele>
        <time>2018-09-03T02:10:14.000Z</time>
      </trkpt>
      <trkpt lat="46.27762" lon="6.41515">
        <ele>578</ele>
        <time>2018-09-03T02:11:14.000Z</time>
      </trkpt>
      <trkpt lat="46.27734" lon="6.41412">
        <ele>573</ele>
        <time>2018-09-03T02:12:14.000Z</time>
      </trkpt>
      <trkpt lat="46.27725" lon="6.41403">
        <ele>573</ele>
        <time>2018-09-03T02:13:14.000Z</time>
      </trkpt>
      <trkpt lat="46.27711" lon="6.41397">
        <ele>574</ele>
        <time>2018-09-03T02:14:14.000Z</time>
      </trkpt>
      <trkpt lat="46.27665" lon="6.41394">
        <ele>575</ele>
        <time>2018-09-03T02:15:14.000Z</time>
      </trkpt>
      <trkpt lat="46.27654" lon="6.41392">
        <ele>575</ele>
        <time>2018-09-03T02:16:14.000Z</time>
      </trkpt>
      <trkpt lat="46.27636" lon="6.41375">
        <ele>576</ele>
        <time>2018-09-03T02:17:14.000Z</time>
      </trkpt>
      <trkpt lat="46.27629" lon="6.4136">
        <ele>577</ele>
        <time>2018-09-03T02:18:14.000Z</time>
      </trkpt>
      <trkpt lat="46.27624" lon="6.4133">
        <ele>579</ele>
        <time>2018-09-03T02:19:14.000Z</time>
      </trkpt>
      <trkpt lat="46.27619" lon="6.41279">
        <ele>580</ele>
        <time>2018-09-03T02:20:14.000Z</time>
      </trkpt>
      <trkpt lat="46.27615" lon="6.41262">
        <ele>580</ele>
        <time>2018-09-03T02:21:14.000Z</time>
      </trkpt>
      <trkpt lat="46.27533" lon="6.41116">
        <ele>582</ele>
        <time>2018-09-03T02:22:14.000Z</time>
      </trkpt>
      <trkpt lat="46.27499" lon="6.41129">
        <ele>583</ele>
        <time>2018-09-03T02:23:14.000Z</time>
      </trkpt>
      <trkpt lat="46.2748" lon="6.41141">
        <ele>583</ele>
        <time>2018-09-03T02:24:14.000Z</time>
      </trkpt>
      <trkpt lat="46.27476" lon="6.4114">
        <ele>583</ele>
        <time>2018-09-03T02:25:14.000Z</time>
      </trkpt>
      <trkpt lat="46.27466" lon="6.4113">
        <ele>583</ele>
        <time>2018-09-03T02:26:14.000Z</time>
      </trkpt>
      <trkpt lat="46.27355" lon="6.4084">
        <ele>581</ele>
        <time>2018-09-03T02:27:14.000Z</time>
      </trkpt>
      <trkpt lat="46.27335" lon="6.40772">
        <ele>579</ele>
        <time>2018-09-03T02:28:14.000Z</time>
      </trkpt>
      <trkpt lat="46.27318" lon="6.40697">
        <ele>578</ele>
        <time>2018-09-03T02:29:14.000Z</time>
      </trkpt>
      <trkpt lat="46.27291" lon="6.40641">
        <ele>577</ele>
        <time>2018-09-03T02:30:14.000Z</time>
      </trkpt>
      <trkpt lat="46.27256" lon="6.40578">
        <ele>577</ele>
        <time>2018-09-03T02:31:14.000Z</time>
      </trkpt>
      <trkpt lat="46.27233" lon="6.40523">
        <ele>576</ele>
        <time>2018-09-03T02:32:14.000Z</time>
      </trkpt>
      <trkpt lat="46.27214" lon="6.40467">
        <ele>577</ele>
        <time>2018-09-03T02:33:14.000Z</time>
      </trkpt>
      <trkpt lat="46.27192" lon="6.40433">
        <ele>578</ele>
        <time>2018-09-03T02:34:14.000Z</time>
      </trkpt>
      <trkpt lat="46.27169" lon="6.4039">
        <ele>578</ele>
        <time>2018-09-03T02:35:14.000Z</time>
      </trkpt>
      <trkpt lat="46.27132" lon="6.40302">
        <ele>578</ele>
        <time>2018-09-03T02:36:14.000Z</time>
      </trkpt>
      <trkpt lat="46.27103" lon="6.40242">
        <ele>578</ele>
        <time>2018-09-03T02:37:14.000Z</time>
      </trkpt>
      <trkpt lat="46.27024" lon="6.4003">
        <ele>579</ele>
        <time>2018-09-03T02:38:14.000Z</time>
      </trkpt>
      <trkpt lat="46.27072" lon="6.39993">
        <ele>575</ele>
        <time>2018-09-03T02:39:14.000Z</time>
      </trkpt>
      <trkpt lat="46.27089" lon="6.39974">
        <ele>575</ele>
        <time>2018-09-03T02:40:14.000Z</time>
      </trkpt>
      <trkpt lat="46.27114" lon="6.3995">
        <ele>573</ele>
        <time>2018-09-03T02:41:14.000Z</time>
      </trkpt>
      <trkpt lat="46.27147" lon="6.39964">
        <ele>573</ele>
        <time>2018-09-03T02:42:14.000Z</time>
      </trkpt>
      <trkpt lat="46.27154" lon="6.39962">
        <ele>572</ele>
        <time>2018-09-03T02:43:14.000Z</time>
      </trkpt>
      <trkpt lat="46.27161" lon="6.39957">
        <ele>572</ele>
        <time>2018-09-03T02:44:14.000Z</time>
      </trkpt>
    </trkseg>
  </trk>
</gpx>